<?xml version="1.0" encoding="UTF-8" standalone="no" ?>
<gpx xmlns="http://www.topografix.com/GPX/1/1" xmlns:xsi="http://www.w3.org/2001/XMLSchema-instance" xsi:schemaLocation="http://www.topografix.com/GPX/1/1 http://www.topografix.com/GPX/1/1/gpx.xsd" version="1.1" creator="VisuGPX - https://www.visugpx.com">
  <metadata>
    <name>RANDO DESGES 22 KM.</name>
    <desc><![CDATA[RANDO DESGES 22 KM.DEPART ARRIVEE DESGES .BOIS NOIR.LA BORIETTE.PRAT CELAY.LA TUILE AUX FEES.L ESTIVAL.LE RANC .]]></desc>
  </metadata>
  <trk>
    <name><![CDATA[RANDO DESGES 22 KM._1]]></name>
    <trkseg>
      <trkpt lat="45.01775" lon="3.45362">
        <ele>754.77</ele>
        <time>2022-03-27T13:52:35Z</time>
      </trkpt>
      <trkpt lat="45.01773" lon="3.45355">
        <ele>752.37</ele>
        <time>2022-03-27T13:52:49Z</time>
      </trkpt>
      <trkpt lat="45.01767" lon="3.45351">
        <ele>750.45</ele>
        <time>2022-03-27T13:53:03Z</time>
      </trkpt>
      <trkpt lat="45.01766" lon="3.45336">
        <ele>749.97</ele>
        <time>2022-03-27T13:53:17Z</time>
      </trkpt>
      <trkpt lat="45.01773" lon="3.45323">
        <ele>749.97</ele>
        <time>2022-03-27T13:53:31Z</time>
      </trkpt>
      <trkpt lat="45.01784" lon="3.45311">
        <ele>749.49</ele>
        <time>2022-03-27T13:53:44Z</time>
      </trkpt>
      <trkpt lat="45.01788" lon="3.45308">
        <ele>749</ele>
        <time>2022-03-27T13:53:48Z</time>
      </trkpt>
      <trkpt lat="45.01797" lon="3.45296">
        <ele>746.6</ele>
        <time>2022-03-27T13:54:01Z</time>
      </trkpt>
      <trkpt lat="45.01807" lon="3.45284">
        <ele>742.76</ele>
        <time>2022-03-27T13:54:12Z</time>
      </trkpt>
      <trkpt lat="45.01815" lon="3.45266">
        <ele>741.31</ele>
        <time>2022-03-27T13:54:29Z</time>
      </trkpt>
      <trkpt lat="45.01815" lon="3.45247">
        <ele>739.39</ele>
        <time>2022-03-27T13:54:45Z</time>
      </trkpt>
      <trkpt lat="45.01812" lon="3.45237">
        <ele>737.95</ele>
        <time>2022-03-27T13:54:54Z</time>
      </trkpt>
      <trkpt lat="45.01803" lon="3.45221">
        <ele>732.18</ele>
        <time>2022-03-27T13:55:10Z</time>
      </trkpt>
      <trkpt lat="45.01795" lon="3.45212">
        <ele>729.3</ele>
        <time>2022-03-27T13:55:20Z</time>
      </trkpt>
      <trkpt lat="45.0179" lon="3.45207">
        <ele>729.3</ele>
        <time>2022-03-27T13:55:26Z</time>
      </trkpt>
      <trkpt lat="45.01786" lon="3.45204">
        <ele>726.41</ele>
        <time>2022-03-27T13:55:32Z</time>
      </trkpt>
      <trkpt lat="45.01777" lon="3.45194">
        <ele>724.49</ele>
        <time>2022-03-27T13:55:48Z</time>
      </trkpt>
      <trkpt lat="45.01767" lon="3.45185">
        <ele>724.01</ele>
        <time>2022-03-27T13:56:03Z</time>
      </trkpt>
      <trkpt lat="45.01753" lon="3.4517">
        <ele>724.49</ele>
        <time>2022-03-27T13:56:22Z</time>
      </trkpt>
      <trkpt lat="45.01748" lon="3.45163">
        <ele>725.45</ele>
        <time>2022-03-27T13:56:37Z</time>
      </trkpt>
      <trkpt lat="45.0174" lon="3.45158">
        <ele>725.93</ele>
        <time>2022-03-27T13:56:52Z</time>
      </trkpt>
      <trkpt lat="45.01734" lon="3.45155">
        <ele>727.37</ele>
        <time>2022-03-27T13:57:06Z</time>
      </trkpt>
      <trkpt lat="45.0173" lon="3.45158">
        <ele>727.86</ele>
        <time>2022-03-27T13:57:30Z</time>
      </trkpt>
      <trkpt lat="45.0172" lon="3.45169">
        <ele>727.37</ele>
        <time>2022-03-27T13:57:47Z</time>
      </trkpt>
      <trkpt lat="45.01714" lon="3.45174">
        <ele>726.89</ele>
        <time>2022-03-27T13:57:54Z</time>
      </trkpt>
      <trkpt lat="45.01712" lon="3.45194">
        <ele>724.97</ele>
        <time>2022-03-27T13:58:11Z</time>
      </trkpt>
      <trkpt lat="45.01703" lon="3.4521">
        <ele>722.57</ele>
        <time>2022-03-27T13:58:28Z</time>
      </trkpt>
      <trkpt lat="45.01692" lon="3.45214">
        <ele>719.68</ele>
        <time>2022-03-27T13:58:41Z</time>
      </trkpt>
      <trkpt lat="45.01685" lon="3.45219">
        <ele>719.2</ele>
        <time>2022-03-27T13:58:52Z</time>
      </trkpt>
      <trkpt lat="45.01683" lon="3.45239">
        <ele>720.65</ele>
        <time>2022-03-27T13:59:07Z</time>
      </trkpt>
      <trkpt lat="45.01679" lon="3.45198">
        <ele>686.04</ele>
        <time>2022-03-27T07:45:26Z</time>
      </trkpt>
      <trkpt lat="45.01688" lon="3.45167">
        <ele>705.26</ele>
        <time>2022-03-27T07:45:44Z</time>
      </trkpt>
      <trkpt lat="45.01694" lon="3.45143">
        <ele>710.07</ele>
        <time>2022-03-27T07:46:01Z</time>
      </trkpt>
      <trkpt lat="45.017" lon="3.45115">
        <ele>713.92</ele>
        <time>2022-03-27T07:46:18Z</time>
      </trkpt>
      <trkpt lat="45.01707" lon="3.45092">
        <ele>719.2</ele>
        <time>2022-03-27T07:46:32Z</time>
      </trkpt>
      <trkpt lat="45.01713" lon="3.45082">
        <ele>722.09</ele>
        <time>2022-03-27T07:46:41Z</time>
      </trkpt>
      <trkpt lat="45.0173" lon="3.45069">
        <ele>727.86</ele>
        <time>2022-03-27T07:46:59Z</time>
      </trkpt>
      <trkpt lat="45.01732" lon="3.45066">
        <ele>728.34</ele>
        <time>2022-03-27T07:47:02Z</time>
      </trkpt>
      <trkpt lat="45.01736" lon="3.45062">
        <ele>728.34</ele>
        <time>2022-03-27T07:47:07Z</time>
      </trkpt>
      <trkpt lat="45.01738" lon="3.4506">
        <ele>727.86</ele>
        <time>2022-03-27T07:47:09Z</time>
      </trkpt>
      <trkpt lat="45.01745" lon="3.45054">
        <ele>728.34</ele>
        <time>2022-03-27T07:47:20Z</time>
      </trkpt>
      <trkpt lat="45.01747" lon="3.45052">
        <ele>728.34</ele>
        <time>2022-03-27T07:47:23Z</time>
      </trkpt>
      <trkpt lat="45.01759" lon="3.45034">
        <ele>728.82</ele>
        <time>2022-03-27T07:47:38Z</time>
      </trkpt>
      <trkpt lat="45.01763" lon="3.45023">
        <ele>728.34</ele>
        <time>2022-03-27T07:47:46Z</time>
      </trkpt>
      <trkpt lat="45.01769" lon="3.44992">
        <ele>730.26</ele>
        <time>2022-03-27T07:48:05Z</time>
      </trkpt>
      <trkpt lat="45.01769" lon="3.44991">
        <ele>730.26</ele>
        <time>2022-03-27T07:48:07Z</time>
      </trkpt>
      <trkpt lat="45.0177" lon="3.44963">
        <ele>730.74</ele>
        <time>2022-03-27T07:48:24Z</time>
      </trkpt>
      <trkpt lat="45.01766" lon="3.44941">
        <ele>732.18</ele>
        <time>2022-03-27T07:48:38Z</time>
      </trkpt>
      <trkpt lat="45.01756" lon="3.44914">
        <ele>731.7</ele>
        <time>2022-03-27T07:48:56Z</time>
      </trkpt>
      <trkpt lat="45.0175" lon="3.44898">
        <ele>732.18</ele>
        <time>2022-03-27T07:49:07Z</time>
      </trkpt>
      <trkpt lat="45.01743" lon="3.44885">
        <ele>732.66</ele>
        <time>2022-03-27T07:49:17Z</time>
      </trkpt>
      <trkpt lat="45.0174" lon="3.4488">
        <ele>732.66</ele>
        <time>2022-03-27T07:49:21Z</time>
      </trkpt>
      <trkpt lat="45.01737" lon="3.44874">
        <ele>732.18</ele>
        <time>2022-03-27T07:49:26Z</time>
      </trkpt>
      <trkpt lat="45.01725" lon="3.44857">
        <ele>732.18</ele>
        <time>2022-03-27T07:49:39Z</time>
      </trkpt>
      <trkpt lat="45.01721" lon="3.44853">
        <ele>732.18</ele>
        <time>2022-03-27T07:49:43Z</time>
      </trkpt>
      <trkpt lat="45.01712" lon="3.44841">
        <ele>734.58</ele>
        <time>2022-03-27T07:49:54Z</time>
      </trkpt>
      <trkpt lat="45.01711" lon="3.44839">
        <ele>734.1</ele>
        <time>2022-03-27T07:49:56Z</time>
      </trkpt>
      <trkpt lat="45.01705" lon="3.44833">
        <ele>734.1</ele>
        <time>2022-03-27T07:50:03Z</time>
      </trkpt>
      <trkpt lat="45.01694" lon="3.44825">
        <ele>734.58</ele>
        <time>2022-03-27T07:50:15Z</time>
      </trkpt>
      <trkpt lat="45.01677" lon="3.44815">
        <ele>735.07</ele>
        <time>2022-03-27T07:50:32Z</time>
      </trkpt>
      <trkpt lat="45.01659" lon="3.44802">
        <ele>733.62</ele>
        <time>2022-03-27T07:50:49Z</time>
      </trkpt>
      <trkpt lat="45.01636" lon="3.44791">
        <ele>732.18</ele>
        <time>2022-03-27T07:51:09Z</time>
      </trkpt>
      <trkpt lat="45.01619" lon="3.44786">
        <ele>733.62</ele>
        <time>2022-03-27T07:51:25Z</time>
      </trkpt>
      <trkpt lat="45.01602" lon="3.44781">
        <ele>735.07</ele>
        <time>2022-03-27T07:51:42Z</time>
      </trkpt>
      <trkpt lat="45.01593" lon="3.44777">
        <ele>734.58</ele>
        <time>2022-03-27T07:51:50Z</time>
      </trkpt>
      <trkpt lat="45.01587" lon="3.44769">
        <ele>734.58</ele>
        <time>2022-03-27T07:51:57Z</time>
      </trkpt>
      <trkpt lat="45.01588" lon="3.44747">
        <ele>734.1</ele>
        <time>2022-03-27T07:52:11Z</time>
      </trkpt>
      <trkpt lat="45.01599" lon="3.44716">
        <ele>733.14</ele>
        <time>2022-03-27T07:52:29Z</time>
      </trkpt>
      <trkpt lat="45.01619" lon="3.447">
        <ele>733.62</ele>
        <time>2022-03-27T07:52:47Z</time>
      </trkpt>
      <trkpt lat="45.0164" lon="3.44685">
        <ele>735.07</ele>
        <time>2022-03-27T07:53:06Z</time>
      </trkpt>
      <trkpt lat="45.01654" lon="3.44669">
        <ele>736.51</ele>
        <time>2022-03-27T07:53:21Z</time>
      </trkpt>
      <trkpt lat="45.01672" lon="3.44645">
        <ele>737.95</ele>
        <time>2022-03-27T07:53:41Z</time>
      </trkpt>
      <trkpt lat="45.01685" lon="3.4462">
        <ele>739.39</ele>
        <time>2022-03-27T07:53:58Z</time>
      </trkpt>
      <trkpt lat="45.017" lon="3.44599">
        <ele>738.91</ele>
        <time>2022-03-27T07:54:16Z</time>
      </trkpt>
      <trkpt lat="45.01708" lon="3.44591">
        <ele>739.39</ele>
        <time>2022-03-27T07:54:24Z</time>
      </trkpt>
      <trkpt lat="45.0172" lon="3.44564">
        <ele>741.31</ele>
        <time>2022-03-27T07:54:43Z</time>
      </trkpt>
      <trkpt lat="45.01723" lon="3.44554">
        <ele>741.31</ele>
        <time>2022-03-27T07:54:50Z</time>
      </trkpt>
      <trkpt lat="45.01723" lon="3.44547">
        <ele>741.31</ele>
        <time>2022-03-27T07:54:54Z</time>
      </trkpt>
      <trkpt lat="45.01726" lon="3.44516">
        <ele>740.35</ele>
        <time>2022-03-27T07:55:12Z</time>
      </trkpt>
      <trkpt lat="45.01733" lon="3.44477">
        <ele>737.95</ele>
        <time>2022-03-27T07:55:34Z</time>
      </trkpt>
      <trkpt lat="45.01734" lon="3.44474">
        <ele>737.47</ele>
        <time>2022-03-27T07:55:36Z</time>
      </trkpt>
      <trkpt lat="45.01748" lon="3.44446">
        <ele>736.51</ele>
        <time>2022-03-27T07:55:55Z</time>
      </trkpt>
      <trkpt lat="45.01755" lon="3.4441">
        <ele>736.99</ele>
        <time>2022-03-27T07:56:16Z</time>
      </trkpt>
      <trkpt lat="45.01758" lon="3.44368">
        <ele>736.51</ele>
        <time>2022-03-27T07:56:39Z</time>
      </trkpt>
      <trkpt lat="45.0175" lon="3.44341">
        <ele>735.55</ele>
        <time>2022-03-27T07:56:57Z</time>
      </trkpt>
      <trkpt lat="45.01742" lon="3.44314">
        <ele>736.99</ele>
        <time>2022-03-27T07:57:15Z</time>
      </trkpt>
      <trkpt lat="45.01738" lon="3.44296">
        <ele>737.95</ele>
        <time>2022-03-27T07:57:27Z</time>
      </trkpt>
      <trkpt lat="45.01737" lon="3.44289">
        <ele>737.47</ele>
        <time>2022-03-27T07:57:33Z</time>
      </trkpt>
      <trkpt lat="45.01731" lon="3.4426">
        <ele>737.47</ele>
        <time>2022-03-27T07:57:52Z</time>
      </trkpt>
      <trkpt lat="45.01725" lon="3.44226">
        <ele>736.99</ele>
        <time>2022-03-27T07:58:12Z</time>
      </trkpt>
      <trkpt lat="45.01722" lon="3.44193">
        <ele>737.95</ele>
        <time>2022-03-27T07:58:31Z</time>
      </trkpt>
      <trkpt lat="45.01721" lon="3.44165">
        <ele>738.91</ele>
        <time>2022-03-27T07:58:48Z</time>
      </trkpt>
      <trkpt lat="45.01721" lon="3.44164">
        <ele>738.91</ele>
        <time>2022-03-27T07:58:49Z</time>
      </trkpt>
      <trkpt lat="45.0172" lon="3.44153">
        <ele>740.35</ele>
        <time>2022-03-27T07:58:56Z</time>
      </trkpt>
      <trkpt lat="45.01721" lon="3.44144">
        <ele>741.31</ele>
        <time>2022-03-27T07:59:02Z</time>
      </trkpt>
      <trkpt lat="45.01721" lon="3.44137">
        <ele>741.79</ele>
        <time>2022-03-27T07:59:07Z</time>
      </trkpt>
      <trkpt lat="45.01721" lon="3.44129">
        <ele>741.31</ele>
        <time>2022-03-27T07:59:21Z</time>
      </trkpt>
      <trkpt lat="45.01721" lon="3.44126">
        <ele>741.31</ele>
        <time>2022-03-27T07:59:25Z</time>
      </trkpt>
      <trkpt lat="45.01712" lon="3.44106">
        <ele>739.39</ele>
        <time>2022-03-27T07:59:42Z</time>
      </trkpt>
      <trkpt lat="45.01692" lon="3.44082">
        <ele>738.43</ele>
        <time>2022-03-27T08:00:03Z</time>
      </trkpt>
      <trkpt lat="45.01691" lon="3.4408">
        <ele>738.43</ele>
        <time>2022-03-27T08:00:05Z</time>
      </trkpt>
      <trkpt lat="45.01689" lon="3.44057">
        <ele>741.31</ele>
        <time>2022-03-27T08:00:19Z</time>
      </trkpt>
      <trkpt lat="45.0169" lon="3.44054">
        <ele>742.28</ele>
        <time>2022-03-27T08:00:21Z</time>
      </trkpt>
      <trkpt lat="45.01693" lon="3.44043">
        <ele>745.16</ele>
        <time>2022-03-27T08:00:28Z</time>
      </trkpt>
      <trkpt lat="45.01701" lon="3.44014">
        <ele>749.49</ele>
        <time>2022-03-27T08:00:45Z</time>
      </trkpt>
      <trkpt lat="45.01706" lon="3.43992">
        <ele>747.56</ele>
        <time>2022-03-27T08:00:56Z</time>
      </trkpt>
      <trkpt lat="45.0171" lon="3.43975">
        <ele>744.2</ele>
        <time>2022-03-27T08:01:08Z</time>
      </trkpt>
      <trkpt lat="45.01711" lon="3.43948">
        <ele>746.6</ele>
        <time>2022-03-27T08:01:23Z</time>
      </trkpt>
      <trkpt lat="45.01709" lon="3.43925">
        <ele>749.97</ele>
        <time>2022-03-27T08:01:37Z</time>
      </trkpt>
      <trkpt lat="45.01709" lon="3.43898">
        <ele>753.81</ele>
        <time>2022-03-27T08:01:53Z</time>
      </trkpt>
      <trkpt lat="45.01713" lon="3.43875">
        <ele>756.69</ele>
        <time>2022-03-27T08:02:07Z</time>
      </trkpt>
      <trkpt lat="45.01717" lon="3.43849">
        <ele>756.21</ele>
        <time>2022-03-27T08:02:22Z</time>
      </trkpt>
      <trkpt lat="45.01718" lon="3.43846">
        <ele>755.73</ele>
        <time>2022-03-27T08:02:24Z</time>
      </trkpt>
      <trkpt lat="45.01723" lon="3.43817">
        <ele>756.21</ele>
        <time>2022-03-27T08:02:41Z</time>
      </trkpt>
      <trkpt lat="45.01727" lon="3.43793">
        <ele>755.25</ele>
        <time>2022-03-27T08:02:54Z</time>
      </trkpt>
      <trkpt lat="45.01729" lon="3.43769">
        <ele>756.69</ele>
        <time>2022-03-27T08:03:09Z</time>
      </trkpt>
      <trkpt lat="45.01732" lon="3.43743">
        <ele>758.14</ele>
        <time>2022-03-27T08:03:24Z</time>
      </trkpt>
      <trkpt lat="45.01732" lon="3.43707">
        <ele>759.58</ele>
        <time>2022-03-27T08:03:44Z</time>
      </trkpt>
      <trkpt lat="45.01733" lon="3.4369">
        <ele>758.62</ele>
        <time>2022-03-27T08:03:54Z</time>
      </trkpt>
      <trkpt lat="45.01738" lon="3.43664">
        <ele>763.42</ele>
        <time>2022-03-27T08:04:11Z</time>
      </trkpt>
      <trkpt lat="45.01748" lon="3.43638">
        <ele>764.87</ele>
        <time>2022-03-27T08:04:28Z</time>
      </trkpt>
      <trkpt lat="45.01752" lon="3.43613">
        <ele>761.5</ele>
        <time>2022-03-27T08:04:45Z</time>
      </trkpt>
      <trkpt lat="45.01752" lon="3.43609">
        <ele>761.02</ele>
        <time>2022-03-27T08:04:49Z</time>
      </trkpt>
      <trkpt lat="45.01752" lon="3.43591">
        <ele>760.06</ele>
        <time>2022-03-27T08:05:01Z</time>
      </trkpt>
      <trkpt lat="45.01753" lon="3.43578">
        <ele>759.58</ele>
        <time>2022-03-27T08:05:08Z</time>
      </trkpt>
      <trkpt lat="45.01755" lon="3.43556">
        <ele>757.66</ele>
        <time>2022-03-27T08:05:22Z</time>
      </trkpt>
      <trkpt lat="45.01755" lon="3.43552">
        <ele>759.1</ele>
        <time>2022-03-27T08:05:25Z</time>
      </trkpt>
      <trkpt lat="45.01753" lon="3.43542">
        <ele>760.54</ele>
        <time>2022-03-27T08:05:37Z</time>
      </trkpt>
      <trkpt lat="45.01752" lon="3.43518">
        <ele>759.58</ele>
        <time>2022-03-27T08:05:50Z</time>
      </trkpt>
      <trkpt lat="45.01753" lon="3.43515">
        <ele>759.58</ele>
        <time>2022-03-27T08:05:52Z</time>
      </trkpt>
      <trkpt lat="45.01753" lon="3.43505">
        <ele>758.14</ele>
        <time>2022-03-27T08:05:57Z</time>
      </trkpt>
      <trkpt lat="45.01754" lon="3.43487">
        <ele>755.25</ele>
        <time>2022-03-27T08:06:06Z</time>
      </trkpt>
      <trkpt lat="45.0176" lon="3.4346">
        <ele>755.73</ele>
        <time>2022-03-27T08:06:19Z</time>
      </trkpt>
      <trkpt lat="45.01759" lon="3.43422">
        <ele>755.73</ele>
        <time>2022-03-27T08:06:37Z</time>
      </trkpt>
      <trkpt lat="45.01757" lon="3.43409">
        <ele>755.73</ele>
        <time>2022-03-27T08:06:44Z</time>
      </trkpt>
      <trkpt lat="45.01752" lon="3.43383">
        <ele>756.69</ele>
        <time>2022-03-27T08:06:59Z</time>
      </trkpt>
      <trkpt lat="45.01752" lon="3.43382">
        <ele>756.69</ele>
        <time>2022-03-27T08:07:00Z</time>
      </trkpt>
      <trkpt lat="45.01747" lon="3.43347">
        <ele>756.69</ele>
        <time>2022-03-27T08:07:20Z</time>
      </trkpt>
      <trkpt lat="45.01738" lon="3.43311">
        <ele>756.69</ele>
        <time>2022-03-27T08:07:39Z</time>
      </trkpt>
      <trkpt lat="45.01734" lon="3.43278">
        <ele>756.69</ele>
        <time>2022-03-27T08:07:58Z</time>
      </trkpt>
      <trkpt lat="45.01735" lon="3.43246">
        <ele>758.14</ele>
        <time>2022-03-27T08:08:15Z</time>
      </trkpt>
      <trkpt lat="45.01741" lon="3.43217">
        <ele>758.14</ele>
        <time>2022-03-27T08:08:31Z</time>
      </trkpt>
      <trkpt lat="45.01745" lon="3.4319">
        <ele>758.14</ele>
        <time>2022-03-27T08:08:46Z</time>
      </trkpt>
      <trkpt lat="45.01746" lon="3.43166">
        <ele>760.54</ele>
        <time>2022-03-27T08:09:01Z</time>
      </trkpt>
      <trkpt lat="45.01752" lon="3.43135">
        <ele>761.02</ele>
        <time>2022-03-27T08:09:19Z</time>
      </trkpt>
      <trkpt lat="45.01758" lon="3.43112">
        <ele>762.46</ele>
        <time>2022-03-27T08:09:33Z</time>
      </trkpt>
      <trkpt lat="45.01768" lon="3.43087">
        <ele>763.9</ele>
        <time>2022-03-27T08:09:50Z</time>
      </trkpt>
      <trkpt lat="45.01772" lon="3.43083">
        <ele>763.42</ele>
        <time>2022-03-27T08:09:55Z</time>
      </trkpt>
      <trkpt lat="45.01794" lon="3.43078">
        <ele>761.02</ele>
        <time>2022-03-27T08:10:14Z</time>
      </trkpt>
      <trkpt lat="45.01799" lon="3.43078">
        <ele>761.02</ele>
        <time>2022-03-27T08:10:18Z</time>
      </trkpt>
      <trkpt lat="45.01804" lon="3.43076">
        <ele>761.02</ele>
        <time>2022-03-27T08:10:23Z</time>
      </trkpt>
      <trkpt lat="45.01813" lon="3.4307">
        <ele>761.02</ele>
        <time>2022-03-27T08:10:32Z</time>
      </trkpt>
      <trkpt lat="45.0183" lon="3.43057">
        <ele>760.54</ele>
        <time>2022-03-27T08:10:49Z</time>
      </trkpt>
      <trkpt lat="45.01845" lon="3.43043">
        <ele>761.02</ele>
        <time>2022-03-27T08:11:05Z</time>
      </trkpt>
      <trkpt lat="45.01857" lon="3.43031">
        <ele>762.94</ele>
        <time>2022-03-27T08:11:18Z</time>
      </trkpt>
      <trkpt lat="45.01863" lon="3.43023">
        <ele>763.42</ele>
        <time>2022-03-27T08:11:25Z</time>
      </trkpt>
      <trkpt lat="45.01877" lon="3.43008">
        <ele>761.02</ele>
        <time>2022-03-27T08:11:41Z</time>
      </trkpt>
      <trkpt lat="45.01887" lon="3.42991">
        <ele>764.87</ele>
        <time>2022-03-27T08:11:54Z</time>
      </trkpt>
      <trkpt lat="45.01893" lon="3.42974">
        <ele>772.08</ele>
        <time>2022-03-27T08:12:06Z</time>
      </trkpt>
      <trkpt lat="45.019" lon="3.42956">
        <ele>774.48</ele>
        <time>2022-03-27T08:12:19Z</time>
      </trkpt>
      <trkpt lat="45.01906" lon="3.42941">
        <ele>780.25</ele>
        <time>2022-03-27T08:12:32Z</time>
      </trkpt>
      <trkpt lat="45.0191" lon="3.42925">
        <ele>786.5</ele>
        <time>2022-03-27T08:12:45Z</time>
      </trkpt>
      <trkpt lat="45.01915" lon="3.42909">
        <ele>789.38</ele>
        <time>2022-03-27T08:12:58Z</time>
      </trkpt>
      <trkpt lat="45.01922" lon="3.42888">
        <ele>793.22</ele>
        <time>2022-03-27T08:13:13Z</time>
      </trkpt>
      <trkpt lat="45.01926" lon="3.4288">
        <ele>793.71</ele>
        <time>2022-03-27T08:13:19Z</time>
      </trkpt>
      <trkpt lat="45.01935" lon="3.42853">
        <ele>790.34</ele>
        <time>2022-03-27T08:13:34Z</time>
      </trkpt>
      <trkpt lat="45.01938" lon="3.42842">
        <ele>786.5</ele>
        <time>2022-03-27T08:13:40Z</time>
      </trkpt>
      <trkpt lat="45.0194" lon="3.42826">
        <ele>783.13</ele>
        <time>2022-03-27T08:13:53Z</time>
      </trkpt>
      <trkpt lat="45.0194" lon="3.4282">
        <ele>781.69</ele>
        <time>2022-03-27T08:14:08Z</time>
      </trkpt>
      <trkpt lat="45.01944" lon="3.42801">
        <ele>779.77</ele>
        <time>2022-03-27T08:14:20Z</time>
      </trkpt>
      <trkpt lat="45.01944" lon="3.42798">
        <ele>779.77</ele>
        <time>2022-03-27T08:14:22Z</time>
      </trkpt>
      <trkpt lat="45.01947" lon="3.42772">
        <ele>776.4</ele>
        <time>2022-03-27T08:14:39Z</time>
      </trkpt>
      <trkpt lat="45.01947" lon="3.42764">
        <ele>774.96</ele>
        <time>2022-03-27T08:14:43Z</time>
      </trkpt>
      <trkpt lat="45.01946" lon="3.42749">
        <ele>774.48</ele>
        <time>2022-03-27T08:14:52Z</time>
      </trkpt>
      <trkpt lat="45.01936" lon="3.42727">
        <ele>777.36</ele>
        <time>2022-03-27T08:15:07Z</time>
      </trkpt>
      <trkpt lat="45.01923" lon="3.42708">
        <ele>779.29</ele>
        <time>2022-03-27T08:15:23Z</time>
      </trkpt>
      <trkpt lat="45.01912" lon="3.42694">
        <ele>779.29</ele>
        <time>2022-03-27T08:15:36Z</time>
      </trkpt>
      <trkpt lat="45.01909" lon="3.42688">
        <ele>778.81</ele>
        <time>2022-03-27T08:15:41Z</time>
      </trkpt>
      <trkpt lat="45.01899" lon="3.42675">
        <ele>777.36</ele>
        <time>2022-03-27T08:15:52Z</time>
      </trkpt>
      <trkpt lat="45.01889" lon="3.42663">
        <ele>776.4</ele>
        <time>2022-03-27T08:16:03Z</time>
      </trkpt>
      <trkpt lat="45.01871" lon="3.42646">
        <ele>775.44</ele>
        <time>2022-03-27T08:16:20Z</time>
      </trkpt>
      <trkpt lat="45.01857" lon="3.42634">
        <ele>774</ele>
        <time>2022-03-27T08:16:33Z</time>
      </trkpt>
      <trkpt lat="45.01849" lon="3.42627">
        <ele>773.52</ele>
        <time>2022-03-27T08:16:40Z</time>
      </trkpt>
      <trkpt lat="45.01832" lon="3.42603">
        <ele>772.08</ele>
        <time>2022-03-27T08:16:58Z</time>
      </trkpt>
      <trkpt lat="45.01828" lon="3.42594">
        <ele>772.08</ele>
        <time>2022-03-27T08:17:04Z</time>
      </trkpt>
      <trkpt lat="45.01816" lon="3.42575">
        <ele>771.11</ele>
        <time>2022-03-27T08:17:18Z</time>
      </trkpt>
      <trkpt lat="45.0181" lon="3.42568">
        <ele>772.08</ele>
        <time>2022-03-27T08:17:24Z</time>
      </trkpt>
      <trkpt lat="45.01807" lon="3.42562">
        <ele>772.56</ele>
        <time>2022-03-27T08:17:28Z</time>
      </trkpt>
      <trkpt lat="45.01803" lon="3.42557">
        <ele>773.04</ele>
        <time>2022-03-27T08:17:33Z</time>
      </trkpt>
      <trkpt lat="45.01788" lon="3.42533">
        <ele>774.48</ele>
        <time>2022-03-27T08:17:51Z</time>
      </trkpt>
      <trkpt lat="45.01772" lon="3.42507">
        <ele>774</ele>
        <time>2022-03-27T08:18:10Z</time>
      </trkpt>
      <trkpt lat="45.01758" lon="3.42481">
        <ele>774.96</ele>
        <time>2022-03-27T08:18:29Z</time>
      </trkpt>
      <trkpt lat="45.01757" lon="3.4248">
        <ele>774.96</ele>
        <time>2022-03-27T08:18:30Z</time>
      </trkpt>
      <trkpt lat="45.01751" lon="3.42461">
        <ele>773.04</ele>
        <time>2022-03-27T08:18:42Z</time>
      </trkpt>
      <trkpt lat="45.01749" lon="3.42437">
        <ele>775.92</ele>
        <time>2022-03-27T08:18:56Z</time>
      </trkpt>
      <trkpt lat="45.01754" lon="3.42414">
        <ele>784.57</ele>
        <time>2022-03-27T08:19:11Z</time>
      </trkpt>
      <trkpt lat="45.01759" lon="3.42394">
        <ele>788.9</ele>
        <time>2022-03-27T08:19:25Z</time>
      </trkpt>
      <trkpt lat="45.01762" lon="3.42378">
        <ele>792.74</ele>
        <time>2022-03-27T08:19:37Z</time>
      </trkpt>
      <trkpt lat="45.01761" lon="3.42355">
        <ele>800.92</ele>
        <time>2022-03-27T08:19:50Z</time>
      </trkpt>
      <trkpt lat="45.01763" lon="3.42346">
        <ele>804.28</ele>
        <time>2022-03-27T08:19:56Z</time>
      </trkpt>
      <trkpt lat="45.01763" lon="3.42337">
        <ele>809.09</ele>
        <time>2022-03-27T08:20:02Z</time>
      </trkpt>
      <trkpt lat="45.01763" lon="3.42313">
        <ele>817.26</ele>
        <time>2022-03-27T08:20:16Z</time>
      </trkpt>
      <trkpt lat="45.01764" lon="3.42308">
        <ele>817.74</ele>
        <time>2022-03-27T08:20:19Z</time>
      </trkpt>
      <trkpt lat="45.01764" lon="3.42305">
        <ele>818.22</ele>
        <time>2022-03-27T08:20:21Z</time>
      </trkpt>
      <trkpt lat="45.01763" lon="3.42278">
        <ele>819.18</ele>
        <time>2022-03-27T08:20:38Z</time>
      </trkpt>
      <trkpt lat="45.01765" lon="3.4225">
        <ele>812.45</ele>
        <time>2022-03-27T08:20:51Z</time>
      </trkpt>
      <trkpt lat="45.0177" lon="3.42227">
        <ele>806.2</ele>
        <time>2022-03-27T08:21:03Z</time>
      </trkpt>
      <trkpt lat="45.01775" lon="3.42205">
        <ele>808.13</ele>
        <time>2022-03-27T08:21:18Z</time>
      </trkpt>
      <trkpt lat="45.01779" lon="3.42186">
        <ele>811.97</ele>
        <time>2022-03-27T08:21:32Z</time>
      </trkpt>
      <trkpt lat="45.01781" lon="3.42157">
        <ele>811.49</ele>
        <time>2022-03-27T08:21:48Z</time>
      </trkpt>
      <trkpt lat="45.01783" lon="3.42125">
        <ele>805.72</ele>
        <time>2022-03-27T08:22:04Z</time>
      </trkpt>
      <trkpt lat="45.01783" lon="3.42123">
        <ele>805.72</ele>
        <time>2022-03-27T08:22:05Z</time>
      </trkpt>
      <trkpt lat="45.01782" lon="3.42094">
        <ele>804.76</ele>
        <time>2022-03-27T08:22:21Z</time>
      </trkpt>
      <trkpt lat="45.01787" lon="3.42072">
        <ele>805.72</ele>
        <time>2022-03-27T08:22:37Z</time>
      </trkpt>
      <trkpt lat="45.0179" lon="3.42064">
        <ele>805.24</ele>
        <time>2022-03-27T08:22:43Z</time>
      </trkpt>
      <trkpt lat="45.01793" lon="3.42057">
        <ele>798.99</ele>
        <time>2022-03-27T08:22:55Z</time>
      </trkpt>
      <trkpt lat="45.01798" lon="3.42046">
        <ele>800.92</ele>
        <time>2022-03-27T08:23:07Z</time>
      </trkpt>
      <trkpt lat="45.01805" lon="3.42037">
        <ele>805.24</ele>
        <time>2022-03-27T08:23:22Z</time>
      </trkpt>
      <trkpt lat="45.01813" lon="3.42035">
        <ele>808.13</ele>
        <time>2022-03-27T08:23:36Z</time>
      </trkpt>
      <trkpt lat="45.0182" lon="3.42036">
        <ele>808.13</ele>
        <time>2022-03-27T08:23:43Z</time>
      </trkpt>
      <trkpt lat="45.0183" lon="3.42045">
        <ele>811.49</ele>
        <time>2022-03-27T08:23:59Z</time>
      </trkpt>
      <trkpt lat="45.01832" lon="3.42059">
        <ele>813.41</ele>
        <time>2022-03-27T08:24:12Z</time>
      </trkpt>
      <trkpt lat="45.01836" lon="3.42069">
        <ele>815.34</ele>
        <time>2022-03-27T08:24:26Z</time>
      </trkpt>
      <trkpt lat="45.01837" lon="3.42068">
        <ele>816.3</ele>
        <time>2022-03-27T08:24:37Z</time>
      </trkpt>
      <trkpt lat="45.01844" lon="3.42063">
        <ele>819.18</ele>
        <time>2022-03-27T08:24:50Z</time>
      </trkpt>
      <trkpt lat="45.01844" lon="3.42063">
        <ele>819.66</ele>
        <time>2022-03-27T08:25:01Z</time>
      </trkpt>
      <trkpt lat="45.01843" lon="3.42062">
        <ele>820.14</ele>
        <time>2022-03-27T08:25:12Z</time>
      </trkpt>
      <trkpt lat="45.01844" lon="3.4206">
        <ele>820.14</ele>
        <time>2022-03-27T08:25:33Z</time>
      </trkpt>
      <trkpt lat="45.01844" lon="3.4206">
        <ele>820.14</ele>
        <time>2022-03-27T08:25:37Z</time>
      </trkpt>
      <trkpt lat="45.01844" lon="3.42059">
        <ele>821.1</ele>
        <time>2022-03-27T08:25:42Z</time>
      </trkpt>
      <trkpt lat="45.01842" lon="3.42061">
        <ele>823.51</ele>
        <time>2022-03-27T08:25:48Z</time>
      </trkpt>
      <trkpt lat="45.01835" lon="3.4207">
        <ele>825.91</ele>
        <time>2022-03-27T08:26:01Z</time>
      </trkpt>
      <trkpt lat="45.01835" lon="3.4207">
        <ele>826.39</ele>
        <time>2022-03-27T08:26:13Z</time>
      </trkpt>
      <trkpt lat="45.01832" lon="3.42072">
        <ele>824.95</ele>
        <time>2022-03-27T08:26:23Z</time>
      </trkpt>
      <trkpt lat="45.0183" lon="3.42077">
        <ele>823.99</ele>
        <time>2022-03-27T08:26:35Z</time>
      </trkpt>
      <trkpt lat="45.01826" lon="3.42082">
        <ele>824.95</ele>
        <time>2022-03-27T08:26:44Z</time>
      </trkpt>
      <trkpt lat="45.01822" lon="3.42096">
        <ele>819.66</ele>
        <time>2022-03-27T08:26:55Z</time>
      </trkpt>
      <trkpt lat="45.01822" lon="3.42113">
        <ele>811.01</ele>
        <time>2022-03-27T08:27:09Z</time>
      </trkpt>
      <trkpt lat="45.01821" lon="3.42132">
        <ele>805.72</ele>
        <time>2022-03-27T08:27:23Z</time>
      </trkpt>
      <trkpt lat="45.01819" lon="3.42151">
        <ele>804.28</ele>
        <time>2022-03-27T08:27:36Z</time>
      </trkpt>
      <trkpt lat="45.01817" lon="3.42171">
        <ele>803.8</ele>
        <time>2022-03-27T08:27:49Z</time>
      </trkpt>
      <trkpt lat="45.01814" lon="3.42195">
        <ele>803.32</ele>
        <time>2022-03-27T08:28:03Z</time>
      </trkpt>
      <trkpt lat="45.01812" lon="3.42204">
        <ele>803.32</ele>
        <time>2022-03-27T08:28:15Z</time>
      </trkpt>
      <trkpt lat="45.01811" lon="3.42206">
        <ele>802.36</ele>
        <time>2022-03-27T08:28:26Z</time>
      </trkpt>
      <trkpt lat="45.01812" lon="3.42207">
        <ele>803.8</ele>
        <time>2022-03-27T08:28:40Z</time>
      </trkpt>
      <trkpt lat="45.01812" lon="3.42208">
        <ele>804.28</ele>
        <time>2022-03-27T08:28:54Z</time>
      </trkpt>
      <trkpt lat="45.01812" lon="3.42209">
        <ele>804.28</ele>
        <time>2022-03-27T08:29:11Z</time>
      </trkpt>
      <trkpt lat="45.01812" lon="3.42208">
        <ele>802.36</ele>
        <time>2022-03-27T08:29:37Z</time>
      </trkpt>
      <trkpt lat="45.01812" lon="3.4221">
        <ele>802.36</ele>
        <time>2022-03-27T08:30:08Z</time>
      </trkpt>
      <trkpt lat="45.01811" lon="3.42211">
        <ele>802.36</ele>
        <time>2022-03-27T08:30:19Z</time>
      </trkpt>
      <trkpt lat="45.01811" lon="3.4222">
        <ele>802.36</ele>
        <time>2022-03-27T08:30:34Z</time>
      </trkpt>
      <trkpt lat="45.0181" lon="3.42228">
        <ele>802.84</ele>
        <time>2022-03-27T08:30:39Z</time>
      </trkpt>
      <trkpt lat="45.01812" lon="3.42252">
        <ele>803.8</ele>
        <time>2022-03-27T08:30:55Z</time>
      </trkpt>
      <trkpt lat="45.01813" lon="3.42258">
        <ele>803.8</ele>
        <time>2022-03-27T08:30:59Z</time>
      </trkpt>
      <trkpt lat="45.01814" lon="3.42278">
        <ele>803.8</ele>
        <time>2022-03-27T08:31:12Z</time>
      </trkpt>
      <trkpt lat="45.01816" lon="3.42298">
        <ele>803.32</ele>
        <time>2022-03-27T08:31:25Z</time>
      </trkpt>
      <trkpt lat="45.01816" lon="3.42302">
        <ele>802.84</ele>
        <time>2022-03-27T08:31:28Z</time>
      </trkpt>
      <trkpt lat="45.01816" lon="3.42311">
        <ele>803.32</ele>
        <time>2022-03-27T08:31:34Z</time>
      </trkpt>
      <trkpt lat="45.01817" lon="3.4233">
        <ele>805.72</ele>
        <time>2022-03-27T08:31:47Z</time>
      </trkpt>
      <trkpt lat="45.01822" lon="3.42329">
        <ele>808.61</ele>
        <time>2022-03-27T08:32:01Z</time>
      </trkpt>
      <trkpt lat="45.01822" lon="3.42326">
        <ele>809.57</ele>
        <time>2022-03-27T08:32:04Z</time>
      </trkpt>
      <trkpt lat="45.01824" lon="3.42308">
        <ele>812.93</ele>
        <time>2022-03-27T08:32:19Z</time>
      </trkpt>
      <trkpt lat="45.01825" lon="3.42289">
        <ele>816.78</ele>
        <time>2022-03-27T08:32:33Z</time>
      </trkpt>
      <trkpt lat="45.01824" lon="3.42267">
        <ele>821.58</ele>
        <time>2022-03-27T08:32:49Z</time>
      </trkpt>
      <trkpt lat="45.01824" lon="3.42249">
        <ele>824.95</ele>
        <time>2022-03-27T08:33:02Z</time>
      </trkpt>
      <trkpt lat="45.01828" lon="3.42227">
        <ele>823.99</ele>
        <time>2022-03-27T08:33:16Z</time>
      </trkpt>
      <trkpt lat="45.01832" lon="3.42207">
        <ele>824.95</ele>
        <time>2022-03-27T08:33:31Z</time>
      </trkpt>
      <trkpt lat="45.01837" lon="3.4219">
        <ele>825.43</ele>
        <time>2022-03-27T08:33:44Z</time>
      </trkpt>
      <trkpt lat="45.01844" lon="3.42168">
        <ele>826.39</ele>
        <time>2022-03-27T08:34:00Z</time>
      </trkpt>
      <trkpt lat="45.01852" lon="3.42152">
        <ele>828.79</ele>
        <time>2022-03-27T08:34:15Z</time>
      </trkpt>
      <trkpt lat="45.0186" lon="3.42135">
        <ele>832.16</ele>
        <time>2022-03-27T08:34:30Z</time>
      </trkpt>
      <trkpt lat="45.01872" lon="3.42119">
        <ele>834.56</ele>
        <time>2022-03-27T08:34:45Z</time>
      </trkpt>
      <trkpt lat="45.01881" lon="3.42109">
        <ele>834.56</ele>
        <time>2022-03-27T08:34:56Z</time>
      </trkpt>
      <trkpt lat="45.01885" lon="3.42107">
        <ele>834.56</ele>
        <time>2022-03-27T08:35:00Z</time>
      </trkpt>
      <trkpt lat="45.01898" lon="3.42103">
        <ele>836.96</ele>
        <time>2022-03-27T08:35:14Z</time>
      </trkpt>
      <trkpt lat="45.01901" lon="3.42102">
        <ele>837.45</ele>
        <time>2022-03-27T08:35:17Z</time>
      </trkpt>
      <trkpt lat="45.01905" lon="3.42104">
        <ele>837.93</ele>
        <time>2022-03-27T08:35:21Z</time>
      </trkpt>
      <trkpt lat="45.01906" lon="3.42107">
        <ele>837.93</ele>
        <time>2022-03-27T08:35:23Z</time>
      </trkpt>
      <trkpt lat="45.01905" lon="3.42109">
        <ele>837.45</ele>
        <time>2022-03-27T08:35:25Z</time>
      </trkpt>
      <trkpt lat="45.01894" lon="3.42114">
        <ele>837.93</ele>
        <time>2022-03-27T08:35:38Z</time>
      </trkpt>
      <trkpt lat="45.01889" lon="3.42118">
        <ele>840.33</ele>
        <time>2022-03-27T08:35:45Z</time>
      </trkpt>
      <trkpt lat="45.01881" lon="3.42136">
        <ele>841.77</ele>
        <time>2022-03-27T08:36:00Z</time>
      </trkpt>
      <trkpt lat="45.01876" lon="3.42156">
        <ele>843.21</ele>
        <time>2022-03-27T08:36:16Z</time>
      </trkpt>
      <trkpt lat="45.01875" lon="3.42159">
        <ele>843.21</ele>
        <time>2022-03-27T08:36:18Z</time>
      </trkpt>
      <trkpt lat="45.01874" lon="3.42166">
        <ele>843.69</ele>
        <time>2022-03-27T08:36:23Z</time>
      </trkpt>
      <trkpt lat="45.01871" lon="3.42177">
        <ele>844.66</ele>
        <time>2022-03-27T08:36:31Z</time>
      </trkpt>
      <trkpt lat="45.01869" lon="3.42184">
        <ele>845.62</ele>
        <time>2022-03-27T08:36:36Z</time>
      </trkpt>
      <trkpt lat="45.01864" lon="3.42205">
        <ele>847.06</ele>
        <time>2022-03-27T08:36:50Z</time>
      </trkpt>
      <trkpt lat="45.01861" lon="3.42223">
        <ele>847.54</ele>
        <time>2022-03-27T08:37:06Z</time>
      </trkpt>
      <trkpt lat="45.01863" lon="3.42223">
        <ele>847.54</ele>
        <time>2022-03-27T08:37:08Z</time>
      </trkpt>
      <trkpt lat="45.01866" lon="3.42222">
        <ele>847.06</ele>
        <time>2022-03-27T08:37:12Z</time>
      </trkpt>
      <trkpt lat="45.01869" lon="3.42207">
        <ele>849.94</ele>
        <time>2022-03-27T08:37:26Z</time>
      </trkpt>
      <trkpt lat="45.0187" lon="3.42205">
        <ele>850.42</ele>
        <time>2022-03-27T08:37:27Z</time>
      </trkpt>
      <trkpt lat="45.01873" lon="3.42191">
        <ele>852.35</ele>
        <time>2022-03-27T08:37:38Z</time>
      </trkpt>
      <trkpt lat="45.01875" lon="3.42189">
        <ele>852.35</ele>
        <time>2022-03-27T08:37:40Z</time>
      </trkpt>
      <trkpt lat="45.01882" lon="3.4217">
        <ele>854.75</ele>
        <time>2022-03-27T08:37:55Z</time>
      </trkpt>
      <trkpt lat="45.01888" lon="3.42159">
        <ele>855.71</ele>
        <time>2022-03-27T08:38:06Z</time>
      </trkpt>
      <trkpt lat="45.01894" lon="3.42151">
        <ele>855.71</ele>
        <time>2022-03-27T08:38:14Z</time>
      </trkpt>
      <trkpt lat="45.019" lon="3.42146">
        <ele>855.71</ele>
        <time>2022-03-27T08:38:21Z</time>
      </trkpt>
      <trkpt lat="45.01902" lon="3.42144">
        <ele>856.19</ele>
        <time>2022-03-27T08:38:23Z</time>
      </trkpt>
      <trkpt lat="45.01905" lon="3.42142">
        <ele>856.19</ele>
        <time>2022-03-27T08:38:26Z</time>
      </trkpt>
      <trkpt lat="45.01915" lon="3.42139">
        <ele>856.19</ele>
        <time>2022-03-27T08:38:37Z</time>
      </trkpt>
      <trkpt lat="45.0193" lon="3.42139">
        <ele>856.67</ele>
        <time>2022-03-27T08:38:51Z</time>
      </trkpt>
      <trkpt lat="45.01942" lon="3.42139">
        <ele>857.63</ele>
        <time>2022-03-27T08:39:04Z</time>
      </trkpt>
      <trkpt lat="45.01947" lon="3.42138">
        <ele>858.59</ele>
        <time>2022-03-27T08:39:09Z</time>
      </trkpt>
      <trkpt lat="45.0196" lon="3.42136">
        <ele>860.52</ele>
        <time>2022-03-27T08:39:23Z</time>
      </trkpt>
      <trkpt lat="45.01974" lon="3.42132">
        <ele>864.84</ele>
        <time>2022-03-27T08:39:39Z</time>
      </trkpt>
      <trkpt lat="45.01982" lon="3.42129">
        <ele>868.21</ele>
        <time>2022-03-27T08:39:52Z</time>
      </trkpt>
      <trkpt lat="45.01989" lon="3.42126">
        <ele>870.13</ele>
        <time>2022-03-27T08:40:05Z</time>
      </trkpt>
      <trkpt lat="45.01993" lon="3.42126">
        <ele>871.57</ele>
        <time>2022-03-27T08:40:17Z</time>
      </trkpt>
      <trkpt lat="45.01995" lon="3.42124">
        <ele>872.53</ele>
        <time>2022-03-27T08:40:29Z</time>
      </trkpt>
      <trkpt lat="45.01999" lon="3.42125">
        <ele>871.57</ele>
        <time>2022-03-27T08:40:53Z</time>
      </trkpt>
      <trkpt lat="45.01998" lon="3.42125">
        <ele>870.61</ele>
        <time>2022-03-27T08:41:17Z</time>
      </trkpt>
      <trkpt lat="45.01998" lon="3.42127">
        <ele>870.13</ele>
        <time>2022-03-27T08:41:30Z</time>
      </trkpt>
      <trkpt lat="45.01996" lon="3.42131">
        <ele>869.17</ele>
        <time>2022-03-27T08:41:50Z</time>
      </trkpt>
      <trkpt lat="45.01986" lon="3.42145">
        <ele>873.01</ele>
        <time>2022-03-27T08:42:08Z</time>
      </trkpt>
      <trkpt lat="45.01982" lon="3.42153">
        <ele>874.94</ele>
        <time>2022-03-27T08:42:22Z</time>
      </trkpt>
      <trkpt lat="45.01977" lon="3.42161">
        <ele>876.86</ele>
        <time>2022-03-27T08:42:35Z</time>
      </trkpt>
      <trkpt lat="45.01972" lon="3.42167">
        <ele>879.26</ele>
        <time>2022-03-27T08:42:49Z</time>
      </trkpt>
      <trkpt lat="45.01966" lon="3.42174">
        <ele>882.15</ele>
        <time>2022-03-27T08:43:01Z</time>
      </trkpt>
      <trkpt lat="45.01961" lon="3.42177">
        <ele>885.51</ele>
        <time>2022-03-27T08:43:13Z</time>
      </trkpt>
      <trkpt lat="45.01954" lon="3.42188">
        <ele>887.91</ele>
        <time>2022-03-27T08:43:28Z</time>
      </trkpt>
      <trkpt lat="45.0195" lon="3.42194">
        <ele>890.32</ele>
        <time>2022-03-27T08:43:40Z</time>
      </trkpt>
      <trkpt lat="45.01944" lon="3.42203">
        <ele>891.76</ele>
        <time>2022-03-27T08:43:52Z</time>
      </trkpt>
      <trkpt lat="45.0194" lon="3.42215">
        <ele>892.72</ele>
        <time>2022-03-27T08:44:05Z</time>
      </trkpt>
      <trkpt lat="45.01936" lon="3.42227">
        <ele>896.57</ele>
        <time>2022-03-27T08:44:18Z</time>
      </trkpt>
      <trkpt lat="45.01936" lon="3.42233">
        <ele>898.97</ele>
        <time>2022-03-27T08:44:29Z</time>
      </trkpt>
      <trkpt lat="45.01932" lon="3.4225">
        <ele>900.89</ele>
        <time>2022-03-27T08:44:46Z</time>
      </trkpt>
      <trkpt lat="45.01935" lon="3.42263">
        <ele>902.82</ele>
        <time>2022-03-27T08:45:00Z</time>
      </trkpt>
      <trkpt lat="45.01937" lon="3.42273">
        <ele>903.78</ele>
        <time>2022-03-27T08:45:10Z</time>
      </trkpt>
      <trkpt lat="45.0194" lon="3.42282">
        <ele>905.7</ele>
        <time>2022-03-27T08:45:22Z</time>
      </trkpt>
      <trkpt lat="45.0194" lon="3.42283">
        <ele>906.66</ele>
        <time>2022-03-27T08:45:24Z</time>
      </trkpt>
      <trkpt lat="45.01943" lon="3.42295">
        <ele>909.06</ele>
        <time>2022-03-27T08:45:37Z</time>
      </trkpt>
      <trkpt lat="45.01945" lon="3.42306">
        <ele>911.95</ele>
        <time>2022-03-27T08:45:50Z</time>
      </trkpt>
      <trkpt lat="45.01945" lon="3.42309">
        <ele>911.95</ele>
        <time>2022-03-27T08:46:05Z</time>
      </trkpt>
      <trkpt lat="45.01946" lon="3.42311">
        <ele>912.43</ele>
        <time>2022-03-27T08:46:17Z</time>
      </trkpt>
      <trkpt lat="45.01952" lon="3.42305">
        <ele>915.79</ele>
        <time>2022-03-27T08:46:29Z</time>
      </trkpt>
      <trkpt lat="45.01958" lon="3.42297">
        <ele>918.68</ele>
        <time>2022-03-27T08:46:40Z</time>
      </trkpt>
      <trkpt lat="45.01968" lon="3.42288">
        <ele>921.08</ele>
        <time>2022-03-27T08:46:53Z</time>
      </trkpt>
      <trkpt lat="45.01979" lon="3.42282">
        <ele>923.96</ele>
        <time>2022-03-27T08:47:08Z</time>
      </trkpt>
      <trkpt lat="45.01988" lon="3.42281">
        <ele>926.85</ele>
        <time>2022-03-27T08:47:21Z</time>
      </trkpt>
      <trkpt lat="45.01992" lon="3.42278">
        <ele>928.77</ele>
        <time>2022-03-27T08:47:37Z</time>
      </trkpt>
      <trkpt lat="45.01993" lon="3.4228">
        <ele>927.81</ele>
        <time>2022-03-27T08:47:56Z</time>
      </trkpt>
      <trkpt lat="45.01994" lon="3.4228">
        <ele>928.29</ele>
        <time>2022-03-27T08:48:18Z</time>
      </trkpt>
      <trkpt lat="45.01994" lon="3.42281">
        <ele>927.81</ele>
        <time>2022-03-27T08:48:40Z</time>
      </trkpt>
      <trkpt lat="45.01995" lon="3.4228">
        <ele>927.81</ele>
        <time>2022-03-27T08:49:06Z</time>
      </trkpt>
      <trkpt lat="45.01995" lon="3.4228">
        <ele>927.81</ele>
        <time>2022-03-27T08:49:22Z</time>
      </trkpt>
      <trkpt lat="45.01998" lon="3.42281">
        <ele>928.29</ele>
        <time>2022-03-27T08:49:36Z</time>
      </trkpt>
      <trkpt lat="45.02006" lon="3.42278">
        <ele>931.17</ele>
        <time>2022-03-27T08:49:49Z</time>
      </trkpt>
      <trkpt lat="45.02015" lon="3.42275">
        <ele>933.58</ele>
        <time>2022-03-27T08:50:04Z</time>
      </trkpt>
      <trkpt lat="45.02023" lon="3.42274">
        <ele>935.5</ele>
        <time>2022-03-27T08:50:18Z</time>
      </trkpt>
      <trkpt lat="45.02031" lon="3.42273">
        <ele>938.38</ele>
        <time>2022-03-27T08:50:34Z</time>
      </trkpt>
      <trkpt lat="45.0204" lon="3.42272">
        <ele>940.79</ele>
        <time>2022-03-27T08:50:47Z</time>
      </trkpt>
      <trkpt lat="45.0205" lon="3.42269">
        <ele>943.19</ele>
        <time>2022-03-27T08:51:02Z</time>
      </trkpt>
      <trkpt lat="45.02054" lon="3.42271">
        <ele>943.67</ele>
        <time>2022-03-27T08:51:16Z</time>
      </trkpt>
      <trkpt lat="45.02061" lon="3.42268">
        <ele>945.11</ele>
        <time>2022-03-27T08:51:28Z</time>
      </trkpt>
      <trkpt lat="45.02071" lon="3.42267">
        <ele>948.96</ele>
        <time>2022-03-27T08:51:42Z</time>
      </trkpt>
      <trkpt lat="45.02075" lon="3.42272">
        <ele>951.84</ele>
        <time>2022-03-27T08:51:54Z</time>
      </trkpt>
      <trkpt lat="45.02077" lon="3.42282">
        <ele>953.77</ele>
        <time>2022-03-27T08:52:07Z</time>
      </trkpt>
      <trkpt lat="45.02078" lon="3.42287">
        <ele>953.77</ele>
        <time>2022-03-27T08:52:21Z</time>
      </trkpt>
      <trkpt lat="45.02081" lon="3.42291">
        <ele>955.21</ele>
        <time>2022-03-27T08:52:33Z</time>
      </trkpt>
      <trkpt lat="45.02087" lon="3.42293">
        <ele>956.17</ele>
        <time>2022-03-27T08:52:45Z</time>
      </trkpt>
      <trkpt lat="45.02089" lon="3.42294">
        <ele>957.61</ele>
        <time>2022-03-27T08:53:01Z</time>
      </trkpt>
      <trkpt lat="45.02089" lon="3.42294">
        <ele>957.13</ele>
        <time>2022-03-27T08:53:14Z</time>
      </trkpt>
      <trkpt lat="45.02089" lon="3.42293">
        <ele>957.61</ele>
        <time>2022-03-27T08:53:30Z</time>
      </trkpt>
      <trkpt lat="45.02091" lon="3.42291">
        <ele>958.57</ele>
        <time>2022-03-27T08:53:47Z</time>
      </trkpt>
      <trkpt lat="45.02101" lon="3.42288">
        <ele>959.53</ele>
        <time>2022-03-27T08:54:01Z</time>
      </trkpt>
      <trkpt lat="45.02108" lon="3.4229">
        <ele>961.94</ele>
        <time>2022-03-27T08:54:12Z</time>
      </trkpt>
      <trkpt lat="45.02115" lon="3.42288">
        <ele>964.82</ele>
        <time>2022-03-27T08:54:24Z</time>
      </trkpt>
      <trkpt lat="45.02121" lon="3.42296">
        <ele>965.78</ele>
        <time>2022-03-27T08:54:38Z</time>
      </trkpt>
      <trkpt lat="45.0212" lon="3.42307">
        <ele>967.7</ele>
        <time>2022-03-27T08:54:46Z</time>
      </trkpt>
      <trkpt lat="45.02119" lon="3.42314">
        <ele>968.67</ele>
        <time>2022-03-27T08:54:51Z</time>
      </trkpt>
      <trkpt lat="45.02124" lon="3.42332">
        <ele>969.63</ele>
        <time>2022-03-27T08:55:06Z</time>
      </trkpt>
      <trkpt lat="45.02131" lon="3.42327">
        <ele>972.03</ele>
        <time>2022-03-27T08:55:18Z</time>
      </trkpt>
      <trkpt lat="45.02136" lon="3.42316">
        <ele>974.91</ele>
        <time>2022-03-27T08:55:31Z</time>
      </trkpt>
      <trkpt lat="45.0214" lon="3.42309">
        <ele>977.32</ele>
        <time>2022-03-27T08:55:43Z</time>
      </trkpt>
      <trkpt lat="45.0214" lon="3.42309">
        <ele>977.8</ele>
        <time>2022-03-27T08:56:04Z</time>
      </trkpt>
      <trkpt lat="45.0214" lon="3.4231">
        <ele>977.32</ele>
        <time>2022-03-27T08:56:22Z</time>
      </trkpt>
      <trkpt lat="45.0214" lon="3.42309">
        <ele>977.32</ele>
        <time>2022-03-27T08:56:38Z</time>
      </trkpt>
      <trkpt lat="45.0214" lon="3.42309">
        <ele>976.84</ele>
        <time>2022-03-27T08:56:53Z</time>
      </trkpt>
      <trkpt lat="45.0214" lon="3.42309">
        <ele>976.84</ele>
        <time>2022-03-27T08:57:14Z</time>
      </trkpt>
      <trkpt lat="45.02147" lon="3.42301">
        <ele>978.76</ele>
        <time>2022-03-27T08:57:27Z</time>
      </trkpt>
      <trkpt lat="45.02155" lon="3.42289">
        <ele>981.16</ele>
        <time>2022-03-27T08:57:41Z</time>
      </trkpt>
      <trkpt lat="45.02162" lon="3.4228">
        <ele>984.53</ele>
        <time>2022-03-27T08:57:53Z</time>
      </trkpt>
      <trkpt lat="45.02171" lon="3.42272">
        <ele>985.97</ele>
        <time>2022-03-27T08:58:06Z</time>
      </trkpt>
      <trkpt lat="45.02182" lon="3.42261">
        <ele>988.85</ele>
        <time>2022-03-27T08:58:20Z</time>
      </trkpt>
      <trkpt lat="45.02195" lon="3.42248">
        <ele>991.74</ele>
        <time>2022-03-27T08:58:35Z</time>
      </trkpt>
      <trkpt lat="45.02198" lon="3.42257">
        <ele>993.18</ele>
        <time>2022-03-27T08:58:47Z</time>
      </trkpt>
      <trkpt lat="45.02196" lon="3.42271">
        <ele>994.62</ele>
        <time>2022-03-27T08:59:00Z</time>
      </trkpt>
      <trkpt lat="45.02196" lon="3.42288">
        <ele>997.51</ele>
        <time>2022-03-27T08:59:15Z</time>
      </trkpt>
      <trkpt lat="45.02196" lon="3.4229">
        <ele>997.51</ele>
        <time>2022-03-27T08:59:17Z</time>
      </trkpt>
      <trkpt lat="45.02199" lon="3.42308">
        <ele>999.43</ele>
        <time>2022-03-27T08:59:33Z</time>
      </trkpt>
      <trkpt lat="45.022" lon="3.42325">
        <ele>1002.31</ele>
        <time>2022-03-27T08:59:48Z</time>
      </trkpt>
      <trkpt lat="45.02202" lon="3.4233">
        <ele>1002.79</ele>
        <time>2022-03-27T08:59:53Z</time>
      </trkpt>
      <trkpt lat="45.02208" lon="3.42342">
        <ele>1004.72</ele>
        <time>2022-03-27T09:00:07Z</time>
      </trkpt>
      <trkpt lat="45.0221" lon="3.42344">
        <ele>1005.68</ele>
        <time>2022-03-27T09:00:10Z</time>
      </trkpt>
      <trkpt lat="45.02214" lon="3.42348">
        <ele>1007.12</ele>
        <time>2022-03-27T09:00:23Z</time>
      </trkpt>
      <trkpt lat="45.0222" lon="3.4234">
        <ele>1009.04</ele>
        <time>2022-03-27T09:00:36Z</time>
      </trkpt>
      <trkpt lat="45.02219" lon="3.42336">
        <ele>1008.56</ele>
        <time>2022-03-27T09:00:50Z</time>
      </trkpt>
      <trkpt lat="45.02218" lon="3.42335">
        <ele>1008.56</ele>
        <time>2022-03-27T09:00:59Z</time>
      </trkpt>
      <trkpt lat="45.02218" lon="3.42333">
        <ele>1008.56</ele>
        <time>2022-03-27T09:01:10Z</time>
      </trkpt>
      <trkpt lat="45.02218" lon="3.42333">
        <ele>1008.56</ele>
        <time>2022-03-27T09:01:29Z</time>
      </trkpt>
      <trkpt lat="45.02218" lon="3.42333">
        <ele>1008.08</ele>
        <time>2022-03-27T09:01:47Z</time>
      </trkpt>
      <trkpt lat="45.02219" lon="3.42336">
        <ele>1008.56</ele>
        <time>2022-03-27T09:02:06Z</time>
      </trkpt>
      <trkpt lat="45.02219" lon="3.42337">
        <ele>1007.6</ele>
        <time>2022-03-27T09:02:36Z</time>
      </trkpt>
      <trkpt lat="45.02219" lon="3.42333">
        <ele>1007.6</ele>
        <time>2022-03-27T09:02:48Z</time>
      </trkpt>
      <trkpt lat="45.02219" lon="3.42334">
        <ele>1008.08</ele>
        <time>2022-03-27T09:03:02Z</time>
      </trkpt>
      <trkpt lat="45.02219" lon="3.42334">
        <ele>1008.08</ele>
        <time>2022-03-27T09:03:13Z</time>
      </trkpt>
      <trkpt lat="45.02219" lon="3.42337">
        <ele>1008.56</ele>
        <time>2022-03-27T09:03:41Z</time>
      </trkpt>
      <trkpt lat="45.02218" lon="3.42337">
        <ele>1008.56</ele>
        <time>2022-03-27T09:04:01Z</time>
      </trkpt>
      <trkpt lat="45.02221" lon="3.42335">
        <ele>1009.04</ele>
        <time>2022-03-27T09:04:16Z</time>
      </trkpt>
      <trkpt lat="45.02228" lon="3.4232">
        <ele>1010</ele>
        <time>2022-03-27T09:04:32Z</time>
      </trkpt>
      <trkpt lat="45.0223" lon="3.42315">
        <ele>1010.48</ele>
        <time>2022-03-27T09:04:36Z</time>
      </trkpt>
      <trkpt lat="45.02238" lon="3.42292">
        <ele>1012.89</ele>
        <time>2022-03-27T09:04:54Z</time>
      </trkpt>
      <trkpt lat="45.02244" lon="3.42277">
        <ele>1014.81</ele>
        <time>2022-03-27T09:05:06Z</time>
      </trkpt>
      <trkpt lat="45.02245" lon="3.42274">
        <ele>1014.81</ele>
        <time>2022-03-27T09:05:08Z</time>
      </trkpt>
      <trkpt lat="45.0225" lon="3.42259">
        <ele>1016.25</ele>
        <time>2022-03-27T09:05:22Z</time>
      </trkpt>
      <trkpt lat="45.02258" lon="3.4224">
        <ele>1018.17</ele>
        <time>2022-03-27T09:05:38Z</time>
      </trkpt>
      <trkpt lat="45.02266" lon="3.42219">
        <ele>1020.58</ele>
        <time>2022-03-27T09:05:53Z</time>
      </trkpt>
      <trkpt lat="45.02271" lon="3.42206">
        <ele>1022.98</ele>
        <time>2022-03-27T09:06:07Z</time>
      </trkpt>
      <trkpt lat="45.02272" lon="3.42207">
        <ele>1022.98</ele>
        <time>2022-03-27T09:06:09Z</time>
      </trkpt>
      <trkpt lat="45.02275" lon="3.42211">
        <ele>1022.98</ele>
        <time>2022-03-27T09:06:13Z</time>
      </trkpt>
      <trkpt lat="45.02276" lon="3.42231">
        <ele>1023.94</ele>
        <time>2022-03-27T09:06:29Z</time>
      </trkpt>
      <trkpt lat="45.02275" lon="3.4225">
        <ele>1025.86</ele>
        <time>2022-03-27T09:06:42Z</time>
      </trkpt>
      <trkpt lat="45.02277" lon="3.42271">
        <ele>1027.31</ele>
        <time>2022-03-27T09:06:57Z</time>
      </trkpt>
      <trkpt lat="45.02277" lon="3.42284">
        <ele>1028.27</ele>
        <time>2022-03-27T09:07:09Z</time>
      </trkpt>
      <trkpt lat="45.02279" lon="3.42302">
        <ele>1029.71</ele>
        <time>2022-03-27T09:07:22Z</time>
      </trkpt>
      <trkpt lat="45.02279" lon="3.42313">
        <ele>1031.15</ele>
        <time>2022-03-27T09:07:34Z</time>
      </trkpt>
      <trkpt lat="45.0228" lon="3.42326">
        <ele>1032.59</ele>
        <time>2022-03-27T09:07:47Z</time>
      </trkpt>
      <trkpt lat="45.0228" lon="3.42337">
        <ele>1033.07</ele>
        <time>2022-03-27T09:07:56Z</time>
      </trkpt>
      <trkpt lat="45.0228" lon="3.42339">
        <ele>1033.55</ele>
        <time>2022-03-27T09:07:58Z</time>
      </trkpt>
      <trkpt lat="45.0228" lon="3.42343">
        <ele>1033.55</ele>
        <time>2022-03-27T09:08:01Z</time>
      </trkpt>
      <trkpt lat="45.02282" lon="3.42361">
        <ele>1034.52</ele>
        <time>2022-03-27T09:08:15Z</time>
      </trkpt>
      <trkpt lat="45.02284" lon="3.42373">
        <ele>1035.48</ele>
        <time>2022-03-27T09:08:26Z</time>
      </trkpt>
      <trkpt lat="45.02287" lon="3.42384">
        <ele>1035.96</ele>
        <time>2022-03-27T09:08:35Z</time>
      </trkpt>
      <trkpt lat="45.0229" lon="3.42393">
        <ele>1036.44</ele>
        <time>2022-03-27T09:08:46Z</time>
      </trkpt>
      <trkpt lat="45.02291" lon="3.42395">
        <ele>1036.44</ele>
        <time>2022-03-27T09:08:56Z</time>
      </trkpt>
      <trkpt lat="45.0229" lon="3.42393">
        <ele>1036.44</ele>
        <time>2022-03-27T09:08:57Z</time>
      </trkpt>
      <trkpt lat="45.02293" lon="3.42389">
        <ele>1036.92</ele>
        <time>2022-03-27T09:09:03Z</time>
      </trkpt>
      <trkpt lat="45.023" lon="3.42387">
        <ele>1038.36</ele>
        <time>2022-03-27T09:09:10Z</time>
      </trkpt>
      <trkpt lat="45.02303" lon="3.42377">
        <ele>1039.8</ele>
        <time>2022-03-27T09:09:23Z</time>
      </trkpt>
      <trkpt lat="45.02307" lon="3.42362">
        <ele>1041.73</ele>
        <time>2022-03-27T09:09:36Z</time>
      </trkpt>
      <trkpt lat="45.02316" lon="3.42342">
        <ele>1044.13</ele>
        <time>2022-03-27T09:09:53Z</time>
      </trkpt>
      <trkpt lat="45.02321" lon="3.42334">
        <ele>1045.09</ele>
        <time>2022-03-27T09:10:01Z</time>
      </trkpt>
      <trkpt lat="45.0233" lon="3.42316">
        <ele>1046.53</ele>
        <time>2022-03-27T09:10:16Z</time>
      </trkpt>
      <trkpt lat="45.0234" lon="3.423">
        <ele>1049.9</ele>
        <time>2022-03-27T09:10:30Z</time>
      </trkpt>
      <trkpt lat="45.02341" lon="3.42298">
        <ele>1049.9</ele>
        <time>2022-03-27T09:10:32Z</time>
      </trkpt>
      <trkpt lat="45.02343" lon="3.42283">
        <ele>1052.78</ele>
        <time>2022-03-27T09:10:45Z</time>
      </trkpt>
      <trkpt lat="45.02344" lon="3.42268">
        <ele>1053.74</ele>
        <time>2022-03-27T09:10:58Z</time>
      </trkpt>
      <trkpt lat="45.02344" lon="3.42245">
        <ele>1054.7</ele>
        <time>2022-03-27T09:11:13Z</time>
      </trkpt>
      <trkpt lat="45.02347" lon="3.42228">
        <ele>1056.63</ele>
        <time>2022-03-27T09:11:26Z</time>
      </trkpt>
      <trkpt lat="45.02348" lon="3.4221">
        <ele>1058.07</ele>
        <time>2022-03-27T09:11:39Z</time>
      </trkpt>
      <trkpt lat="45.02349" lon="3.42196">
        <ele>1059.03</ele>
        <time>2022-03-27T09:11:49Z</time>
      </trkpt>
      <trkpt lat="45.02353" lon="3.42176">
        <ele>1060.47</ele>
        <time>2022-03-27T09:12:03Z</time>
      </trkpt>
      <trkpt lat="45.02356" lon="3.42159">
        <ele>1061.91</ele>
        <time>2022-03-27T09:12:16Z</time>
      </trkpt>
      <trkpt lat="45.0236" lon="3.42144">
        <ele>1063.36</ele>
        <time>2022-03-27T09:12:28Z</time>
      </trkpt>
      <trkpt lat="45.02364" lon="3.42129">
        <ele>1065.28</ele>
        <time>2022-03-27T09:12:40Z</time>
      </trkpt>
      <trkpt lat="45.02368" lon="3.42114">
        <ele>1065.76</ele>
        <time>2022-03-27T09:12:51Z</time>
      </trkpt>
      <trkpt lat="45.02375" lon="3.42097">
        <ele>1066.72</ele>
        <time>2022-03-27T09:13:07Z</time>
      </trkpt>
      <trkpt lat="45.02382" lon="3.4208">
        <ele>1068.16</ele>
        <time>2022-03-27T09:13:22Z</time>
      </trkpt>
      <trkpt lat="45.02388" lon="3.42069">
        <ele>1068.16</ele>
        <time>2022-03-27T09:13:34Z</time>
      </trkpt>
      <trkpt lat="45.02393" lon="3.42049">
        <ele>1069.12</ele>
        <time>2022-03-27T09:13:48Z</time>
      </trkpt>
      <trkpt lat="45.02398" lon="3.42035">
        <ele>1070.08</ele>
        <time>2022-03-27T09:13:58Z</time>
      </trkpt>
      <trkpt lat="45.02401" lon="3.42031">
        <ele>1070.57</ele>
        <time>2022-03-27T09:14:02Z</time>
      </trkpt>
      <trkpt lat="45.02412" lon="3.42018">
        <ele>1072.97</ele>
        <time>2022-03-27T09:14:18Z</time>
      </trkpt>
      <trkpt lat="45.02414" lon="3.42016">
        <ele>1073.45</ele>
        <time>2022-03-27T09:14:20Z</time>
      </trkpt>
      <trkpt lat="45.02425" lon="3.42008">
        <ele>1074.41</ele>
        <time>2022-03-27T09:14:35Z</time>
      </trkpt>
      <trkpt lat="45.02434" lon="3.42002">
        <ele>1074.89</ele>
        <time>2022-03-27T09:14:48Z</time>
      </trkpt>
      <trkpt lat="45.02446" lon="3.41999">
        <ele>1076.33</ele>
        <time>2022-03-27T09:15:01Z</time>
      </trkpt>
      <trkpt lat="45.02462" lon="3.41995">
        <ele>1078.26</ele>
        <time>2022-03-27T09:15:17Z</time>
      </trkpt>
      <trkpt lat="45.02474" lon="3.41988">
        <ele>1079.22</ele>
        <time>2022-03-27T09:15:29Z</time>
      </trkpt>
      <trkpt lat="45.02478" lon="3.41986">
        <ele>1079.7</ele>
        <time>2022-03-27T09:15:33Z</time>
      </trkpt>
      <trkpt lat="45.02487" lon="3.41978">
        <ele>1080.18</ele>
        <time>2022-03-27T09:15:44Z</time>
      </trkpt>
      <trkpt lat="45.02489" lon="3.41975">
        <ele>1080.18</ele>
        <time>2022-03-27T09:15:46Z</time>
      </trkpt>
      <trkpt lat="45.02493" lon="3.41968">
        <ele>1081.14</ele>
        <time>2022-03-27T09:15:53Z</time>
      </trkpt>
      <trkpt lat="45.02495" lon="3.41967">
        <ele>1081.14</ele>
        <time>2022-03-27T09:15:55Z</time>
      </trkpt>
      <trkpt lat="45.02496" lon="3.41964">
        <ele>1081.14</ele>
        <time>2022-03-27T09:15:57Z</time>
      </trkpt>
      <trkpt lat="45.02501" lon="3.41956">
        <ele>1081.62</ele>
        <time>2022-03-27T09:16:08Z</time>
      </trkpt>
      <trkpt lat="45.02505" lon="3.41951">
        <ele>1082.1</ele>
        <time>2022-03-27T09:16:17Z</time>
      </trkpt>
      <trkpt lat="45.02513" lon="3.41939">
        <ele>1082.58</ele>
        <time>2022-03-27T09:16:32Z</time>
      </trkpt>
      <trkpt lat="45.02518" lon="3.41932">
        <ele>1083.06</ele>
        <time>2022-03-27T09:16:43Z</time>
      </trkpt>
      <trkpt lat="45.02519" lon="3.41931">
        <ele>1083.06</ele>
        <time>2022-03-27T09:16:46Z</time>
      </trkpt>
      <trkpt lat="45.02529" lon="3.41919">
        <ele>1083.54</ele>
        <time>2022-03-27T09:17:00Z</time>
      </trkpt>
      <trkpt lat="45.02535" lon="3.41912">
        <ele>1083.54</ele>
        <time>2022-03-27T09:17:07Z</time>
      </trkpt>
      <trkpt lat="45.02546" lon="3.41902">
        <ele>1084.02</ele>
        <time>2022-03-27T09:17:19Z</time>
      </trkpt>
      <trkpt lat="45.0255" lon="3.41896">
        <ele>1084.5</ele>
        <time>2022-03-27T09:17:28Z</time>
      </trkpt>
      <trkpt lat="45.02564" lon="3.4188">
        <ele>1084.99</ele>
        <time>2022-03-27T09:17:45Z</time>
      </trkpt>
      <trkpt lat="45.02569" lon="3.41874">
        <ele>1085.47</ele>
        <time>2022-03-27T09:17:52Z</time>
      </trkpt>
      <trkpt lat="45.02582" lon="3.4186">
        <ele>1085.47</ele>
        <time>2022-03-27T09:18:08Z</time>
      </trkpt>
      <trkpt lat="45.02596" lon="3.41852">
        <ele>1085.47</ele>
        <time>2022-03-27T09:18:21Z</time>
      </trkpt>
      <trkpt lat="45.026" lon="3.41853">
        <ele>1085.95</ele>
        <time>2022-03-27T09:18:25Z</time>
      </trkpt>
      <trkpt lat="45.02624" lon="3.41849">
        <ele>1086.43</ele>
        <time>2022-03-27T09:18:44Z</time>
      </trkpt>
      <trkpt lat="45.02629" lon="3.41846">
        <ele>1086.91</ele>
        <time>2022-03-27T09:18:49Z</time>
      </trkpt>
      <trkpt lat="45.02644" lon="3.41843">
        <ele>1088.83</ele>
        <time>2022-03-27T09:19:04Z</time>
      </trkpt>
      <trkpt lat="45.02664" lon="3.4185">
        <ele>1089.79</ele>
        <time>2022-03-27T09:19:22Z</time>
      </trkpt>
      <trkpt lat="45.02681" lon="3.41856">
        <ele>1089.79</ele>
        <time>2022-03-27T09:19:36Z</time>
      </trkpt>
      <trkpt lat="45.02701" lon="3.41864">
        <ele>1090.75</ele>
        <time>2022-03-27T09:19:54Z</time>
      </trkpt>
      <trkpt lat="45.02709" lon="3.41864">
        <ele>1092.2</ele>
        <time>2022-03-27T09:20:08Z</time>
      </trkpt>
      <trkpt lat="45.02713" lon="3.41864">
        <ele>1092.68</ele>
        <time>2022-03-27T09:20:20Z</time>
      </trkpt>
      <trkpt lat="45.02712" lon="3.4186">
        <ele>1093.16</ele>
        <time>2022-03-27T09:20:26Z</time>
      </trkpt>
      <trkpt lat="45.02703" lon="3.4184">
        <ele>1094.12</ele>
        <time>2022-03-27T09:20:43Z</time>
      </trkpt>
      <trkpt lat="45.02696" lon="3.41822">
        <ele>1094.12</ele>
        <time>2022-03-27T09:20:57Z</time>
      </trkpt>
      <trkpt lat="45.02693" lon="3.41812">
        <ele>1094.12</ele>
        <time>2022-03-27T09:21:12Z</time>
      </trkpt>
      <trkpt lat="45.02689" lon="3.41804">
        <ele>1094.12</ele>
        <time>2022-03-27T09:21:23Z</time>
      </trkpt>
      <trkpt lat="45.0268" lon="3.41781">
        <ele>1094.6</ele>
        <time>2022-03-27T09:21:40Z</time>
      </trkpt>
      <trkpt lat="45.02679" lon="3.41777">
        <ele>1094.6</ele>
        <time>2022-03-27T09:21:43Z</time>
      </trkpt>
      <trkpt lat="45.02671" lon="3.41754">
        <ele>1095.56</ele>
        <time>2022-03-27T09:21:59Z</time>
      </trkpt>
      <trkpt lat="45.02662" lon="3.41731">
        <ele>1096.04</ele>
        <time>2022-03-27T09:22:15Z</time>
      </trkpt>
      <trkpt lat="45.02655" lon="3.41709">
        <ele>1097</ele>
        <time>2022-03-27T09:22:30Z</time>
      </trkpt>
      <trkpt lat="45.0265" lon="3.41696">
        <ele>1097.48</ele>
        <time>2022-03-27T09:22:40Z</time>
      </trkpt>
      <trkpt lat="45.02642" lon="3.41676">
        <ele>1098.44</ele>
        <time>2022-03-27T09:22:55Z</time>
      </trkpt>
      <trkpt lat="45.02635" lon="3.41655">
        <ele>1099.4</ele>
        <time>2022-03-27T09:23:10Z</time>
      </trkpt>
      <trkpt lat="45.02628" lon="3.41636">
        <ele>1100.37</ele>
        <time>2022-03-27T09:23:24Z</time>
      </trkpt>
      <trkpt lat="45.02621" lon="3.41617">
        <ele>1101.33</ele>
        <time>2022-03-27T09:23:38Z</time>
      </trkpt>
      <trkpt lat="45.02616" lon="3.41598">
        <ele>1102.77</ele>
        <time>2022-03-27T09:23:52Z</time>
      </trkpt>
      <trkpt lat="45.02612" lon="3.41576">
        <ele>1103.73</ele>
        <time>2022-03-27T09:24:07Z</time>
      </trkpt>
      <trkpt lat="45.0261" lon="3.41549">
        <ele>1104.69</ele>
        <time>2022-03-27T09:24:25Z</time>
      </trkpt>
      <trkpt lat="45.02609" lon="3.41514">
        <ele>1104.69</ele>
        <time>2022-03-27T09:24:45Z</time>
      </trkpt>
      <trkpt lat="45.02609" lon="3.41496">
        <ele>1104.69</ele>
        <time>2022-03-27T09:24:57Z</time>
      </trkpt>
      <trkpt lat="45.02609" lon="3.41489">
        <ele>1104.69</ele>
        <time>2022-03-27T09:25:01Z</time>
      </trkpt>
      <trkpt lat="45.0261" lon="3.41484">
        <ele>1105.17</ele>
        <time>2022-03-27T09:25:05Z</time>
      </trkpt>
      <trkpt lat="45.02609" lon="3.4148">
        <ele>1105.17</ele>
        <time>2022-03-27T09:25:08Z</time>
      </trkpt>
      <trkpt lat="45.0261" lon="3.41477">
        <ele>1104.69</ele>
        <time>2022-03-27T09:25:10Z</time>
      </trkpt>
      <trkpt lat="45.02611" lon="3.41445">
        <ele>1104.69</ele>
        <time>2022-03-27T09:25:30Z</time>
      </trkpt>
      <trkpt lat="45.02611" lon="3.41434">
        <ele>1104.21</ele>
        <time>2022-03-27T09:25:40Z</time>
      </trkpt>
      <trkpt lat="45.02611" lon="3.41422">
        <ele>1104.21</ele>
        <time>2022-03-27T09:25:48Z</time>
      </trkpt>
      <trkpt lat="45.02611" lon="3.41402">
        <ele>1104.69</ele>
        <time>2022-03-27T09:26:03Z</time>
      </trkpt>
      <trkpt lat="45.02611" lon="3.41393">
        <ele>1104.69</ele>
        <time>2022-03-27T09:26:17Z</time>
      </trkpt>
      <trkpt lat="45.0261" lon="3.41386">
        <ele>1104.21</ele>
        <time>2022-03-27T09:26:23Z</time>
      </trkpt>
      <trkpt lat="45.0261" lon="3.41366">
        <ele>1103.73</ele>
        <time>2022-03-27T09:26:36Z</time>
      </trkpt>
      <trkpt lat="45.02607" lon="3.41339">
        <ele>1102.77</ele>
        <time>2022-03-27T09:26:53Z</time>
      </trkpt>
      <trkpt lat="45.02605" lon="3.413">
        <ele>1102.77</ele>
        <time>2022-03-27T09:27:15Z</time>
      </trkpt>
      <trkpt lat="45.02606" lon="3.41292">
        <ele>1101.81</ele>
        <time>2022-03-27T09:27:28Z</time>
      </trkpt>
      <trkpt lat="45.02605" lon="3.41292">
        <ele>1102.77</ele>
        <time>2022-03-27T09:27:47Z</time>
      </trkpt>
      <trkpt lat="45.02606" lon="3.41288">
        <ele>1102.29</ele>
        <time>2022-03-27T09:27:59Z</time>
      </trkpt>
      <trkpt lat="45.02604" lon="3.41272">
        <ele>1101.81</ele>
        <time>2022-03-27T09:28:11Z</time>
      </trkpt>
      <trkpt lat="45.02603" lon="3.41251">
        <ele>1101.33</ele>
        <time>2022-03-27T09:28:25Z</time>
      </trkpt>
      <trkpt lat="45.02604" lon="3.41226">
        <ele>1101.81</ele>
        <time>2022-03-27T09:28:41Z</time>
      </trkpt>
      <trkpt lat="45.02604" lon="3.41221">
        <ele>1101.81</ele>
        <time>2022-03-27T09:28:44Z</time>
      </trkpt>
      <trkpt lat="45.02606" lon="3.41196">
        <ele>1101.33</ele>
        <time>2022-03-27T09:29:00Z</time>
      </trkpt>
      <trkpt lat="45.02607" lon="3.41178">
        <ele>1101.33</ele>
        <time>2022-03-27T09:29:11Z</time>
      </trkpt>
      <trkpt lat="45.02611" lon="3.41148">
        <ele>1101.81</ele>
        <time>2022-03-27T09:29:29Z</time>
      </trkpt>
      <trkpt lat="45.02612" lon="3.41127">
        <ele>1101.81</ele>
        <time>2022-03-27T09:29:44Z</time>
      </trkpt>
      <trkpt lat="45.02612" lon="3.41122">
        <ele>1101.81</ele>
        <time>2022-03-27T09:29:47Z</time>
      </trkpt>
      <trkpt lat="45.02608" lon="3.411">
        <ele>1100.37</ele>
        <time>2022-03-27T09:30:04Z</time>
      </trkpt>
      <trkpt lat="45.02602" lon="3.41074">
        <ele>1099.4</ele>
        <time>2022-03-27T09:30:20Z</time>
      </trkpt>
      <trkpt lat="45.02596" lon="3.41051">
        <ele>1098.92</ele>
        <time>2022-03-27T09:30:36Z</time>
      </trkpt>
      <trkpt lat="45.02591" lon="3.41029">
        <ele>1097.96</ele>
        <time>2022-03-27T09:30:51Z</time>
      </trkpt>
      <trkpt lat="45.02583" lon="3.41001">
        <ele>1097.48</ele>
        <time>2022-03-27T09:31:10Z</time>
      </trkpt>
      <trkpt lat="45.02577" lon="3.4098">
        <ele>1095.56</ele>
        <time>2022-03-27T09:31:24Z</time>
      </trkpt>
      <trkpt lat="45.02569" lon="3.40959">
        <ele>1096.52</ele>
        <time>2022-03-27T09:31:39Z</time>
      </trkpt>
      <trkpt lat="45.0256" lon="3.40934">
        <ele>1097</ele>
        <time>2022-03-27T09:31:56Z</time>
      </trkpt>
      <trkpt lat="45.02555" lon="3.4092">
        <ele>1097.48</ele>
        <time>2022-03-27T09:32:05Z</time>
      </trkpt>
      <trkpt lat="45.02551" lon="3.409">
        <ele>1096.52</ele>
        <time>2022-03-27T09:32:17Z</time>
      </trkpt>
      <trkpt lat="45.02546" lon="3.40868">
        <ele>1096.52</ele>
        <time>2022-03-27T09:32:37Z</time>
      </trkpt>
      <trkpt lat="45.02546" lon="3.40864">
        <ele>1096.52</ele>
        <time>2022-03-27T09:32:40Z</time>
      </trkpt>
      <trkpt lat="45.02544" lon="3.40843">
        <ele>1095.56</ele>
        <time>2022-03-27T09:32:53Z</time>
      </trkpt>
      <trkpt lat="45.02543" lon="3.40832">
        <ele>1095.56</ele>
        <time>2022-03-27T09:33:00Z</time>
      </trkpt>
      <trkpt lat="45.02543" lon="3.40821">
        <ele>1096.04</ele>
        <time>2022-03-27T09:33:06Z</time>
      </trkpt>
      <trkpt lat="45.02544" lon="3.40813">
        <ele>1095.56</ele>
        <time>2022-03-27T09:33:11Z</time>
      </trkpt>
      <trkpt lat="45.02544" lon="3.4081">
        <ele>1095.56</ele>
        <time>2022-03-27T09:33:13Z</time>
      </trkpt>
      <trkpt lat="45.02545" lon="3.40802">
        <ele>1095.56</ele>
        <time>2022-03-27T09:33:18Z</time>
      </trkpt>
      <trkpt lat="45.02546" lon="3.40788">
        <ele>1096.52</ele>
        <time>2022-03-27T09:33:26Z</time>
      </trkpt>
      <trkpt lat="45.02547" lon="3.40781">
        <ele>1097</ele>
        <time>2022-03-27T09:33:30Z</time>
      </trkpt>
      <trkpt lat="45.02547" lon="3.40764">
        <ele>1097.96</ele>
        <time>2022-03-27T09:33:41Z</time>
      </trkpt>
      <trkpt lat="45.0255" lon="3.40745">
        <ele>1097.48</ele>
        <time>2022-03-27T09:33:53Z</time>
      </trkpt>
      <trkpt lat="45.0255" lon="3.40738">
        <ele>1097.48</ele>
        <time>2022-03-27T09:33:57Z</time>
      </trkpt>
      <trkpt lat="45.02556" lon="3.40712">
        <ele>1098.92</ele>
        <time>2022-03-27T09:34:13Z</time>
      </trkpt>
      <trkpt lat="45.02567" lon="3.4069">
        <ele>1097</ele>
        <time>2022-03-27T09:34:28Z</time>
      </trkpt>
      <trkpt lat="45.02585" lon="3.40671">
        <ele>1099.89</ele>
        <time>2022-03-27T09:34:45Z</time>
      </trkpt>
      <trkpt lat="45.02597" lon="3.40661">
        <ele>1101.33</ele>
        <time>2022-03-27T09:35:01Z</time>
      </trkpt>
      <trkpt lat="45.02603" lon="3.40655">
        <ele>1103.73</ele>
        <time>2022-03-27T09:35:12Z</time>
      </trkpt>
      <trkpt lat="45.02609" lon="3.40646">
        <ele>1109.98</ele>
        <time>2022-03-27T09:35:22Z</time>
      </trkpt>
      <trkpt lat="45.02611" lon="3.40643">
        <ele>1110.46</ele>
        <time>2022-03-27T09:35:25Z</time>
      </trkpt>
      <trkpt lat="45.02625" lon="3.4063">
        <ele>1110.46</ele>
        <time>2022-03-27T09:35:40Z</time>
      </trkpt>
      <trkpt lat="45.02634" lon="3.40621">
        <ele>1112.86</ele>
        <time>2022-03-27T09:35:51Z</time>
      </trkpt>
      <trkpt lat="45.02644" lon="3.40609">
        <ele>1116.23</ele>
        <time>2022-03-27T09:36:03Z</time>
      </trkpt>
      <trkpt lat="45.02657" lon="3.40599">
        <ele>1117.19</ele>
        <time>2022-03-27T09:36:16Z</time>
      </trkpt>
      <trkpt lat="45.02671" lon="3.40589">
        <ele>1117.67</ele>
        <time>2022-03-27T09:36:29Z</time>
      </trkpt>
      <trkpt lat="45.02686" lon="3.40579">
        <ele>1115.27</ele>
        <time>2022-03-27T09:36:41Z</time>
      </trkpt>
      <trkpt lat="45.02702" lon="3.4057">
        <ele>1114.79</ele>
        <time>2022-03-27T09:36:54Z</time>
      </trkpt>
      <trkpt lat="45.02714" lon="3.40568">
        <ele>1117.19</ele>
        <time>2022-03-27T09:37:06Z</time>
      </trkpt>
      <trkpt lat="45.02722" lon="3.40567">
        <ele>1118.15</ele>
        <time>2022-03-27T09:37:17Z</time>
      </trkpt>
      <trkpt lat="45.02739" lon="3.40566">
        <ele>1117.67</ele>
        <time>2022-03-27T09:37:31Z</time>
      </trkpt>
      <trkpt lat="45.02761" lon="3.40564">
        <ele>1111.42</ele>
        <time>2022-03-27T09:37:44Z</time>
      </trkpt>
      <trkpt lat="45.02774" lon="3.40567">
        <ele>1104.69</ele>
        <time>2022-03-27T09:37:55Z</time>
      </trkpt>
      <trkpt lat="45.02791" lon="3.40566">
        <ele>1098.44</ele>
        <time>2022-03-27T09:38:07Z</time>
      </trkpt>
      <trkpt lat="45.02808" lon="3.40572">
        <ele>1092.2</ele>
        <time>2022-03-27T09:38:20Z</time>
      </trkpt>
      <trkpt lat="45.02808" lon="3.40574">
        <ele>1091.71</ele>
        <time>2022-03-27T09:38:26Z</time>
      </trkpt>
      <trkpt lat="45.02823" lon="3.40578">
        <ele>1090.27</ele>
        <time>2022-03-27T09:38:38Z</time>
      </trkpt>
      <trkpt lat="45.02839" lon="3.40583">
        <ele>1087.39</ele>
        <time>2022-03-27T09:38:50Z</time>
      </trkpt>
      <trkpt lat="45.02852" lon="3.40585">
        <ele>1088.83</ele>
        <time>2022-03-27T09:39:03Z</time>
      </trkpt>
      <trkpt lat="45.02859" lon="3.40581">
        <ele>1093.64</ele>
        <time>2022-03-27T09:39:14Z</time>
      </trkpt>
      <trkpt lat="45.02861" lon="3.40579">
        <ele>1096.52</ele>
        <time>2022-03-27T09:39:19Z</time>
      </trkpt>
      <trkpt lat="45.02868" lon="3.40575">
        <ele>1097.48</ele>
        <time>2022-03-27T09:39:32Z</time>
      </trkpt>
      <trkpt lat="45.02869" lon="3.40575">
        <ele>1097.96</ele>
        <time>2022-03-27T09:39:38Z</time>
      </trkpt>
      <trkpt lat="45.02879" lon="3.40572">
        <ele>1098.44</ele>
        <time>2022-03-27T09:39:49Z</time>
      </trkpt>
      <trkpt lat="45.02882" lon="3.4057">
        <ele>1098.44</ele>
        <time>2022-03-27T09:39:52Z</time>
      </trkpt>
      <trkpt lat="45.02883" lon="3.40567">
        <ele>1098.44</ele>
        <time>2022-03-27T09:39:54Z</time>
      </trkpt>
      <trkpt lat="45.02893" lon="3.40559">
        <ele>1099.4</ele>
        <time>2022-03-27T09:40:04Z</time>
      </trkpt>
      <trkpt lat="45.02908" lon="3.40553">
        <ele>1098.92</ele>
        <time>2022-03-27T09:40:17Z</time>
      </trkpt>
      <trkpt lat="45.02908" lon="3.4054">
        <ele>1099.4</ele>
        <time>2022-03-27T09:40:31Z</time>
      </trkpt>
      <trkpt lat="45.02909" lon="3.40536">
        <ele>1091.23</ele>
        <time>2022-03-27T09:40:46Z</time>
      </trkpt>
      <trkpt lat="45.02906" lon="3.40529">
        <ele>1088.83</ele>
        <time>2022-03-27T09:40:59Z</time>
      </trkpt>
      <trkpt lat="45.02902" lon="3.40517">
        <ele>1089.31</ele>
        <time>2022-03-27T09:41:11Z</time>
      </trkpt>
      <trkpt lat="45.02895" lon="3.40502">
        <ele>1086.91</ele>
        <time>2022-03-27T09:41:23Z</time>
      </trkpt>
      <trkpt lat="45.02891" lon="3.40493">
        <ele>1083.54</ele>
        <time>2022-03-27T09:41:36Z</time>
      </trkpt>
      <trkpt lat="45.02886" lon="3.40476">
        <ele>1082.1</ele>
        <time>2022-03-27T09:41:47Z</time>
      </trkpt>
      <trkpt lat="45.02885" lon="3.4046">
        <ele>1082.1</ele>
        <time>2022-03-27T09:42:02Z</time>
      </trkpt>
      <trkpt lat="45.02884" lon="3.4045">
        <ele>1081.62</ele>
        <time>2022-03-27T09:42:11Z</time>
      </trkpt>
      <trkpt lat="45.02882" lon="3.40434">
        <ele>1082.58</ele>
        <time>2022-03-27T09:42:26Z</time>
      </trkpt>
      <trkpt lat="45.0288" lon="3.40419">
        <ele>1084.5</ele>
        <time>2022-03-27T09:42:38Z</time>
      </trkpt>
      <trkpt lat="45.02877" lon="3.404">
        <ele>1085.95</ele>
        <time>2022-03-27T09:42:53Z</time>
      </trkpt>
      <trkpt lat="45.02876" lon="3.4038">
        <ele>1090.75</ele>
        <time>2022-03-27T09:43:09Z</time>
      </trkpt>
      <trkpt lat="45.02877" lon="3.40365">
        <ele>1092.68</ele>
        <time>2022-03-27T09:43:23Z</time>
      </trkpt>
      <trkpt lat="45.02876" lon="3.4035">
        <ele>1095.08</ele>
        <time>2022-03-27T09:43:37Z</time>
      </trkpt>
      <trkpt lat="45.02877" lon="3.40333">
        <ele>1099.4</ele>
        <time>2022-03-27T09:43:51Z</time>
      </trkpt>
      <trkpt lat="45.02881" lon="3.40316">
        <ele>1101.33</ele>
        <time>2022-03-27T09:44:05Z</time>
      </trkpt>
      <trkpt lat="45.02881" lon="3.40306">
        <ele>1101.81</ele>
        <time>2022-03-27T09:44:11Z</time>
      </trkpt>
      <trkpt lat="45.02882" lon="3.40286">
        <ele>1104.69</ele>
        <time>2022-03-27T09:44:26Z</time>
      </trkpt>
      <trkpt lat="45.02883" lon="3.40282">
        <ele>1104.69</ele>
        <time>2022-03-27T09:44:29Z</time>
      </trkpt>
      <trkpt lat="45.02883" lon="3.40261">
        <ele>1108.54</ele>
        <time>2022-03-27T09:44:43Z</time>
      </trkpt>
      <trkpt lat="45.02885" lon="3.40257">
        <ele>1109.02</ele>
        <time>2022-03-27T09:44:46Z</time>
      </trkpt>
      <trkpt lat="45.02887" lon="3.40255">
        <ele>1109.02</ele>
        <time>2022-03-27T09:44:48Z</time>
      </trkpt>
      <trkpt lat="45.02899" lon="3.40234">
        <ele>1109.5</ele>
        <time>2022-03-27T09:45:05Z</time>
      </trkpt>
      <trkpt lat="45.02903" lon="3.40217">
        <ele>1110.46</ele>
        <time>2022-03-27T09:45:18Z</time>
      </trkpt>
      <trkpt lat="45.02902" lon="3.40212">
        <ele>1109.98</ele>
        <time>2022-03-27T09:45:24Z</time>
      </trkpt>
      <trkpt lat="45.02905" lon="3.40199">
        <ele>1111.9</ele>
        <time>2022-03-27T09:45:37Z</time>
      </trkpt>
      <trkpt lat="45.02907" lon="3.40194">
        <ele>1110.46</ele>
        <time>2022-03-27T09:45:48Z</time>
      </trkpt>
      <trkpt lat="45.02907" lon="3.40194">
        <ele>1109.98</ele>
        <time>2022-03-27T09:45:49Z</time>
      </trkpt>
      <trkpt lat="45.02907" lon="3.40192">
        <ele>1109.02</ele>
        <time>2022-03-27T09:46:00Z</time>
      </trkpt>
      <trkpt lat="45.02907" lon="3.4018">
        <ele>1109.02</ele>
        <time>2022-03-27T09:46:14Z</time>
      </trkpt>
      <trkpt lat="45.02906" lon="3.40176">
        <ele>1107.58</ele>
        <time>2022-03-27T09:46:21Z</time>
      </trkpt>
      <trkpt lat="45.02901" lon="3.40166">
        <ele>1104.69</ele>
        <time>2022-03-27T09:46:34Z</time>
      </trkpt>
      <trkpt lat="45.02897" lon="3.40153">
        <ele>1101.81</ele>
        <time>2022-03-27T09:46:48Z</time>
      </trkpt>
      <trkpt lat="45.02898" lon="3.40141">
        <ele>1101.81</ele>
        <time>2022-03-27T09:47:01Z</time>
      </trkpt>
      <trkpt lat="45.02898" lon="3.40139">
        <ele>1100.85</ele>
        <time>2022-03-27T09:47:13Z</time>
      </trkpt>
      <trkpt lat="45.02897" lon="3.40139">
        <ele>1100.85</ele>
        <time>2022-03-27T09:47:16Z</time>
      </trkpt>
      <trkpt lat="45.02897" lon="3.40143">
        <ele>1100.37</ele>
        <time>2022-03-27T09:47:26Z</time>
      </trkpt>
      <trkpt lat="45.02899" lon="3.40146">
        <ele>1098.92</ele>
        <time>2022-03-27T09:47:38Z</time>
      </trkpt>
      <trkpt lat="45.02898" lon="3.40146">
        <ele>1097.96</ele>
        <time>2022-03-27T09:48:00Z</time>
      </trkpt>
      <trkpt lat="45.02898" lon="3.40146">
        <ele>1097.48</ele>
        <time>2022-03-27T09:48:22Z</time>
      </trkpt>
      <trkpt lat="45.02898" lon="3.40146">
        <ele>1097.48</ele>
        <time>2022-03-27T09:48:42Z</time>
      </trkpt>
      <trkpt lat="45.02898" lon="3.40146">
        <ele>1097</ele>
        <time>2022-03-27T09:49:05Z</time>
      </trkpt>
      <trkpt lat="45.02899" lon="3.40147">
        <ele>1096.52</ele>
        <time>2022-03-27T09:49:37Z</time>
      </trkpt>
      <trkpt lat="45.02899" lon="3.40148">
        <ele>1096.52</ele>
        <time>2022-03-27T09:50:00Z</time>
      </trkpt>
      <trkpt lat="45.02899" lon="3.40148">
        <ele>1097</ele>
        <time>2022-03-27T09:50:28Z</time>
      </trkpt>
      <trkpt lat="45.02898" lon="3.40147">
        <ele>1097</ele>
        <time>2022-03-27T09:50:51Z</time>
      </trkpt>
      <trkpt lat="45.02898" lon="3.40148">
        <ele>1097.96</ele>
        <time>2022-03-27T09:51:20Z</time>
      </trkpt>
      <trkpt lat="45.02898" lon="3.40148">
        <ele>1097.96</ele>
        <time>2022-03-27T09:51:50Z</time>
      </trkpt>
      <trkpt lat="45.02899" lon="3.40148">
        <ele>1097.96</ele>
        <time>2022-03-27T09:52:23Z</time>
      </trkpt>
      <trkpt lat="45.02898" lon="3.40148">
        <ele>1097.96</ele>
        <time>2022-03-27T09:52:52Z</time>
      </trkpt>
      <trkpt lat="45.02899" lon="3.40148">
        <ele>1097.96</ele>
        <time>2022-03-27T09:53:21Z</time>
      </trkpt>
      <trkpt lat="45.02898" lon="3.40148">
        <ele>1097.96</ele>
        <time>2022-03-27T09:53:47Z</time>
      </trkpt>
      <trkpt lat="45.02899" lon="3.40147">
        <ele>1097.96</ele>
        <time>2022-03-27T09:54:17Z</time>
      </trkpt>
      <trkpt lat="45.02899" lon="3.40148">
        <ele>1097.96</ele>
        <time>2022-03-27T09:54:42Z</time>
      </trkpt>
      <trkpt lat="45.02899" lon="3.40148">
        <ele>1097.48</ele>
        <time>2022-03-27T09:55:12Z</time>
      </trkpt>
      <trkpt lat="45.02899" lon="3.40148">
        <ele>1097.48</ele>
        <time>2022-03-27T09:55:40Z</time>
      </trkpt>
      <trkpt lat="45.02899" lon="3.40148">
        <ele>1097.48</ele>
        <time>2022-03-27T09:56:11Z</time>
      </trkpt>
      <trkpt lat="45.02898" lon="3.40148">
        <ele>1097.96</ele>
        <time>2022-03-27T09:56:36Z</time>
      </trkpt>
      <trkpt lat="45.02898" lon="3.40148">
        <ele>1097.96</ele>
        <time>2022-03-27T09:57:01Z</time>
      </trkpt>
      <trkpt lat="45.02897" lon="3.40148">
        <ele>1097.48</ele>
        <time>2022-03-27T09:57:35Z</time>
      </trkpt>
      <trkpt lat="45.02897" lon="3.40147">
        <ele>1097</ele>
        <time>2022-03-27T09:58:03Z</time>
      </trkpt>
      <trkpt lat="45.02897" lon="3.40147">
        <ele>1097</ele>
        <time>2022-03-27T09:58:38Z</time>
      </trkpt>
      <trkpt lat="45.02898" lon="3.40147">
        <ele>1097.96</ele>
        <time>2022-03-27T09:58:57Z</time>
      </trkpt>
      <trkpt lat="45.02899" lon="3.40147">
        <ele>1098.44</ele>
        <time>2022-03-27T09:59:11Z</time>
      </trkpt>
      <trkpt lat="45.02899" lon="3.40147">
        <ele>1098.92</ele>
        <time>2022-03-27T09:59:35Z</time>
      </trkpt>
      <trkpt lat="45.02899" lon="3.40147">
        <ele>1099.4</ele>
        <time>2022-03-27T09:59:52Z</time>
      </trkpt>
      <trkpt lat="45.02899" lon="3.40147">
        <ele>1099.4</ele>
        <time>2022-03-27T10:00:16Z</time>
      </trkpt>
      <trkpt lat="45.02899" lon="3.40148">
        <ele>1099.4</ele>
        <time>2022-03-27T10:00:36Z</time>
      </trkpt>
      <trkpt lat="45.02898" lon="3.40147">
        <ele>1099.4</ele>
        <time>2022-03-27T10:00:55Z</time>
      </trkpt>
      <trkpt lat="45.02898" lon="3.40147">
        <ele>1099.4</ele>
        <time>2022-03-27T10:01:20Z</time>
      </trkpt>
      <trkpt lat="45.02898" lon="3.40148">
        <ele>1098.92</ele>
        <time>2022-03-27T10:01:49Z</time>
      </trkpt>
      <trkpt lat="45.02899" lon="3.40147">
        <ele>1098.92</ele>
        <time>2022-03-27T10:02:24Z</time>
      </trkpt>
      <trkpt lat="45.02899" lon="3.40147">
        <ele>1098.92</ele>
        <time>2022-03-27T10:02:54Z</time>
      </trkpt>
      <trkpt lat="45.02898" lon="3.40147">
        <ele>1098.44</ele>
        <time>2022-03-27T10:03:16Z</time>
      </trkpt>
      <trkpt lat="45.02898" lon="3.40148">
        <ele>1098.44</ele>
        <time>2022-03-27T10:03:37Z</time>
      </trkpt>
      <trkpt lat="45.02898" lon="3.40148">
        <ele>1098.44</ele>
        <time>2022-03-27T10:04:08Z</time>
      </trkpt>
      <trkpt lat="45.02898" lon="3.40148">
        <ele>1098.44</ele>
        <time>2022-03-27T10:04:29Z</time>
      </trkpt>
      <trkpt lat="45.02898" lon="3.40147">
        <ele>1099.4</ele>
        <time>2022-03-27T10:04:53Z</time>
      </trkpt>
      <trkpt lat="45.02898" lon="3.40147">
        <ele>1098.92</ele>
        <time>2022-03-27T10:05:11Z</time>
      </trkpt>
      <trkpt lat="45.02898" lon="3.40146">
        <ele>1097.96</ele>
        <time>2022-03-27T10:05:38Z</time>
      </trkpt>
      <trkpt lat="45.02898" lon="3.40147">
        <ele>1097.96</ele>
        <time>2022-03-27T10:06:00Z</time>
      </trkpt>
      <trkpt lat="45.02898" lon="3.40147">
        <ele>1097.96</ele>
        <time>2022-03-27T10:06:21Z</time>
      </trkpt>
      <trkpt lat="45.02898" lon="3.40147">
        <ele>1098.44</ele>
        <time>2022-03-27T10:06:56Z</time>
      </trkpt>
      <trkpt lat="45.02898" lon="3.40148">
        <ele>1098.92</ele>
        <time>2022-03-27T10:07:36Z</time>
      </trkpt>
      <trkpt lat="45.02899" lon="3.40147">
        <ele>1099.4</ele>
        <time>2022-03-27T10:08:17Z</time>
      </trkpt>
      <trkpt lat="45.02899" lon="3.40147">
        <ele>1098.92</ele>
        <time>2022-03-27T10:08:50Z</time>
      </trkpt>
      <trkpt lat="45.02898" lon="3.40147">
        <ele>1098.92</ele>
        <time>2022-03-27T10:09:24Z</time>
      </trkpt>
      <trkpt lat="45.02898" lon="3.40147">
        <ele>1098.44</ele>
        <time>2022-03-27T10:09:52Z</time>
      </trkpt>
      <trkpt lat="45.02898" lon="3.40147">
        <ele>1098.44</ele>
        <time>2022-03-27T10:10:19Z</time>
      </trkpt>
      <trkpt lat="45.02899" lon="3.40147">
        <ele>1097.96</ele>
        <time>2022-03-27T10:10:46Z</time>
      </trkpt>
      <trkpt lat="45.02899" lon="3.40147">
        <ele>1097.48</ele>
        <time>2022-03-27T10:11:16Z</time>
      </trkpt>
      <trkpt lat="45.029" lon="3.40147">
        <ele>1097.48</ele>
        <time>2022-03-27T10:11:42Z</time>
      </trkpt>
      <trkpt lat="45.029" lon="3.40148">
        <ele>1097.48</ele>
        <time>2022-03-27T10:12:05Z</time>
      </trkpt>
      <trkpt lat="45.029" lon="3.40148">
        <ele>1097.48</ele>
        <time>2022-03-27T10:12:30Z</time>
      </trkpt>
      <trkpt lat="45.029" lon="3.40148">
        <ele>1097.48</ele>
        <time>2022-03-27T10:12:46Z</time>
      </trkpt>
      <trkpt lat="45.029" lon="3.40148">
        <ele>1097</ele>
        <time>2022-03-27T10:13:16Z</time>
      </trkpt>
      <trkpt lat="45.02899" lon="3.40148">
        <ele>1097</ele>
        <time>2022-03-27T10:13:48Z</time>
      </trkpt>
      <trkpt lat="45.02899" lon="3.40148">
        <ele>1097</ele>
        <time>2022-03-27T10:14:07Z</time>
      </trkpt>
      <trkpt lat="45.02899" lon="3.40148">
        <ele>1097.48</ele>
        <time>2022-03-27T10:14:37Z</time>
      </trkpt>
      <trkpt lat="45.02899" lon="3.40147">
        <ele>1097.48</ele>
        <time>2022-03-27T10:15:10Z</time>
      </trkpt>
      <trkpt lat="45.029" lon="3.40147">
        <ele>1097.96</ele>
        <time>2022-03-27T10:15:47Z</time>
      </trkpt>
      <trkpt lat="45.02899" lon="3.40147">
        <ele>1097.48</ele>
        <time>2022-03-27T10:16:22Z</time>
      </trkpt>
      <trkpt lat="45.02899" lon="3.40147">
        <ele>1097.48</ele>
        <time>2022-03-27T10:16:51Z</time>
      </trkpt>
      <trkpt lat="45.02899" lon="3.40147">
        <ele>1097.48</ele>
        <time>2022-03-27T10:17:22Z</time>
      </trkpt>
      <trkpt lat="45.02899" lon="3.40146">
        <ele>1097.48</ele>
        <time>2022-03-27T10:17:48Z</time>
      </trkpt>
      <trkpt lat="45.02899" lon="3.40146">
        <ele>1097.48</ele>
        <time>2022-03-27T10:18:10Z</time>
      </trkpt>
      <trkpt lat="45.029" lon="3.40147">
        <ele>1097.96</ele>
        <time>2022-03-27T10:18:43Z</time>
      </trkpt>
      <trkpt lat="45.029" lon="3.40146">
        <ele>1097.96</ele>
        <time>2022-03-27T10:19:07Z</time>
      </trkpt>
      <trkpt lat="45.02899" lon="3.40146">
        <ele>1098.44</ele>
        <time>2022-03-27T10:19:37Z</time>
      </trkpt>
      <trkpt lat="45.02899" lon="3.40146">
        <ele>1097.96</ele>
        <time>2022-03-27T10:20:06Z</time>
      </trkpt>
      <trkpt lat="45.029" lon="3.40146">
        <ele>1098.44</ele>
        <time>2022-03-27T10:20:40Z</time>
      </trkpt>
      <trkpt lat="45.02899" lon="3.40146">
        <ele>1098.44</ele>
        <time>2022-03-27T10:21:08Z</time>
      </trkpt>
      <trkpt lat="45.02899" lon="3.40146">
        <ele>1098.92</ele>
        <time>2022-03-27T10:21:35Z</time>
      </trkpt>
      <trkpt lat="45.02898" lon="3.40147">
        <ele>1099.89</ele>
        <time>2022-03-27T10:22:06Z</time>
      </trkpt>
      <trkpt lat="45.02898" lon="3.40147">
        <ele>1100.37</ele>
        <time>2022-03-27T10:22:36Z</time>
      </trkpt>
      <trkpt lat="45.02898" lon="3.40148">
        <ele>1100.85</ele>
        <time>2022-03-27T10:23:08Z</time>
      </trkpt>
      <trkpt lat="45.02898" lon="3.40147">
        <ele>1100.85</ele>
        <time>2022-03-27T10:23:45Z</time>
      </trkpt>
      <trkpt lat="45.02898" lon="3.40148">
        <ele>1100.85</ele>
        <time>2022-03-27T10:24:19Z</time>
      </trkpt>
      <trkpt lat="45.02898" lon="3.40147">
        <ele>1100.85</ele>
        <time>2022-03-27T10:24:36Z</time>
      </trkpt>
      <trkpt lat="45.02897" lon="3.40147">
        <ele>1100.85</ele>
        <time>2022-03-27T10:25:10Z</time>
      </trkpt>
      <trkpt lat="45.02897" lon="3.40147">
        <ele>1099.89</ele>
        <time>2022-03-27T10:25:38Z</time>
      </trkpt>
      <trkpt lat="45.02897" lon="3.40147">
        <ele>1099.89</ele>
        <time>2022-03-27T10:26:09Z</time>
      </trkpt>
      <trkpt lat="45.02897" lon="3.40147">
        <ele>1099.89</ele>
        <time>2022-03-27T10:26:45Z</time>
      </trkpt>
      <trkpt lat="45.02897" lon="3.40146">
        <ele>1099.89</ele>
        <time>2022-03-27T10:27:20Z</time>
      </trkpt>
      <trkpt lat="45.02896" lon="3.40145">
        <ele>1099.89</ele>
        <time>2022-03-27T10:27:51Z</time>
      </trkpt>
      <trkpt lat="45.02896" lon="3.40145">
        <ele>1099.89</ele>
        <time>2022-03-27T10:28:21Z</time>
      </trkpt>
      <trkpt lat="45.02896" lon="3.40145">
        <ele>1099.89</ele>
        <time>2022-03-27T10:28:51Z</time>
      </trkpt>
      <trkpt lat="45.02897" lon="3.40145">
        <ele>1099.89</ele>
        <time>2022-03-27T10:29:27Z</time>
      </trkpt>
      <trkpt lat="45.02897" lon="3.40145">
        <ele>1099.89</ele>
        <time>2022-03-27T10:29:59Z</time>
      </trkpt>
      <trkpt lat="45.02897" lon="3.40145">
        <ele>1099.89</ele>
        <time>2022-03-27T10:30:36Z</time>
      </trkpt>
      <trkpt lat="45.02897" lon="3.40145">
        <ele>1100.37</ele>
        <time>2022-03-27T10:31:13Z</time>
      </trkpt>
      <trkpt lat="45.02897" lon="3.40145">
        <ele>1100.85</ele>
        <time>2022-03-27T10:31:42Z</time>
      </trkpt>
      <trkpt lat="45.02897" lon="3.40145">
        <ele>1101.33</ele>
        <time>2022-03-27T10:32:13Z</time>
      </trkpt>
      <trkpt lat="45.02897" lon="3.40145">
        <ele>1101.33</ele>
        <time>2022-03-27T10:32:43Z</time>
      </trkpt>
      <trkpt lat="45.02897" lon="3.40146">
        <ele>1102.29</ele>
        <time>2022-03-27T10:33:23Z</time>
      </trkpt>
      <trkpt lat="45.02897" lon="3.40146">
        <ele>1102.29</ele>
        <time>2022-03-27T10:33:48Z</time>
      </trkpt>
      <trkpt lat="45.02897" lon="3.40145">
        <ele>1102.77</ele>
        <time>2022-03-27T10:34:07Z</time>
      </trkpt>
      <trkpt lat="45.02897" lon="3.40145">
        <ele>1103.25</ele>
        <time>2022-03-27T10:34:34Z</time>
      </trkpt>
      <trkpt lat="45.02897" lon="3.40144">
        <ele>1102.77</ele>
        <time>2022-03-27T10:34:58Z</time>
      </trkpt>
      <trkpt lat="45.02897" lon="3.40144">
        <ele>1103.25</ele>
        <time>2022-03-27T10:35:23Z</time>
      </trkpt>
      <trkpt lat="45.02897" lon="3.40144">
        <ele>1103.25</ele>
        <time>2022-03-27T10:35:50Z</time>
      </trkpt>
      <trkpt lat="45.02897" lon="3.40144">
        <ele>1103.25</ele>
        <time>2022-03-27T10:36:16Z</time>
      </trkpt>
      <trkpt lat="45.02897" lon="3.40144">
        <ele>1103.73</ele>
        <time>2022-03-27T10:36:39Z</time>
      </trkpt>
      <trkpt lat="45.02897" lon="3.40144">
        <ele>1103.73</ele>
        <time>2022-03-27T10:37:02Z</time>
      </trkpt>
      <trkpt lat="45.02897" lon="3.40144">
        <ele>1104.21</ele>
        <time>2022-03-27T10:37:35Z</time>
      </trkpt>
      <trkpt lat="45.02898" lon="3.40144">
        <ele>1104.21</ele>
        <time>2022-03-27T10:38:11Z</time>
      </trkpt>
      <trkpt lat="45.02897" lon="3.40144">
        <ele>1104.21</ele>
        <time>2022-03-27T10:38:41Z</time>
      </trkpt>
      <trkpt lat="45.02897" lon="3.40145">
        <ele>1104.21</ele>
        <time>2022-03-27T10:39:13Z</time>
      </trkpt>
      <trkpt lat="45.02897" lon="3.40145">
        <ele>1103.73</ele>
        <time>2022-03-27T10:39:43Z</time>
      </trkpt>
      <trkpt lat="45.02898" lon="3.40145">
        <ele>1100.85</ele>
        <time>2022-03-27T10:40:00Z</time>
      </trkpt>
      <trkpt lat="45.02899" lon="3.40145">
        <ele>1098.92</ele>
        <time>2022-03-27T10:40:21Z</time>
      </trkpt>
      <trkpt lat="45.02899" lon="3.40144">
        <ele>1097.96</ele>
        <time>2022-03-27T10:40:52Z</time>
      </trkpt>
      <trkpt lat="45.02899" lon="3.40144">
        <ele>1098.44</ele>
        <time>2022-03-27T10:41:18Z</time>
      </trkpt>
      <trkpt lat="45.02897" lon="3.40143">
        <ele>1098.92</ele>
        <time>2022-03-27T10:41:36Z</time>
      </trkpt>
      <trkpt lat="45.02897" lon="3.40144">
        <ele>1098.92</ele>
        <time>2022-03-27T10:41:51Z</time>
      </trkpt>
      <trkpt lat="45.02897" lon="3.40144">
        <ele>1098.44</ele>
        <time>2022-03-27T10:42:13Z</time>
      </trkpt>
      <trkpt lat="45.02896" lon="3.40142">
        <ele>1099.4</ele>
        <time>2022-03-27T10:42:36Z</time>
      </trkpt>
      <trkpt lat="45.02896" lon="3.40142">
        <ele>1099.4</ele>
        <time>2022-03-27T10:42:53Z</time>
      </trkpt>
      <trkpt lat="45.02896" lon="3.40142">
        <ele>1099.4</ele>
        <time>2022-03-27T10:43:11Z</time>
      </trkpt>
      <trkpt lat="45.02897" lon="3.40143">
        <ele>1099.4</ele>
        <time>2022-03-27T10:43:32Z</time>
      </trkpt>
      <trkpt lat="45.02897" lon="3.40144">
        <ele>1099.89</ele>
        <time>2022-03-27T10:43:54Z</time>
      </trkpt>
      <trkpt lat="45.02897" lon="3.40144">
        <ele>1099.4</ele>
        <time>2022-03-27T10:44:16Z</time>
      </trkpt>
      <trkpt lat="45.02898" lon="3.40144">
        <ele>1100.37</ele>
        <time>2022-03-27T10:44:44Z</time>
      </trkpt>
      <trkpt lat="45.02899" lon="3.40145">
        <ele>1100.37</ele>
        <time>2022-03-27T10:45:04Z</time>
      </trkpt>
      <trkpt lat="45.02898" lon="3.40144">
        <ele>1100.37</ele>
        <time>2022-03-27T10:45:27Z</time>
      </trkpt>
      <trkpt lat="45.02896" lon="3.40144">
        <ele>1100.37</ele>
        <time>2022-03-27T10:45:43Z</time>
      </trkpt>
      <trkpt lat="45.02896" lon="3.40142">
        <ele>1101.33</ele>
        <time>2022-03-27T10:45:56Z</time>
      </trkpt>
      <trkpt lat="45.02897" lon="3.40141">
        <ele>1101.33</ele>
        <time>2022-03-27T10:46:11Z</time>
      </trkpt>
      <trkpt lat="45.02897" lon="3.40141">
        <ele>1100.85</ele>
        <time>2022-03-27T10:46:40Z</time>
      </trkpt>
      <trkpt lat="45.02897" lon="3.40142">
        <ele>1101.33</ele>
        <time>2022-03-27T10:46:55Z</time>
      </trkpt>
      <trkpt lat="45.02898" lon="3.40142">
        <ele>1100.85</ele>
        <time>2022-03-27T10:47:18Z</time>
      </trkpt>
      <trkpt lat="45.02898" lon="3.40142">
        <ele>1100.85</ele>
        <time>2022-03-27T10:47:38Z</time>
      </trkpt>
      <trkpt lat="45.02898" lon="3.40141">
        <ele>1099.4</ele>
        <time>2022-03-27T10:48:06Z</time>
      </trkpt>
      <trkpt lat="45.02898" lon="3.40141">
        <ele>1099.4</ele>
        <time>2022-03-27T10:48:26Z</time>
      </trkpt>
      <trkpt lat="45.02897" lon="3.40141">
        <ele>1099.89</ele>
        <time>2022-03-27T10:48:49Z</time>
      </trkpt>
      <trkpt lat="45.02897" lon="3.40145">
        <ele>1099.89</ele>
        <time>2022-03-27T10:49:04Z</time>
      </trkpt>
      <trkpt lat="45.02897" lon="3.40164">
        <ele>1101.81</ele>
        <time>2022-03-27T10:49:20Z</time>
      </trkpt>
      <trkpt lat="45.02901" lon="3.40174">
        <ele>1101.81</ele>
        <time>2022-03-27T10:49:32Z</time>
      </trkpt>
      <trkpt lat="45.02909" lon="3.40179">
        <ele>1103.25</ele>
        <time>2022-03-27T10:49:46Z</time>
      </trkpt>
      <trkpt lat="45.02914" lon="3.40177">
        <ele>1102.29</ele>
        <time>2022-03-27T10:49:58Z</time>
      </trkpt>
      <trkpt lat="45.02924" lon="3.40164">
        <ele>1103.73</ele>
        <time>2022-03-27T10:50:13Z</time>
      </trkpt>
      <trkpt lat="45.02936" lon="3.40149">
        <ele>1106.13</ele>
        <time>2022-03-27T10:50:28Z</time>
      </trkpt>
      <trkpt lat="45.02938" lon="3.40149">
        <ele>1107.1</ele>
        <time>2022-03-27T10:50:31Z</time>
      </trkpt>
      <trkpt lat="45.02956" lon="3.40134">
        <ele>1105.65</ele>
        <time>2022-03-27T10:50:47Z</time>
      </trkpt>
      <trkpt lat="45.02959" lon="3.40131">
        <ele>1105.17</ele>
        <time>2022-03-27T10:50:50Z</time>
      </trkpt>
      <trkpt lat="45.02973" lon="3.40117">
        <ele>1109.02</ele>
        <time>2022-03-27T10:51:04Z</time>
      </trkpt>
      <trkpt lat="45.02976" lon="3.40112">
        <ele>1109.5</ele>
        <time>2022-03-27T10:51:08Z</time>
      </trkpt>
      <trkpt lat="45.02988" lon="3.40092">
        <ele>1111.42</ele>
        <time>2022-03-27T10:51:25Z</time>
      </trkpt>
      <trkpt lat="45.02994" lon="3.40081">
        <ele>1112.38</ele>
        <time>2022-03-27T10:51:34Z</time>
      </trkpt>
      <trkpt lat="45.02994" lon="3.40061">
        <ele>1124.4</ele>
        <time>2022-03-27T10:51:49Z</time>
      </trkpt>
      <trkpt lat="45.0299" lon="3.40042">
        <ele>1136.42</ele>
        <time>2022-03-27T10:52:07Z</time>
      </trkpt>
      <trkpt lat="45.02992" lon="3.40039">
        <ele>1135.45</ele>
        <time>2022-03-27T10:52:11Z</time>
      </trkpt>
      <trkpt lat="45.02996" lon="3.40026">
        <ele>1124.4</ele>
        <time>2022-03-27T10:52:22Z</time>
      </trkpt>
      <trkpt lat="45.02997" lon="3.40021">
        <ele>1116.23</ele>
        <time>2022-03-27T10:52:33Z</time>
      </trkpt>
      <trkpt lat="45.02997" lon="3.40013">
        <ele>1111.9</ele>
        <time>2022-03-27T10:52:44Z</time>
      </trkpt>
      <trkpt lat="45.03" lon="3.40008">
        <ele>1108.54</ele>
        <time>2022-03-27T10:52:56Z</time>
      </trkpt>
      <trkpt lat="45.02998" lon="3.4001">
        <ele>1105.17</ele>
        <time>2022-03-27T10:53:09Z</time>
      </trkpt>
      <trkpt lat="45.02996" lon="3.40004">
        <ele>1104.21</ele>
        <time>2022-03-27T10:53:20Z</time>
      </trkpt>
      <trkpt lat="45.02997" lon="3.40005">
        <ele>1103.73</ele>
        <time>2022-03-27T10:53:29Z</time>
      </trkpt>
      <trkpt lat="45.03006" lon="3.39993">
        <ele>1106.61</ele>
        <time>2022-03-27T10:53:45Z</time>
      </trkpt>
      <trkpt lat="45.03011" lon="3.3998">
        <ele>1109.5</ele>
        <time>2022-03-27T10:53:59Z</time>
      </trkpt>
      <trkpt lat="45.03013" lon="3.39978">
        <ele>1109.98</ele>
        <time>2022-03-27T10:54:01Z</time>
      </trkpt>
      <trkpt lat="45.03015" lon="3.39973">
        <ele>1109.98</ele>
        <time>2022-03-27T10:54:04Z</time>
      </trkpt>
      <trkpt lat="45.03018" lon="3.39967">
        <ele>1110.46</ele>
        <time>2022-03-27T10:54:10Z</time>
      </trkpt>
      <trkpt lat="45.03033" lon="3.39948">
        <ele>1110.46</ele>
        <time>2022-03-27T10:54:28Z</time>
      </trkpt>
      <trkpt lat="45.03041" lon="3.3994">
        <ele>1109.02</ele>
        <time>2022-03-27T10:54:42Z</time>
      </trkpt>
      <trkpt lat="45.03048" lon="3.39933">
        <ele>1108.06</ele>
        <time>2022-03-27T10:54:55Z</time>
      </trkpt>
      <trkpt lat="45.03065" lon="3.39925">
        <ele>1109.02</ele>
        <time>2022-03-27T10:55:11Z</time>
      </trkpt>
      <trkpt lat="45.0308" lon="3.39927">
        <ele>1110.94</ele>
        <time>2022-03-27T10:55:25Z</time>
      </trkpt>
      <trkpt lat="45.03094" lon="3.39928">
        <ele>1112.86</ele>
        <time>2022-03-27T10:55:40Z</time>
      </trkpt>
      <trkpt lat="45.0311" lon="3.3993">
        <ele>1114.31</ele>
        <time>2022-03-27T10:55:56Z</time>
      </trkpt>
      <trkpt lat="45.03115" lon="3.39928">
        <ele>1113.82</ele>
        <time>2022-03-27T10:56:09Z</time>
      </trkpt>
      <trkpt lat="45.03133" lon="3.39928">
        <ele>1115.27</ele>
        <time>2022-03-27T10:56:25Z</time>
      </trkpt>
      <trkpt lat="45.03147" lon="3.39929">
        <ele>1117.19</ele>
        <time>2022-03-27T10:56:41Z</time>
      </trkpt>
      <trkpt lat="45.03157" lon="3.39929">
        <ele>1118.63</ele>
        <time>2022-03-27T10:56:53Z</time>
      </trkpt>
      <trkpt lat="45.03173" lon="3.39929">
        <ele>1121.03</ele>
        <time>2022-03-27T10:57:08Z</time>
      </trkpt>
      <trkpt lat="45.0319" lon="3.3993">
        <ele>1122.48</ele>
        <time>2022-03-27T10:57:24Z</time>
      </trkpt>
      <trkpt lat="45.03202" lon="3.3993">
        <ele>1123.92</ele>
        <time>2022-03-27T10:57:36Z</time>
      </trkpt>
      <trkpt lat="45.0321" lon="3.39931">
        <ele>1124.4</ele>
        <time>2022-03-27T10:57:45Z</time>
      </trkpt>
      <trkpt lat="45.03228" lon="3.39934">
        <ele>1125.36</ele>
        <time>2022-03-27T10:58:01Z</time>
      </trkpt>
      <trkpt lat="45.03246" lon="3.3994">
        <ele>1125.84</ele>
        <time>2022-03-27T10:58:18Z</time>
      </trkpt>
      <trkpt lat="45.03265" lon="3.39949">
        <ele>1125.84</ele>
        <time>2022-03-27T10:58:35Z</time>
      </trkpt>
      <trkpt lat="45.03285" lon="3.39963">
        <ele>1124.88</ele>
        <time>2022-03-27T10:58:54Z</time>
      </trkpt>
      <trkpt lat="45.03304" lon="3.39975">
        <ele>1123.92</ele>
        <time>2022-03-27T10:59:12Z</time>
      </trkpt>
      <trkpt lat="45.03321" lon="3.39986">
        <ele>1123.92</ele>
        <time>2022-03-27T10:59:30Z</time>
      </trkpt>
      <trkpt lat="45.0334" lon="3.39992">
        <ele>1123.92</ele>
        <time>2022-03-27T10:59:46Z</time>
      </trkpt>
      <trkpt lat="45.03359" lon="3.39997">
        <ele>1123.44</ele>
        <time>2022-03-27T11:00:02Z</time>
      </trkpt>
      <trkpt lat="45.03372" lon="3.4">
        <ele>1123.44</ele>
        <time>2022-03-27T11:00:13Z</time>
      </trkpt>
      <trkpt lat="45.03376" lon="3.4">
        <ele>1123.92</ele>
        <time>2022-03-27T11:00:17Z</time>
      </trkpt>
      <trkpt lat="45.03398" lon="3.39999">
        <ele>1125.36</ele>
        <time>2022-03-27T11:00:36Z</time>
      </trkpt>
      <trkpt lat="45.03413" lon="3.39996">
        <ele>1126.32</ele>
        <time>2022-03-27T11:00:50Z</time>
      </trkpt>
      <trkpt lat="45.0342" lon="3.39995">
        <ele>1127.28</ele>
        <time>2022-03-27T11:00:57Z</time>
      </trkpt>
      <trkpt lat="45.03437" lon="3.3999">
        <ele>1126.8</ele>
        <time>2022-03-27T11:01:13Z</time>
      </trkpt>
      <trkpt lat="45.0344" lon="3.39989">
        <ele>1126.8</ele>
        <time>2022-03-27T11:01:16Z</time>
      </trkpt>
      <trkpt lat="45.03457" lon="3.39986">
        <ele>1127.28</ele>
        <time>2022-03-27T11:01:32Z</time>
      </trkpt>
      <trkpt lat="45.03473" lon="3.39984">
        <ele>1129.69</ele>
        <time>2022-03-27T11:01:47Z</time>
      </trkpt>
      <trkpt lat="45.03481" lon="3.39991">
        <ele>1131.13</ele>
        <time>2022-03-27T11:01:57Z</time>
      </trkpt>
      <trkpt lat="45.03485" lon="3.40007">
        <ele>1134.97</ele>
        <time>2022-03-27T11:02:12Z</time>
      </trkpt>
      <trkpt lat="45.03487" lon="3.40021">
        <ele>1135.45</ele>
        <time>2022-03-27T11:02:22Z</time>
      </trkpt>
      <trkpt lat="45.03489" lon="3.4004">
        <ele>1136.9</ele>
        <time>2022-03-27T11:02:37Z</time>
      </trkpt>
      <trkpt lat="45.03491" lon="3.40062">
        <ele>1142.18</ele>
        <time>2022-03-27T11:02:52Z</time>
      </trkpt>
      <trkpt lat="45.0349" lon="3.4008">
        <ele>1142.66</ele>
        <time>2022-03-27T11:03:06Z</time>
      </trkpt>
      <trkpt lat="45.03493" lon="3.40097">
        <ele>1143.63</ele>
        <time>2022-03-27T11:03:17Z</time>
      </trkpt>
      <trkpt lat="45.03494" lon="3.40108">
        <ele>1148.43</ele>
        <time>2022-03-27T11:03:28Z</time>
      </trkpt>
      <trkpt lat="45.03493" lon="3.40121">
        <ele>1152.28</ele>
        <time>2022-03-27T11:03:40Z</time>
      </trkpt>
      <trkpt lat="45.03496" lon="3.40144">
        <ele>1154.2</ele>
        <time>2022-03-27T11:03:53Z</time>
      </trkpt>
      <trkpt lat="45.03497" lon="3.40154">
        <ele>1154.2</ele>
        <time>2022-03-27T11:03:58Z</time>
      </trkpt>
      <trkpt lat="45.03498" lon="3.40178">
        <ele>1155.64</ele>
        <time>2022-03-27T11:04:13Z</time>
      </trkpt>
      <trkpt lat="45.03496" lon="3.40196">
        <ele>1157.56</ele>
        <time>2022-03-27T11:04:26Z</time>
      </trkpt>
      <trkpt lat="45.03496" lon="3.40208">
        <ele>1157.08</ele>
        <time>2022-03-27T11:04:38Z</time>
      </trkpt>
      <trkpt lat="45.03497" lon="3.40224">
        <ele>1159.97</ele>
        <time>2022-03-27T11:04:51Z</time>
      </trkpt>
      <trkpt lat="45.03496" lon="3.40228">
        <ele>1159.49</ele>
        <time>2022-03-27T11:04:53Z</time>
      </trkpt>
      <trkpt lat="45.03496" lon="3.40243">
        <ele>1158.05</ele>
        <time>2022-03-27T11:05:01Z</time>
      </trkpt>
      <trkpt lat="45.03498" lon="3.40263">
        <ele>1158.05</ele>
        <time>2022-03-27T11:05:15Z</time>
      </trkpt>
      <trkpt lat="45.035" lon="3.40274">
        <ele>1157.08</ele>
        <time>2022-03-27T11:05:27Z</time>
      </trkpt>
      <trkpt lat="45.03502" lon="3.40289">
        <ele>1157.56</ele>
        <time>2022-03-27T11:05:40Z</time>
      </trkpt>
      <trkpt lat="45.03505" lon="3.40303">
        <ele>1160.45</ele>
        <time>2022-03-27T11:05:53Z</time>
      </trkpt>
      <trkpt lat="45.03512" lon="3.40325">
        <ele>1159.49</ele>
        <time>2022-03-27T11:06:07Z</time>
      </trkpt>
      <trkpt lat="45.03518" lon="3.40337">
        <ele>1158.05</ele>
        <time>2022-03-27T11:06:20Z</time>
      </trkpt>
      <trkpt lat="45.0352" lon="3.40346">
        <ele>1159.49</ele>
        <time>2022-03-27T11:06:33Z</time>
      </trkpt>
      <trkpt lat="45.03525" lon="3.40356">
        <ele>1160.93</ele>
        <time>2022-03-27T11:06:46Z</time>
      </trkpt>
      <trkpt lat="45.03532" lon="3.40381">
        <ele>1159.49</ele>
        <time>2022-03-27T11:06:58Z</time>
      </trkpt>
      <trkpt lat="45.03541" lon="3.40403">
        <ele>1154.2</ele>
        <time>2022-03-27T11:07:12Z</time>
      </trkpt>
      <trkpt lat="45.03545" lon="3.40425">
        <ele>1149.39</ele>
        <time>2022-03-27T11:07:25Z</time>
      </trkpt>
      <trkpt lat="45.03547" lon="3.40449">
        <ele>1144.59</ele>
        <time>2022-03-27T11:07:39Z</time>
      </trkpt>
      <trkpt lat="45.03552" lon="3.40474">
        <ele>1142.66</ele>
        <time>2022-03-27T11:07:53Z</time>
      </trkpt>
      <trkpt lat="45.03557" lon="3.40498">
        <ele>1146.03</ele>
        <time>2022-03-27T11:08:05Z</time>
      </trkpt>
      <trkpt lat="45.03559" lon="3.40511">
        <ele>1148.91</ele>
        <time>2022-03-27T11:08:14Z</time>
      </trkpt>
      <trkpt lat="45.03566" lon="3.40535">
        <ele>1149.87</ele>
        <time>2022-03-27T11:08:28Z</time>
      </trkpt>
      <trkpt lat="45.03568" lon="3.40541">
        <ele>1149.39</ele>
        <time>2022-03-27T11:08:32Z</time>
      </trkpt>
      <trkpt lat="45.03573" lon="3.40558">
        <ele>1150.35</ele>
        <time>2022-03-27T11:08:46Z</time>
      </trkpt>
      <trkpt lat="45.0358" lon="3.40578">
        <ele>1150.84</ele>
        <time>2022-03-27T11:09:00Z</time>
      </trkpt>
      <trkpt lat="45.03589" lon="3.40596">
        <ele>1151.32</ele>
        <time>2022-03-27T11:09:13Z</time>
      </trkpt>
      <trkpt lat="45.03599" lon="3.40626">
        <ele>1151.32</ele>
        <time>2022-03-27T11:09:27Z</time>
      </trkpt>
      <trkpt lat="45.03604" lon="3.4064">
        <ele>1156.12</ele>
        <time>2022-03-27T11:09:40Z</time>
      </trkpt>
      <trkpt lat="45.03608" lon="3.40658">
        <ele>1159.49</ele>
        <time>2022-03-27T11:09:52Z</time>
      </trkpt>
      <trkpt lat="45.03616" lon="3.40684">
        <ele>1162.85</ele>
        <time>2022-03-27T11:10:07Z</time>
      </trkpt>
      <trkpt lat="45.03619" lon="3.40693">
        <ele>1163.33</ele>
        <time>2022-03-27T11:10:18Z</time>
      </trkpt>
      <trkpt lat="45.03626" lon="3.40708">
        <ele>1163.33</ele>
        <time>2022-03-27T11:10:29Z</time>
      </trkpt>
      <trkpt lat="45.03641" lon="3.40729">
        <ele>1163.33</ele>
        <time>2022-03-27T11:10:42Z</time>
      </trkpt>
      <trkpt lat="45.03651" lon="3.4075">
        <ele>1159.97</ele>
        <time>2022-03-27T11:10:56Z</time>
      </trkpt>
      <trkpt lat="45.03663" lon="3.40763">
        <ele>1159.01</ele>
        <time>2022-03-27T11:11:12Z</time>
      </trkpt>
      <trkpt lat="45.03669" lon="3.40778">
        <ele>1158.05</ele>
        <time>2022-03-27T11:11:21Z</time>
      </trkpt>
      <trkpt lat="45.03683" lon="3.40802">
        <ele>1158.05</ele>
        <time>2022-03-27T11:11:38Z</time>
      </trkpt>
      <trkpt lat="45.03693" lon="3.4082">
        <ele>1158.05</ele>
        <time>2022-03-27T11:11:52Z</time>
      </trkpt>
      <trkpt lat="45.03703" lon="3.40839">
        <ele>1156.12</ele>
        <time>2022-03-27T11:12:06Z</time>
      </trkpt>
      <trkpt lat="45.03698" lon="3.40855">
        <ele>1151.32</ele>
        <time>2022-03-27T11:12:16Z</time>
      </trkpt>
      <trkpt lat="45.03689" lon="3.40864">
        <ele>1143.14</ele>
        <time>2022-03-27T11:12:30Z</time>
      </trkpt>
      <trkpt lat="45.03669" lon="3.40869">
        <ele>1138.34</ele>
        <time>2022-03-27T11:12:45Z</time>
      </trkpt>
      <trkpt lat="45.03654" lon="3.40872">
        <ele>1136.9</ele>
        <time>2022-03-27T11:12:59Z</time>
      </trkpt>
      <trkpt lat="45.03651" lon="3.40871">
        <ele>1137.38</ele>
        <time>2022-03-27T11:13:01Z</time>
      </trkpt>
      <trkpt lat="45.03629" lon="3.40874">
        <ele>1135.94</ele>
        <time>2022-03-27T11:13:17Z</time>
      </trkpt>
      <trkpt lat="45.03617" lon="3.40879">
        <ele>1135.45</ele>
        <time>2022-03-27T11:13:30Z</time>
      </trkpt>
      <trkpt lat="45.03602" lon="3.40886">
        <ele>1137.38</ele>
        <time>2022-03-27T11:13:44Z</time>
      </trkpt>
      <trkpt lat="45.03582" lon="3.409">
        <ele>1134.97</ele>
        <time>2022-03-27T11:13:59Z</time>
      </trkpt>
      <trkpt lat="45.03572" lon="3.4091">
        <ele>1133.05</ele>
        <time>2022-03-27T11:14:11Z</time>
      </trkpt>
      <trkpt lat="45.03554" lon="3.40923">
        <ele>1132.09</ele>
        <time>2022-03-27T11:14:27Z</time>
      </trkpt>
      <trkpt lat="45.03538" lon="3.40935">
        <ele>1131.61</ele>
        <time>2022-03-27T11:14:41Z</time>
      </trkpt>
      <trkpt lat="45.03518" lon="3.40947">
        <ele>1131.61</ele>
        <time>2022-03-27T11:14:57Z</time>
      </trkpt>
      <trkpt lat="45.035" lon="3.4096">
        <ele>1130.65</ele>
        <time>2022-03-27T11:15:13Z</time>
      </trkpt>
      <trkpt lat="45.03487" lon="3.40971">
        <ele>1128.73</ele>
        <time>2022-03-27T11:15:29Z</time>
      </trkpt>
      <trkpt lat="45.03485" lon="3.40972">
        <ele>1128.73</ele>
        <time>2022-03-27T11:15:31Z</time>
      </trkpt>
      <trkpt lat="45.03478" lon="3.40978">
        <ele>1127.76</ele>
        <time>2022-03-27T11:15:40Z</time>
      </trkpt>
      <trkpt lat="45.03475" lon="3.40982">
        <ele>1127.76</ele>
        <time>2022-03-27T11:15:47Z</time>
      </trkpt>
      <trkpt lat="45.03465" lon="3.40994">
        <ele>1128.24</ele>
        <time>2022-03-27T11:16:01Z</time>
      </trkpt>
      <trkpt lat="45.0346" lon="3.40999">
        <ele>1129.69</ele>
        <time>2022-03-27T11:16:07Z</time>
      </trkpt>
      <trkpt lat="45.03458" lon="3.41001">
        <ele>1130.17</ele>
        <time>2022-03-27T11:16:09Z</time>
      </trkpt>
      <trkpt lat="45.03447" lon="3.41022">
        <ele>1133.53</ele>
        <time>2022-03-27T11:16:25Z</time>
      </trkpt>
      <trkpt lat="45.03437" lon="3.41048">
        <ele>1129.69</ele>
        <time>2022-03-27T11:16:42Z</time>
      </trkpt>
      <trkpt lat="45.03434" lon="3.41058">
        <ele>1130.65</ele>
        <time>2022-03-27T11:16:50Z</time>
      </trkpt>
      <trkpt lat="45.03427" lon="3.41077">
        <ele>1133.05</ele>
        <time>2022-03-27T11:17:04Z</time>
      </trkpt>
      <trkpt lat="45.03422" lon="3.41096">
        <ele>1134.01</ele>
        <time>2022-03-27T11:17:17Z</time>
      </trkpt>
      <trkpt lat="45.03419" lon="3.41112">
        <ele>1135.45</ele>
        <time>2022-03-27T11:17:26Z</time>
      </trkpt>
      <trkpt lat="45.03414" lon="3.41137">
        <ele>1139.3</ele>
        <time>2022-03-27T11:17:42Z</time>
      </trkpt>
      <trkpt lat="45.03414" lon="3.41138">
        <ele>1139.3</ele>
        <time>2022-03-27T11:17:43Z</time>
      </trkpt>
      <trkpt lat="45.03407" lon="3.41152">
        <ele>1145.55</ele>
        <time>2022-03-27T11:17:57Z</time>
      </trkpt>
      <trkpt lat="45.03396" lon="3.41176">
        <ele>1146.99</ele>
        <time>2022-03-27T11:18:13Z</time>
      </trkpt>
      <trkpt lat="45.03387" lon="3.41204">
        <ele>1146.99</ele>
        <time>2022-03-27T11:18:30Z</time>
      </trkpt>
      <trkpt lat="45.03383" lon="3.41228">
        <ele>1148.43</ele>
        <time>2022-03-27T11:18:44Z</time>
      </trkpt>
      <trkpt lat="45.03378" lon="3.41252">
        <ele>1151.32</ele>
        <time>2022-03-27T11:18:59Z</time>
      </trkpt>
      <trkpt lat="45.03378" lon="3.41267">
        <ele>1149.87</ele>
        <time>2022-03-27T11:19:04Z</time>
      </trkpt>
      <trkpt lat="45.03376" lon="3.4127">
        <ele>1149.39</ele>
        <time>2022-03-27T11:19:06Z</time>
      </trkpt>
      <trkpt lat="45.03372" lon="3.41295">
        <ele>1146.51</ele>
        <time>2022-03-27T11:19:20Z</time>
      </trkpt>
      <trkpt lat="45.03371" lon="3.41316">
        <ele>1149.39</ele>
        <time>2022-03-27T11:19:34Z</time>
      </trkpt>
      <trkpt lat="45.03366" lon="3.41343">
        <ele>1146.51</ele>
        <time>2022-03-27T11:19:48Z</time>
      </trkpt>
      <trkpt lat="45.03363" lon="3.41367">
        <ele>1140.26</ele>
        <time>2022-03-27T11:20:01Z</time>
      </trkpt>
      <trkpt lat="45.03362" lon="3.41392">
        <ele>1141.22</ele>
        <time>2022-03-27T11:20:14Z</time>
      </trkpt>
      <trkpt lat="45.03357" lon="3.41419">
        <ele>1140.74</ele>
        <time>2022-03-27T11:20:29Z</time>
      </trkpt>
      <trkpt lat="45.0335" lon="3.41442">
        <ele>1141.22</ele>
        <time>2022-03-27T11:20:45Z</time>
      </trkpt>
      <trkpt lat="45.03342" lon="3.41458">
        <ele>1143.14</ele>
        <time>2022-03-27T11:20:57Z</time>
      </trkpt>
      <trkpt lat="45.03336" lon="3.41476">
        <ele>1143.63</ele>
        <time>2022-03-27T11:21:08Z</time>
      </trkpt>
      <trkpt lat="45.03326" lon="3.41492">
        <ele>1144.59</ele>
        <time>2022-03-27T11:21:22Z</time>
      </trkpt>
      <trkpt lat="45.03323" lon="3.41501">
        <ele>1145.07</ele>
        <time>2022-03-27T11:21:27Z</time>
      </trkpt>
      <trkpt lat="45.03313" lon="3.4152">
        <ele>1146.51</ele>
        <time>2022-03-27T11:21:42Z</time>
      </trkpt>
      <trkpt lat="45.03304" lon="3.41543">
        <ele>1146.99</ele>
        <time>2022-03-27T11:21:58Z</time>
      </trkpt>
      <trkpt lat="45.03295" lon="3.41561">
        <ele>1148.91</ele>
        <time>2022-03-27T11:22:12Z</time>
      </trkpt>
      <trkpt lat="45.03289" lon="3.41578">
        <ele>1150.84</ele>
        <time>2022-03-27T11:22:23Z</time>
      </trkpt>
      <trkpt lat="45.03277" lon="3.41596">
        <ele>1147.47</ele>
        <time>2022-03-27T11:22:37Z</time>
      </trkpt>
      <trkpt lat="45.03261" lon="3.41625">
        <ele>1137.38</ele>
        <time>2022-03-27T11:22:54Z</time>
      </trkpt>
      <trkpt lat="45.03247" lon="3.41644">
        <ele>1130.17</ele>
        <time>2022-03-27T11:23:10Z</time>
      </trkpt>
      <trkpt lat="45.03229" lon="3.41662">
        <ele>1129.69</ele>
        <time>2022-03-27T11:23:29Z</time>
      </trkpt>
      <trkpt lat="45.03215" lon="3.41676">
        <ele>1128.73</ele>
        <time>2022-03-27T11:23:43Z</time>
      </trkpt>
      <trkpt lat="45.03195" lon="3.41692">
        <ele>1122.96</ele>
        <time>2022-03-27T11:24:00Z</time>
      </trkpt>
      <trkpt lat="45.03179" lon="3.41707">
        <ele>1121.52</ele>
        <time>2022-03-27T11:24:16Z</time>
      </trkpt>
      <trkpt lat="45.03161" lon="3.41722">
        <ele>1120.55</ele>
        <time>2022-03-27T11:24:35Z</time>
      </trkpt>
      <trkpt lat="45.03146" lon="3.41732">
        <ele>1119.59</ele>
        <time>2022-03-27T11:24:49Z</time>
      </trkpt>
      <trkpt lat="45.03128" lon="3.41738">
        <ele>1118.15</ele>
        <time>2022-03-27T11:25:02Z</time>
      </trkpt>
      <trkpt lat="45.03113" lon="3.41744">
        <ele>1117.19</ele>
        <time>2022-03-27T11:25:17Z</time>
      </trkpt>
      <trkpt lat="45.03116" lon="3.41742">
        <ele>1118.15</ele>
        <time>2022-03-27T11:25:30Z</time>
      </trkpt>
      <trkpt lat="45.03124" lon="3.4174">
        <ele>1120.07</ele>
        <time>2022-03-27T11:25:39Z</time>
      </trkpt>
      <trkpt lat="45.0314" lon="3.41733">
        <ele>1124.4</ele>
        <time>2022-03-27T11:25:55Z</time>
      </trkpt>
      <trkpt lat="45.03154" lon="3.41726">
        <ele>1128.73</ele>
        <time>2022-03-27T11:26:09Z</time>
      </trkpt>
      <trkpt lat="45.03158" lon="3.41723">
        <ele>1129.69</ele>
        <time>2022-03-27T11:26:20Z</time>
      </trkpt>
      <trkpt lat="45.03164" lon="3.41717">
        <ele>1130.17</ele>
        <time>2022-03-27T11:26:27Z</time>
      </trkpt>
      <trkpt lat="45.03168" lon="3.41714">
        <ele>1129.21</ele>
        <time>2022-03-27T11:26:30Z</time>
      </trkpt>
      <trkpt lat="45.03184" lon="3.4172">
        <ele>1130.17</ele>
        <time>2022-03-27T11:26:44Z</time>
      </trkpt>
      <trkpt lat="45.03187" lon="3.41722">
        <ele>1130.17</ele>
        <time>2022-03-27T11:26:48Z</time>
      </trkpt>
      <trkpt lat="45.03183" lon="3.41754">
        <ele>1119.11</ele>
        <time>2022-03-27T11:27:05Z</time>
      </trkpt>
      <trkpt lat="45.03171" lon="3.41775">
        <ele>1113.82</ele>
        <time>2022-03-27T11:27:20Z</time>
      </trkpt>
      <trkpt lat="45.03158" lon="3.41795">
        <ele>1114.79</ele>
        <time>2022-03-27T11:27:36Z</time>
      </trkpt>
      <trkpt lat="45.03147" lon="3.41815">
        <ele>1112.86</ele>
        <time>2022-03-27T11:27:50Z</time>
      </trkpt>
      <trkpt lat="45.0314" lon="3.41842">
        <ele>1111.9</ele>
        <time>2022-03-27T11:28:08Z</time>
      </trkpt>
      <trkpt lat="45.03133" lon="3.41869">
        <ele>1110.94</ele>
        <time>2022-03-27T11:28:25Z</time>
      </trkpt>
      <trkpt lat="45.03127" lon="3.419">
        <ele>1111.9</ele>
        <time>2022-03-27T11:28:43Z</time>
      </trkpt>
      <trkpt lat="45.0312" lon="3.41926">
        <ele>1111.42</ele>
        <time>2022-03-27T11:28:59Z</time>
      </trkpt>
      <trkpt lat="45.03113" lon="3.41959">
        <ele>1111.42</ele>
        <time>2022-03-27T11:29:19Z</time>
      </trkpt>
      <trkpt lat="45.03105" lon="3.41988">
        <ele>1110.94</ele>
        <time>2022-03-27T11:29:36Z</time>
      </trkpt>
      <trkpt lat="45.03102" lon="3.41997">
        <ele>1110.94</ele>
        <time>2022-03-27T11:29:42Z</time>
      </trkpt>
      <trkpt lat="45.03101" lon="3.41998">
        <ele>1110.94</ele>
        <time>2022-03-27T11:29:44Z</time>
      </trkpt>
      <trkpt lat="45.031" lon="3.42006">
        <ele>1111.42</ele>
        <time>2022-03-27T11:29:49Z</time>
      </trkpt>
      <trkpt lat="45.03093" lon="3.42036">
        <ele>1112.86</ele>
        <time>2022-03-27T11:30:08Z</time>
      </trkpt>
      <trkpt lat="45.03089" lon="3.42065">
        <ele>1112.38</ele>
        <time>2022-03-27T11:30:26Z</time>
      </trkpt>
      <trkpt lat="45.03087" lon="3.42092">
        <ele>1111.9</ele>
        <time>2022-03-27T11:30:42Z</time>
      </trkpt>
      <trkpt lat="45.03087" lon="3.42125">
        <ele>1111.9</ele>
        <time>2022-03-27T11:31:01Z</time>
      </trkpt>
      <trkpt lat="45.03082" lon="3.4216">
        <ele>1109.98</ele>
        <time>2022-03-27T11:31:22Z</time>
      </trkpt>
      <trkpt lat="45.03071" lon="3.42191">
        <ele>1109.02</ele>
        <time>2022-03-27T11:31:42Z</time>
      </trkpt>
      <trkpt lat="45.03062" lon="3.42219">
        <ele>1109.02</ele>
        <time>2022-03-27T11:32:00Z</time>
      </trkpt>
      <trkpt lat="45.03054" lon="3.4225">
        <ele>1109.02</ele>
        <time>2022-03-27T11:32:19Z</time>
      </trkpt>
      <trkpt lat="45.03048" lon="3.42274">
        <ele>1107.58</ele>
        <time>2022-03-27T11:32:34Z</time>
      </trkpt>
      <trkpt lat="45.03044" lon="3.423">
        <ele>1104.21</ele>
        <time>2022-03-27T11:32:50Z</time>
      </trkpt>
      <trkpt lat="45.0304" lon="3.4233">
        <ele>1102.77</ele>
        <time>2022-03-27T11:33:07Z</time>
      </trkpt>
      <trkpt lat="45.03038" lon="3.42343">
        <ele>1102.29</ele>
        <time>2022-03-27T11:33:15Z</time>
      </trkpt>
      <trkpt lat="45.03037" lon="3.4235">
        <ele>1102.29</ele>
        <time>2022-03-27T11:33:19Z</time>
      </trkpt>
      <trkpt lat="45.03034" lon="3.42385">
        <ele>1100.37</ele>
        <time>2022-03-27T11:33:39Z</time>
      </trkpt>
      <trkpt lat="45.03033" lon="3.42393">
        <ele>1099.89</ele>
        <time>2022-03-27T11:33:44Z</time>
      </trkpt>
      <trkpt lat="45.03032" lon="3.42402">
        <ele>1099.4</ele>
        <time>2022-03-27T11:33:49Z</time>
      </trkpt>
      <trkpt lat="45.0303" lon="3.42425">
        <ele>1098.92</ele>
        <time>2022-03-27T11:34:03Z</time>
      </trkpt>
      <trkpt lat="45.03029" lon="3.42451">
        <ele>1097.96</ele>
        <time>2022-03-27T11:34:18Z</time>
      </trkpt>
      <trkpt lat="45.03028" lon="3.42455">
        <ele>1097.96</ele>
        <time>2022-03-27T11:34:21Z</time>
      </trkpt>
      <trkpt lat="45.03028" lon="3.42458">
        <ele>1097.96</ele>
        <time>2022-03-27T11:34:23Z</time>
      </trkpt>
      <trkpt lat="45.03027" lon="3.42463">
        <ele>1097.48</ele>
        <time>2022-03-27T11:34:27Z</time>
      </trkpt>
      <trkpt lat="45.03026" lon="3.42475">
        <ele>1096.52</ele>
        <time>2022-03-27T11:34:40Z</time>
      </trkpt>
      <trkpt lat="45.03027" lon="3.42476">
        <ele>1096.52</ele>
        <time>2022-03-27T11:34:41Z</time>
      </trkpt>
      <trkpt lat="45.03027" lon="3.42502">
        <ele>1093.64</ele>
        <time>2022-03-27T11:34:58Z</time>
      </trkpt>
      <trkpt lat="45.03028" lon="3.42502">
        <ele>1093.16</ele>
        <time>2022-03-27T11:34:59Z</time>
      </trkpt>
      <trkpt lat="45.03032" lon="3.42497">
        <ele>1093.16</ele>
        <time>2022-03-27T11:35:03Z</time>
      </trkpt>
      <trkpt lat="45.03043" lon="3.42477">
        <ele>1094.6</ele>
        <time>2022-03-27T11:35:20Z</time>
      </trkpt>
      <trkpt lat="45.03048" lon="3.42468">
        <ele>1095.08</ele>
        <time>2022-03-27T11:35:31Z</time>
      </trkpt>
      <trkpt lat="45.03049" lon="3.42467">
        <ele>1095.08</ele>
        <time>2022-03-27T11:35:32Z</time>
      </trkpt>
      <trkpt lat="45.03054" lon="3.42459">
        <ele>1096.04</ele>
        <time>2022-03-27T11:35:38Z</time>
      </trkpt>
      <trkpt lat="45.0307" lon="3.42439">
        <ele>1096.04</ele>
        <time>2022-03-27T11:35:55Z</time>
      </trkpt>
      <trkpt lat="45.03085" lon="3.42418">
        <ele>1096.04</ele>
        <time>2022-03-27T11:36:12Z</time>
      </trkpt>
      <trkpt lat="45.03096" lon="3.42403">
        <ele>1096.52</ele>
        <time>2022-03-27T11:36:27Z</time>
      </trkpt>
      <trkpt lat="45.03097" lon="3.424">
        <ele>1096.52</ele>
        <time>2022-03-27T11:36:38Z</time>
      </trkpt>
      <trkpt lat="45.031" lon="3.42394">
        <ele>1097</ele>
        <time>2022-03-27T11:36:54Z</time>
      </trkpt>
      <trkpt lat="45.03101" lon="3.42394">
        <ele>1096.52</ele>
        <time>2022-03-27T11:37:06Z</time>
      </trkpt>
      <trkpt lat="45.03101" lon="3.42394">
        <ele>1096.52</ele>
        <time>2022-03-27T11:37:26Z</time>
      </trkpt>
      <trkpt lat="45.03112" lon="3.42375">
        <ele>1097</ele>
        <time>2022-03-27T11:37:41Z</time>
      </trkpt>
      <trkpt lat="45.03126" lon="3.42349">
        <ele>1096.04</ele>
        <time>2022-03-27T11:37:59Z</time>
      </trkpt>
      <trkpt lat="45.03138" lon="3.42325">
        <ele>1097.48</ele>
        <time>2022-03-27T11:38:16Z</time>
      </trkpt>
      <trkpt lat="45.03151" lon="3.42302">
        <ele>1097.96</ele>
        <time>2022-03-27T11:38:33Z</time>
      </trkpt>
      <trkpt lat="45.03163" lon="3.42279">
        <ele>1098.44</ele>
        <time>2022-03-27T11:38:49Z</time>
      </trkpt>
      <trkpt lat="45.03163" lon="3.42277">
        <ele>1098.44</ele>
        <time>2022-03-27T11:38:50Z</time>
      </trkpt>
      <trkpt lat="45.03173" lon="3.42257">
        <ele>1098.44</ele>
        <time>2022-03-27T11:39:05Z</time>
      </trkpt>
      <trkpt lat="45.03177" lon="3.42248">
        <ele>1098.44</ele>
        <time>2022-03-27T11:39:12Z</time>
      </trkpt>
      <trkpt lat="45.03191" lon="3.42224">
        <ele>1098.44</ele>
        <time>2022-03-27T11:39:29Z</time>
      </trkpt>
      <trkpt lat="45.03202" lon="3.42209">
        <ele>1098.44</ele>
        <time>2022-03-27T11:39:42Z</time>
      </trkpt>
      <trkpt lat="45.03216" lon="3.42192">
        <ele>1098.44</ele>
        <time>2022-03-27T11:39:58Z</time>
      </trkpt>
      <trkpt lat="45.03217" lon="3.42191">
        <ele>1098.92</ele>
        <time>2022-03-27T11:39:59Z</time>
      </trkpt>
      <trkpt lat="45.03232" lon="3.42173">
        <ele>1100.37</ele>
        <time>2022-03-27T11:40:16Z</time>
      </trkpt>
      <trkpt lat="45.03246" lon="3.42152">
        <ele>1099.89</ele>
        <time>2022-03-27T11:40:33Z</time>
      </trkpt>
      <trkpt lat="45.03248" lon="3.42148">
        <ele>1099.89</ele>
        <time>2022-03-27T11:40:36Z</time>
      </trkpt>
      <trkpt lat="45.03258" lon="3.42127">
        <ele>1099.89</ele>
        <time>2022-03-27T11:40:51Z</time>
      </trkpt>
      <trkpt lat="45.03268" lon="3.421">
        <ele>1099.89</ele>
        <time>2022-03-27T11:41:08Z</time>
      </trkpt>
      <trkpt lat="45.03272" lon="3.42087">
        <ele>1099.4</ele>
        <time>2022-03-27T11:41:23Z</time>
      </trkpt>
      <trkpt lat="45.03275" lon="3.42075">
        <ele>1098.92</ele>
        <time>2022-03-27T11:41:36Z</time>
      </trkpt>
      <trkpt lat="45.03277" lon="3.42068">
        <ele>1099.4</ele>
        <time>2022-03-27T11:41:41Z</time>
      </trkpt>
      <trkpt lat="45.0328" lon="3.42062">
        <ele>1099.4</ele>
        <time>2022-03-27T11:41:45Z</time>
      </trkpt>
      <trkpt lat="45.03291" lon="3.42052">
        <ele>1098.92</ele>
        <time>2022-03-27T11:42:00Z</time>
      </trkpt>
      <trkpt lat="45.03294" lon="3.42053">
        <ele>1099.4</ele>
        <time>2022-03-27T11:42:12Z</time>
      </trkpt>
      <trkpt lat="45.03294" lon="3.42054">
        <ele>1099.4</ele>
        <time>2022-03-27T11:42:16Z</time>
      </trkpt>
      <trkpt lat="45.03294" lon="3.42042">
        <ele>1098.92</ele>
        <time>2022-03-27T11:42:24Z</time>
      </trkpt>
      <trkpt lat="45.03294" lon="3.42027">
        <ele>1098.92</ele>
        <time>2022-03-27T11:42:34Z</time>
      </trkpt>
      <trkpt lat="45.03302" lon="3.41999">
        <ele>1097.48</ele>
        <time>2022-03-27T11:42:52Z</time>
      </trkpt>
      <trkpt lat="45.03312" lon="3.4197">
        <ele>1096.52</ele>
        <time>2022-03-27T11:43:11Z</time>
      </trkpt>
      <trkpt lat="45.0332" lon="3.41945">
        <ele>1094.6</ele>
        <time>2022-03-27T11:43:27Z</time>
      </trkpt>
      <trkpt lat="45.03328" lon="3.41917">
        <ele>1094.12</ele>
        <time>2022-03-27T11:43:45Z</time>
      </trkpt>
      <trkpt lat="45.03334" lon="3.41886">
        <ele>1093.16</ele>
        <time>2022-03-27T11:44:04Z</time>
      </trkpt>
      <trkpt lat="45.03339" lon="3.41855">
        <ele>1090.75</ele>
        <time>2022-03-27T11:44:23Z</time>
      </trkpt>
      <trkpt lat="45.03341" lon="3.41847">
        <ele>1090.27</ele>
        <time>2022-03-27T11:44:29Z</time>
      </trkpt>
      <trkpt lat="45.03343" lon="3.41843">
        <ele>1090.75</ele>
        <time>2022-03-27T11:44:33Z</time>
      </trkpt>
      <trkpt lat="45.03352" lon="3.41822">
        <ele>1089.79</ele>
        <time>2022-03-27T11:44:49Z</time>
      </trkpt>
      <trkpt lat="45.03363" lon="3.41808">
        <ele>1088.83</ele>
        <time>2022-03-27T11:45:03Z</time>
      </trkpt>
      <trkpt lat="45.0337" lon="3.418">
        <ele>1086.43</ele>
        <time>2022-03-27T11:45:14Z</time>
      </trkpt>
      <trkpt lat="45.03381" lon="3.41787">
        <ele>1084.5</ele>
        <time>2022-03-27T11:45:28Z</time>
      </trkpt>
      <trkpt lat="45.03385" lon="3.41782">
        <ele>1083.54</ele>
        <time>2022-03-27T11:45:33Z</time>
      </trkpt>
      <trkpt lat="45.03394" lon="3.41768">
        <ele>1081.62</ele>
        <time>2022-03-27T11:45:45Z</time>
      </trkpt>
      <trkpt lat="45.03407" lon="3.41751">
        <ele>1079.7</ele>
        <time>2022-03-27T11:46:01Z</time>
      </trkpt>
      <trkpt lat="45.03421" lon="3.41732">
        <ele>1077.78</ele>
        <time>2022-03-27T11:46:18Z</time>
      </trkpt>
      <trkpt lat="45.03434" lon="3.41723">
        <ele>1077.78</ele>
        <time>2022-03-27T11:46:32Z</time>
      </trkpt>
      <trkpt lat="45.03443" lon="3.41713">
        <ele>1077.78</ele>
        <time>2022-03-27T11:46:45Z</time>
      </trkpt>
      <trkpt lat="45.0346" lon="3.41701">
        <ele>1077.29</ele>
        <time>2022-03-27T11:47:03Z</time>
      </trkpt>
      <trkpt lat="45.03475" lon="3.41691">
        <ele>1077.78</ele>
        <time>2022-03-27T11:47:20Z</time>
      </trkpt>
      <trkpt lat="45.03489" lon="3.41682">
        <ele>1076.81</ele>
        <time>2022-03-27T11:47:36Z</time>
      </trkpt>
      <trkpt lat="45.03499" lon="3.41673">
        <ele>1076.81</ele>
        <time>2022-03-27T11:47:48Z</time>
      </trkpt>
      <trkpt lat="45.03511" lon="3.41667">
        <ele>1074.89</ele>
        <time>2022-03-27T11:48:02Z</time>
      </trkpt>
      <trkpt lat="45.03515" lon="3.41663">
        <ele>1075.37</ele>
        <time>2022-03-27T11:48:07Z</time>
      </trkpt>
      <trkpt lat="45.03522" lon="3.4166">
        <ele>1075.85</ele>
        <time>2022-03-27T11:48:15Z</time>
      </trkpt>
      <trkpt lat="45.03534" lon="3.41652">
        <ele>1075.85</ele>
        <time>2022-03-27T11:48:31Z</time>
      </trkpt>
      <trkpt lat="45.03545" lon="3.41645">
        <ele>1076.33</ele>
        <time>2022-03-27T11:48:45Z</time>
      </trkpt>
      <trkpt lat="45.03559" lon="3.41639">
        <ele>1076.33</ele>
        <time>2022-03-27T11:48:59Z</time>
      </trkpt>
      <trkpt lat="45.03565" lon="3.41634">
        <ele>1075.85</ele>
        <time>2022-03-27T11:49:05Z</time>
      </trkpt>
      <trkpt lat="45.03583" lon="3.41618">
        <ele>1072.01</ele>
        <time>2022-03-27T11:49:23Z</time>
      </trkpt>
      <trkpt lat="45.03599" lon="3.41606">
        <ele>1070.08</ele>
        <time>2022-03-27T11:49:38Z</time>
      </trkpt>
      <trkpt lat="45.03618" lon="3.41589">
        <ele>1066.24</ele>
        <time>2022-03-27T11:49:54Z</time>
      </trkpt>
      <trkpt lat="45.03627" lon="3.41582">
        <ele>1064.8</ele>
        <time>2022-03-27T11:50:02Z</time>
      </trkpt>
      <trkpt lat="45.03643" lon="3.41569">
        <ele>1064.32</ele>
        <time>2022-03-27T11:50:16Z</time>
      </trkpt>
      <trkpt lat="45.03668" lon="3.4156">
        <ele>1059.51</ele>
        <time>2022-03-27T11:50:35Z</time>
      </trkpt>
      <trkpt lat="45.03674" lon="3.41571">
        <ele>1059.99</ele>
        <time>2022-03-27T11:50:43Z</time>
      </trkpt>
      <trkpt lat="45.03674" lon="3.41596">
        <ele>1060.47</ele>
        <time>2022-03-27T11:50:58Z</time>
      </trkpt>
      <trkpt lat="45.03669" lon="3.41625">
        <ele>1060.47</ele>
        <time>2022-03-27T11:51:15Z</time>
      </trkpt>
      <trkpt lat="45.03665" lon="3.41644">
        <ele>1060.95</ele>
        <time>2022-03-27T11:51:27Z</time>
      </trkpt>
      <trkpt lat="45.03661" lon="3.41667">
        <ele>1060.95</ele>
        <time>2022-03-27T11:51:43Z</time>
      </trkpt>
      <trkpt lat="45.03661" lon="3.4167">
        <ele>1060.95</ele>
        <time>2022-03-27T11:51:45Z</time>
      </trkpt>
      <trkpt lat="45.03664" lon="3.41689">
        <ele>1061.43</ele>
        <time>2022-03-27T11:51:58Z</time>
      </trkpt>
      <trkpt lat="45.03666" lon="3.41702">
        <ele>1063.36</ele>
        <time>2022-03-27T11:52:10Z</time>
      </trkpt>
      <trkpt lat="45.03672" lon="3.4172">
        <ele>1066.72</ele>
        <time>2022-03-27T11:52:24Z</time>
      </trkpt>
      <trkpt lat="45.03677" lon="3.41734">
        <ele>1070.57</ele>
        <time>2022-03-27T11:52:37Z</time>
      </trkpt>
      <trkpt lat="45.0368" lon="3.41748">
        <ele>1072.97</ele>
        <time>2022-03-27T11:52:50Z</time>
      </trkpt>
      <trkpt lat="45.03684" lon="3.41758">
        <ele>1076.33</ele>
        <time>2022-03-27T11:53:03Z</time>
      </trkpt>
      <trkpt lat="45.03694" lon="3.41772">
        <ele>1082.1</ele>
        <time>2022-03-27T11:53:16Z</time>
      </trkpt>
      <trkpt lat="45.03703" lon="3.41783">
        <ele>1090.27</ele>
        <time>2022-03-27T11:53:29Z</time>
      </trkpt>
      <trkpt lat="45.0371" lon="3.41793">
        <ele>1097.48</ele>
        <time>2022-03-27T11:53:41Z</time>
      </trkpt>
      <trkpt lat="45.03714" lon="3.41802">
        <ele>1100.37</ele>
        <time>2022-03-27T11:53:52Z</time>
      </trkpt>
      <trkpt lat="45.0372" lon="3.41813">
        <ele>1102.29</ele>
        <time>2022-03-27T11:54:05Z</time>
      </trkpt>
      <trkpt lat="45.03729" lon="3.41836">
        <ele>1103.25</ele>
        <time>2022-03-27T11:54:21Z</time>
      </trkpt>
      <trkpt lat="45.03734" lon="3.41856">
        <ele>1102.29</ele>
        <time>2022-03-27T11:54:32Z</time>
      </trkpt>
      <trkpt lat="45.03743" lon="3.41871">
        <ele>1101.33</ele>
        <time>2022-03-27T11:54:43Z</time>
      </trkpt>
      <trkpt lat="45.03752" lon="3.41888">
        <ele>1103.25</ele>
        <time>2022-03-27T11:54:58Z</time>
      </trkpt>
      <trkpt lat="45.03752" lon="3.41888">
        <ele>1102.77</ele>
        <time>2022-03-27T11:55:00Z</time>
      </trkpt>
      <trkpt lat="45.03758" lon="3.419">
        <ele>1105.17</ele>
        <time>2022-03-27T11:55:12Z</time>
      </trkpt>
      <trkpt lat="45.03761" lon="3.41909">
        <ele>1105.17</ele>
        <time>2022-03-27T11:55:25Z</time>
      </trkpt>
      <trkpt lat="45.03765" lon="3.41921">
        <ele>1109.02</ele>
        <time>2022-03-27T11:55:36Z</time>
      </trkpt>
      <trkpt lat="45.03771" lon="3.41941">
        <ele>1111.9</ele>
        <time>2022-03-27T11:55:49Z</time>
      </trkpt>
      <trkpt lat="45.03773" lon="3.41949">
        <ele>1111.9</ele>
        <time>2022-03-27T11:55:53Z</time>
      </trkpt>
      <trkpt lat="45.03775" lon="3.41954">
        <ele>1112.38</ele>
        <time>2022-03-27T11:55:56Z</time>
      </trkpt>
      <trkpt lat="45.0378" lon="3.41964">
        <ele>1112.38</ele>
        <time>2022-03-27T11:56:02Z</time>
      </trkpt>
      <trkpt lat="45.03785" lon="3.4198">
        <ele>1111.9</ele>
        <time>2022-03-27T11:56:13Z</time>
      </trkpt>
      <trkpt lat="45.03793" lon="3.42003">
        <ele>1109.98</ele>
        <time>2022-03-27T11:56:26Z</time>
      </trkpt>
      <trkpt lat="45.03799" lon="3.42015">
        <ele>1108.06</ele>
        <time>2022-03-27T11:56:34Z</time>
      </trkpt>
      <trkpt lat="45.038" lon="3.42018">
        <ele>1108.54</ele>
        <time>2022-03-27T11:56:36Z</time>
      </trkpt>
      <trkpt lat="45.03803" lon="3.42022">
        <ele>1108.06</ele>
        <time>2022-03-27T11:56:39Z</time>
      </trkpt>
      <trkpt lat="45.0381" lon="3.42041">
        <ele>1107.58</ele>
        <time>2022-03-27T11:56:52Z</time>
      </trkpt>
      <trkpt lat="45.03818" lon="3.42057">
        <ele>1106.61</ele>
        <time>2022-03-27T11:57:04Z</time>
      </trkpt>
      <trkpt lat="45.03818" lon="3.42061">
        <ele>1106.13</ele>
        <time>2022-03-27T11:57:06Z</time>
      </trkpt>
      <trkpt lat="45.03824" lon="3.42078">
        <ele>1107.1</ele>
        <time>2022-03-27T11:57:18Z</time>
      </trkpt>
      <trkpt lat="45.03827" lon="3.42091">
        <ele>1110.94</ele>
        <time>2022-03-27T11:57:28Z</time>
      </trkpt>
      <trkpt lat="45.03831" lon="3.42106">
        <ele>1117.19</ele>
        <time>2022-03-27T11:57:40Z</time>
      </trkpt>
      <trkpt lat="45.03835" lon="3.4211">
        <ele>1117.19</ele>
        <time>2022-03-27T11:57:46Z</time>
      </trkpt>
      <trkpt lat="45.03839" lon="3.42115">
        <ele>1116.71</ele>
        <time>2022-03-27T11:57:52Z</time>
      </trkpt>
      <trkpt lat="45.03847" lon="3.4214">
        <ele>1118.63</ele>
        <time>2022-03-27T11:58:07Z</time>
      </trkpt>
      <trkpt lat="45.03853" lon="3.42158">
        <ele>1117.67</ele>
        <time>2022-03-27T11:58:20Z</time>
      </trkpt>
      <trkpt lat="45.03855" lon="3.42162">
        <ele>1118.63</ele>
        <time>2022-03-27T11:58:23Z</time>
      </trkpt>
      <trkpt lat="45.03861" lon="3.42173">
        <ele>1120.55</ele>
        <time>2022-03-27T11:58:32Z</time>
      </trkpt>
      <trkpt lat="45.03864" lon="3.4218">
        <ele>1120.07</ele>
        <time>2022-03-27T11:58:39Z</time>
      </trkpt>
      <trkpt lat="45.03871" lon="3.42191">
        <ele>1121.52</ele>
        <time>2022-03-27T11:58:51Z</time>
      </trkpt>
      <trkpt lat="45.03878" lon="3.422">
        <ele>1122.96</ele>
        <time>2022-03-27T11:59:04Z</time>
      </trkpt>
      <trkpt lat="45.03879" lon="3.42204">
        <ele>1123.44</ele>
        <time>2022-03-27T11:59:09Z</time>
      </trkpt>
      <trkpt lat="45.03899" lon="3.42211">
        <ele>1119.59</ele>
        <time>2022-03-27T11:59:24Z</time>
      </trkpt>
      <trkpt lat="45.03915" lon="3.42217">
        <ele>1110.46</ele>
        <time>2022-03-27T11:59:38Z</time>
      </trkpt>
      <trkpt lat="45.0393" lon="3.42209">
        <ele>1108.06</ele>
        <time>2022-03-27T11:59:54Z</time>
      </trkpt>
      <trkpt lat="45.0394" lon="3.42203">
        <ele>1105.65</ele>
        <time>2022-03-27T12:00:06Z</time>
      </trkpt>
      <trkpt lat="45.0395" lon="3.42202">
        <ele>1104.21</ele>
        <time>2022-03-27T12:00:15Z</time>
      </trkpt>
      <trkpt lat="45.03969" lon="3.42193">
        <ele>1101.81</ele>
        <time>2022-03-27T12:00:30Z</time>
      </trkpt>
      <trkpt lat="45.0397" lon="3.42193">
        <ele>1101.81</ele>
        <time>2022-03-27T12:00:31Z</time>
      </trkpt>
      <trkpt lat="45.03982" lon="3.42188">
        <ele>1100.37</ele>
        <time>2022-03-27T12:00:41Z</time>
      </trkpt>
      <trkpt lat="45.03994" lon="3.42183">
        <ele>1098.44</ele>
        <time>2022-03-27T12:00:53Z</time>
      </trkpt>
      <trkpt lat="45.04" lon="3.42178">
        <ele>1097</ele>
        <time>2022-03-27T12:01:06Z</time>
      </trkpt>
      <trkpt lat="45.04003" lon="3.42181">
        <ele>1096.52</ele>
        <time>2022-03-27T12:01:21Z</time>
      </trkpt>
      <trkpt lat="45.04005" lon="3.42182">
        <ele>1096.52</ele>
        <time>2022-03-27T12:01:39Z</time>
      </trkpt>
      <trkpt lat="45.04007" lon="3.42184">
        <ele>1093.64</ele>
        <time>2022-03-27T12:02:03Z</time>
      </trkpt>
      <trkpt lat="45.04008" lon="3.42184">
        <ele>1092.2</ele>
        <time>2022-03-27T12:02:18Z</time>
      </trkpt>
      <trkpt lat="45.04011" lon="3.42186">
        <ele>1091.71</ele>
        <time>2022-03-27T12:02:30Z</time>
      </trkpt>
      <trkpt lat="45.04015" lon="3.42198">
        <ele>1093.16</ele>
        <time>2022-03-27T12:02:41Z</time>
      </trkpt>
      <trkpt lat="45.04023" lon="3.42213">
        <ele>1098.44</ele>
        <time>2022-03-27T12:02:55Z</time>
      </trkpt>
      <trkpt lat="45.04028" lon="3.42225">
        <ele>1102.77</ele>
        <time>2022-03-27T12:03:04Z</time>
      </trkpt>
      <trkpt lat="45.04037" lon="3.42246">
        <ele>1105.65</ele>
        <time>2022-03-27T12:03:19Z</time>
      </trkpt>
      <trkpt lat="45.04038" lon="3.42251">
        <ele>1105.65</ele>
        <time>2022-03-27T12:03:22Z</time>
      </trkpt>
      <trkpt lat="45.04041" lon="3.42254">
        <ele>1105.17</ele>
        <time>2022-03-27T12:03:25Z</time>
      </trkpt>
      <trkpt lat="45.04049" lon="3.42272">
        <ele>1105.17</ele>
        <time>2022-03-27T12:03:38Z</time>
      </trkpt>
      <trkpt lat="45.04059" lon="3.42296">
        <ele>1102.77</ele>
        <time>2022-03-27T12:03:52Z</time>
      </trkpt>
      <trkpt lat="45.0406" lon="3.423">
        <ele>1102.77</ele>
        <time>2022-03-27T12:03:55Z</time>
      </trkpt>
      <trkpt lat="45.04066" lon="3.4231">
        <ele>1102.77</ele>
        <time>2022-03-27T12:04:03Z</time>
      </trkpt>
      <trkpt lat="45.04068" lon="3.42312">
        <ele>1102.29</ele>
        <time>2022-03-27T12:04:05Z</time>
      </trkpt>
      <trkpt lat="45.04076" lon="3.42336">
        <ele>1101.33</ele>
        <time>2022-03-27T12:04:20Z</time>
      </trkpt>
      <trkpt lat="45.04078" lon="3.42342">
        <ele>1100.85</ele>
        <time>2022-03-27T12:04:24Z</time>
      </trkpt>
      <trkpt lat="45.04085" lon="3.42361">
        <ele>1101.33</ele>
        <time>2022-03-27T12:04:36Z</time>
      </trkpt>
      <trkpt lat="45.0409" lon="3.42372">
        <ele>1099.4</ele>
        <time>2022-03-27T12:04:43Z</time>
      </trkpt>
      <trkpt lat="45.04099" lon="3.42407">
        <ele>1097.96</ele>
        <time>2022-03-27T12:05:03Z</time>
      </trkpt>
      <trkpt lat="45.04106" lon="3.42432">
        <ele>1097</ele>
        <time>2022-03-27T12:05:18Z</time>
      </trkpt>
      <trkpt lat="45.04112" lon="3.4246">
        <ele>1095.08</ele>
        <time>2022-03-27T12:05:34Z</time>
      </trkpt>
      <trkpt lat="45.04115" lon="3.42492">
        <ele>1090.27</ele>
        <time>2022-03-27T12:05:51Z</time>
      </trkpt>
      <trkpt lat="45.04118" lon="3.42531">
        <ele>1084.5</ele>
        <time>2022-03-27T12:06:12Z</time>
      </trkpt>
      <trkpt lat="45.0412" lon="3.42554">
        <ele>1086.43</ele>
        <time>2022-03-27T12:06:28Z</time>
      </trkpt>
      <trkpt lat="45.0412" lon="3.42557">
        <ele>1086.91</ele>
        <time>2022-03-27T12:06:30Z</time>
      </trkpt>
      <trkpt lat="45.04119" lon="3.4256">
        <ele>1087.39</ele>
        <time>2022-03-27T12:06:32Z</time>
      </trkpt>
      <trkpt lat="45.04119" lon="3.42588">
        <ele>1089.31</ele>
        <time>2022-03-27T12:06:50Z</time>
      </trkpt>
      <trkpt lat="45.04119" lon="3.42591">
        <ele>1089.79</ele>
        <time>2022-03-27T12:06:52Z</time>
      </trkpt>
      <trkpt lat="45.04117" lon="3.42619">
        <ele>1090.27</ele>
        <time>2022-03-27T12:07:09Z</time>
      </trkpt>
      <trkpt lat="45.04114" lon="3.42644">
        <ele>1091.23</ele>
        <time>2022-03-27T12:07:25Z</time>
      </trkpt>
      <trkpt lat="45.04112" lon="3.42668">
        <ele>1088.83</ele>
        <time>2022-03-27T12:07:40Z</time>
      </trkpt>
      <trkpt lat="45.0411" lon="3.42689">
        <ele>1087.87</ele>
        <time>2022-03-27T12:07:54Z</time>
      </trkpt>
      <trkpt lat="45.0411" lon="3.42701">
        <ele>1086.43</ele>
        <time>2022-03-27T12:08:07Z</time>
      </trkpt>
      <trkpt lat="45.04111" lon="3.4271">
        <ele>1081.14</ele>
        <time>2022-03-27T12:08:23Z</time>
      </trkpt>
      <trkpt lat="45.04111" lon="3.42719">
        <ele>1078.26</ele>
        <time>2022-03-27T12:08:33Z</time>
      </trkpt>
      <trkpt lat="45.04111" lon="3.42751">
        <ele>1072.97</ele>
        <time>2022-03-27T12:08:51Z</time>
      </trkpt>
      <trkpt lat="45.04111" lon="3.42767">
        <ele>1071.05</ele>
        <time>2022-03-27T12:09:00Z</time>
      </trkpt>
      <trkpt lat="45.04112" lon="3.42795">
        <ele>1069.12</ele>
        <time>2022-03-27T12:09:17Z</time>
      </trkpt>
      <trkpt lat="45.04114" lon="3.42817">
        <ele>1067.2</ele>
        <time>2022-03-27T12:09:32Z</time>
      </trkpt>
      <trkpt lat="45.04116" lon="3.42836">
        <ele>1066.24</ele>
        <time>2022-03-27T12:09:45Z</time>
      </trkpt>
      <trkpt lat="45.04117" lon="3.42842">
        <ele>1065.76</ele>
        <time>2022-03-27T12:09:49Z</time>
      </trkpt>
      <trkpt lat="45.04119" lon="3.42857">
        <ele>1064.32</ele>
        <time>2022-03-27T12:09:59Z</time>
      </trkpt>
      <trkpt lat="45.04123" lon="3.4288">
        <ele>1064.8</ele>
        <time>2022-03-27T12:10:14Z</time>
      </trkpt>
      <trkpt lat="45.04123" lon="3.42887">
        <ele>1064.32</ele>
        <time>2022-03-27T12:10:19Z</time>
      </trkpt>
      <trkpt lat="45.04125" lon="3.42901">
        <ele>1065.28</ele>
        <time>2022-03-27T12:10:30Z</time>
      </trkpt>
      <trkpt lat="45.04129" lon="3.4292">
        <ele>1066.72</ele>
        <time>2022-03-27T12:10:43Z</time>
      </trkpt>
      <trkpt lat="45.04132" lon="3.42939">
        <ele>1071.05</ele>
        <time>2022-03-27T12:10:56Z</time>
      </trkpt>
      <trkpt lat="45.04135" lon="3.42953">
        <ele>1075.37</ele>
        <time>2022-03-27T12:11:07Z</time>
      </trkpt>
      <trkpt lat="45.04136" lon="3.42957">
        <ele>1075.37</ele>
        <time>2022-03-27T12:11:09Z</time>
      </trkpt>
      <trkpt lat="45.04141" lon="3.42976">
        <ele>1074.89</ele>
        <time>2022-03-27T12:11:22Z</time>
      </trkpt>
      <trkpt lat="45.04142" lon="3.42978">
        <ele>1074.41</ele>
        <time>2022-03-27T12:11:23Z</time>
      </trkpt>
      <trkpt lat="45.04149" lon="3.42997">
        <ele>1071.53</ele>
        <time>2022-03-27T12:11:38Z</time>
      </trkpt>
      <trkpt lat="45.04157" lon="3.43014">
        <ele>1072.01</ele>
        <time>2022-03-27T12:11:52Z</time>
      </trkpt>
      <trkpt lat="45.04167" lon="3.43027">
        <ele>1076.33</ele>
        <time>2022-03-27T12:12:07Z</time>
      </trkpt>
      <trkpt lat="45.04178" lon="3.43047">
        <ele>1074.41</ele>
        <time>2022-03-27T12:12:20Z</time>
      </trkpt>
      <trkpt lat="45.04182" lon="3.43052">
        <ele>1071.53</ele>
        <time>2022-03-27T12:12:23Z</time>
      </trkpt>
      <trkpt lat="45.04194" lon="3.43068">
        <ele>1068.16</ele>
        <time>2022-03-27T12:12:35Z</time>
      </trkpt>
      <trkpt lat="45.04197" lon="3.43075">
        <ele>1069.12</ele>
        <time>2022-03-27T12:12:39Z</time>
      </trkpt>
      <trkpt lat="45.04204" lon="3.43088">
        <ele>1066.72</ele>
        <time>2022-03-27T12:12:48Z</time>
      </trkpt>
      <trkpt lat="45.04217" lon="3.43096">
        <ele>1066.72</ele>
        <time>2022-03-27T12:13:01Z</time>
      </trkpt>
      <trkpt lat="45.04222" lon="3.43101">
        <ele>1067.68</ele>
        <time>2022-03-27T12:13:07Z</time>
      </trkpt>
      <trkpt lat="45.04229" lon="3.43107">
        <ele>1068.64</ele>
        <time>2022-03-27T12:13:19Z</time>
      </trkpt>
      <trkpt lat="45.04238" lon="3.4311">
        <ele>1070.57</ele>
        <time>2022-03-27T12:13:29Z</time>
      </trkpt>
      <trkpt lat="45.0425" lon="3.43114">
        <ele>1073.45</ele>
        <time>2022-03-27T12:13:40Z</time>
      </trkpt>
      <trkpt lat="45.04258" lon="3.43114">
        <ele>1072.97</ele>
        <time>2022-03-27T12:13:45Z</time>
      </trkpt>
      <trkpt lat="45.0427" lon="3.43121">
        <ele>1069.12</ele>
        <time>2022-03-27T12:13:57Z</time>
      </trkpt>
      <trkpt lat="45.04287" lon="3.43133">
        <ele>1063.84</ele>
        <time>2022-03-27T12:14:09Z</time>
      </trkpt>
      <trkpt lat="45.04303" lon="3.43147">
        <ele>1058.55</ele>
        <time>2022-03-27T12:14:20Z</time>
      </trkpt>
      <trkpt lat="45.04324" lon="3.43181">
        <ele>1040.28</ele>
        <time>2022-03-27T12:14:36Z</time>
      </trkpt>
      <trkpt lat="45.04342" lon="3.43194">
        <ele>1036.44</ele>
        <time>2022-03-27T12:14:53Z</time>
      </trkpt>
      <trkpt lat="45.04356" lon="3.43203">
        <ele>1037.88</ele>
        <time>2022-03-27T12:15:07Z</time>
      </trkpt>
      <trkpt lat="45.04359" lon="3.43205">
        <ele>1037.88</ele>
        <time>2022-03-27T12:15:10Z</time>
      </trkpt>
      <trkpt lat="45.04361" lon="3.43207">
        <ele>1037.4</ele>
        <time>2022-03-27T12:15:12Z</time>
      </trkpt>
      <trkpt lat="45.04366" lon="3.4321">
        <ele>1035.96</ele>
        <time>2022-03-27T12:15:16Z</time>
      </trkpt>
      <trkpt lat="45.04381" lon="3.43226">
        <ele>1032.59</ele>
        <time>2022-03-27T12:15:32Z</time>
      </trkpt>
      <trkpt lat="45.04386" lon="3.4323">
        <ele>1032.11</ele>
        <time>2022-03-27T12:15:36Z</time>
      </trkpt>
      <trkpt lat="45.04399" lon="3.43246">
        <ele>1030.19</ele>
        <time>2022-03-27T12:15:50Z</time>
      </trkpt>
      <trkpt lat="45.04407" lon="3.43261">
        <ele>1028.75</ele>
        <time>2022-03-27T12:16:00Z</time>
      </trkpt>
      <trkpt lat="45.04415" lon="3.43279">
        <ele>1028.75</ele>
        <time>2022-03-27T12:16:12Z</time>
      </trkpt>
      <trkpt lat="45.04418" lon="3.43286">
        <ele>1028.27</ele>
        <time>2022-03-27T12:16:17Z</time>
      </trkpt>
      <trkpt lat="45.04426" lon="3.43312">
        <ele>1025.38</ele>
        <time>2022-03-27T12:16:33Z</time>
      </trkpt>
      <trkpt lat="45.04422" lon="3.43324">
        <ele>1025.86</ele>
        <time>2022-03-27T12:16:41Z</time>
      </trkpt>
      <trkpt lat="45.04414" lon="3.4334">
        <ele>1025.86</ele>
        <time>2022-03-27T12:16:54Z</time>
      </trkpt>
      <trkpt lat="45.04409" lon="3.43359">
        <ele>1027.31</ele>
        <time>2022-03-27T12:17:08Z</time>
      </trkpt>
      <trkpt lat="45.04408" lon="3.43361">
        <ele>1027.79</ele>
        <time>2022-03-27T12:17:10Z</time>
      </trkpt>
      <trkpt lat="45.04402" lon="3.4338">
        <ele>1031.15</ele>
        <time>2022-03-27T12:17:24Z</time>
      </trkpt>
      <trkpt lat="45.04398" lon="3.43407">
        <ele>1035.96</ele>
        <time>2022-03-27T12:17:39Z</time>
      </trkpt>
      <trkpt lat="45.04401" lon="3.43438">
        <ele>1037.4</ele>
        <time>2022-03-27T12:17:56Z</time>
      </trkpt>
      <trkpt lat="45.04402" lon="3.43441">
        <ele>1035.48</ele>
        <time>2022-03-27T12:18:02Z</time>
      </trkpt>
      <trkpt lat="45.04401" lon="3.43448">
        <ele>1034.04</ele>
        <time>2022-03-27T12:18:06Z</time>
      </trkpt>
      <trkpt lat="45.04403" lon="3.43478">
        <ele>1034.52</ele>
        <time>2022-03-27T12:18:25Z</time>
      </trkpt>
      <trkpt lat="45.04402" lon="3.43486">
        <ele>1034.04</ele>
        <time>2022-03-27T12:18:31Z</time>
      </trkpt>
      <trkpt lat="45.04401" lon="3.4349">
        <ele>1033.07</ele>
        <time>2022-03-27T12:18:36Z</time>
      </trkpt>
      <trkpt lat="45.04402" lon="3.43511">
        <ele>1034.04</ele>
        <time>2022-03-27T12:18:49Z</time>
      </trkpt>
      <trkpt lat="45.04403" lon="3.4352">
        <ele>1034.04</ele>
        <time>2022-03-27T12:18:55Z</time>
      </trkpt>
      <trkpt lat="45.04404" lon="3.43534">
        <ele>1034.52</ele>
        <time>2022-03-27T12:19:03Z</time>
      </trkpt>
      <trkpt lat="45.04407" lon="3.43549">
        <ele>1034.52</ele>
        <time>2022-03-27T12:19:13Z</time>
      </trkpt>
      <trkpt lat="45.04413" lon="3.43571">
        <ele>1034.04</ele>
        <time>2022-03-27T12:19:28Z</time>
      </trkpt>
      <trkpt lat="45.04413" lon="3.43573">
        <ele>1034.04</ele>
        <time>2022-03-27T12:19:29Z</time>
      </trkpt>
      <trkpt lat="45.04412" lon="3.43575">
        <ele>1034.04</ele>
        <time>2022-03-27T12:19:32Z</time>
      </trkpt>
      <trkpt lat="45.04419" lon="3.43605">
        <ele>1035.48</ele>
        <time>2022-03-27T12:19:50Z</time>
      </trkpt>
      <trkpt lat="45.0442" lon="3.4361">
        <ele>1034.52</ele>
        <time>2022-03-27T12:20:05Z</time>
      </trkpt>
      <trkpt lat="45.04425" lon="3.43642">
        <ele>1036.92</ele>
        <time>2022-03-27T12:20:23Z</time>
      </trkpt>
      <trkpt lat="45.04429" lon="3.43659">
        <ele>1037.88</ele>
        <time>2022-03-27T12:20:33Z</time>
      </trkpt>
      <trkpt lat="45.04432" lon="3.43677">
        <ele>1038.36</ele>
        <time>2022-03-27T12:20:45Z</time>
      </trkpt>
      <trkpt lat="45.04433" lon="3.43683">
        <ele>1038.84</ele>
        <time>2022-03-27T12:20:49Z</time>
      </trkpt>
      <trkpt lat="45.04437" lon="3.43711">
        <ele>1039.32</ele>
        <time>2022-03-27T12:21:06Z</time>
      </trkpt>
      <trkpt lat="45.0444" lon="3.43743">
        <ele>1039.8</ele>
        <time>2022-03-27T12:21:23Z</time>
      </trkpt>
      <trkpt lat="45.04441" lon="3.43774">
        <ele>1041.25</ele>
        <time>2022-03-27T12:21:42Z</time>
      </trkpt>
      <trkpt lat="45.04441" lon="3.43779">
        <ele>1041.73</ele>
        <time>2022-03-27T12:21:45Z</time>
      </trkpt>
      <trkpt lat="45.04447" lon="3.4381">
        <ele>1042.21</ele>
        <time>2022-03-27T12:22:03Z</time>
      </trkpt>
      <trkpt lat="45.04451" lon="3.43835">
        <ele>1044.13</ele>
        <time>2022-03-27T12:22:19Z</time>
      </trkpt>
      <trkpt lat="45.04452" lon="3.43847">
        <ele>1043.65</ele>
        <time>2022-03-27T12:22:32Z</time>
      </trkpt>
      <trkpt lat="45.04451" lon="3.43848">
        <ele>1043.65</ele>
        <time>2022-03-27T12:22:33Z</time>
      </trkpt>
      <trkpt lat="45.04452" lon="3.43851">
        <ele>1043.17</ele>
        <time>2022-03-27T12:22:39Z</time>
      </trkpt>
      <trkpt lat="45.04451" lon="3.43864">
        <ele>1042.69</ele>
        <time>2022-03-27T12:22:47Z</time>
      </trkpt>
      <trkpt lat="45.04448" lon="3.43889">
        <ele>1043.17</ele>
        <time>2022-03-27T12:23:04Z</time>
      </trkpt>
      <trkpt lat="45.04449" lon="3.43919">
        <ele>1042.69</ele>
        <time>2022-03-27T12:23:21Z</time>
      </trkpt>
      <trkpt lat="45.0445" lon="3.43947">
        <ele>1040.76</ele>
        <time>2022-03-27T12:23:38Z</time>
      </trkpt>
      <trkpt lat="45.0445" lon="3.43975">
        <ele>1037.88</ele>
        <time>2022-03-27T12:23:54Z</time>
      </trkpt>
      <trkpt lat="45.0445" lon="3.43992">
        <ele>1036.44</ele>
        <time>2022-03-27T12:24:04Z</time>
      </trkpt>
      <trkpt lat="45.04451" lon="3.44019">
        <ele>1034.04</ele>
        <time>2022-03-27T12:24:20Z</time>
      </trkpt>
      <trkpt lat="45.04453" lon="3.44051">
        <ele>1030.67</ele>
        <time>2022-03-27T12:24:40Z</time>
      </trkpt>
      <trkpt lat="45.04456" lon="3.44077">
        <ele>1028.75</ele>
        <time>2022-03-27T12:24:57Z</time>
      </trkpt>
      <trkpt lat="45.0446" lon="3.4409">
        <ele>1028.27</ele>
        <time>2022-03-27T12:25:08Z</time>
      </trkpt>
      <trkpt lat="45.0446" lon="3.441">
        <ele>1027.79</ele>
        <time>2022-03-27T12:25:15Z</time>
      </trkpt>
      <trkpt lat="45.04461" lon="3.44109">
        <ele>1027.31</ele>
        <time>2022-03-27T12:25:28Z</time>
      </trkpt>
      <trkpt lat="45.0446" lon="3.44104">
        <ele>1027.79</ele>
        <time>2022-03-27T12:25:38Z</time>
      </trkpt>
      <trkpt lat="45.04458" lon="3.44092">
        <ele>1029.71</ele>
        <time>2022-03-27T12:25:49Z</time>
      </trkpt>
      <trkpt lat="45.04445" lon="3.44078">
        <ele>1031.15</ele>
        <time>2022-03-27T12:26:04Z</time>
      </trkpt>
      <trkpt lat="45.04427" lon="3.44081">
        <ele>1031.63</ele>
        <time>2022-03-27T12:26:21Z</time>
      </trkpt>
      <trkpt lat="45.04417" lon="3.44095">
        <ele>1031.63</ele>
        <time>2022-03-27T12:26:34Z</time>
      </trkpt>
      <trkpt lat="45.04409" lon="3.44115">
        <ele>1030.19</ele>
        <time>2022-03-27T12:26:49Z</time>
      </trkpt>
      <trkpt lat="45.04393" lon="3.4413">
        <ele>1031.15</ele>
        <time>2022-03-27T12:27:05Z</time>
      </trkpt>
      <trkpt lat="45.04382" lon="3.44147">
        <ele>1032.11</ele>
        <time>2022-03-27T12:27:20Z</time>
      </trkpt>
      <trkpt lat="45.04373" lon="3.44168">
        <ele>1033.07</ele>
        <time>2022-03-27T12:27:35Z</time>
      </trkpt>
      <trkpt lat="45.04364" lon="3.44184">
        <ele>1035</ele>
        <time>2022-03-27T12:27:49Z</time>
      </trkpt>
      <trkpt lat="45.04358" lon="3.44199">
        <ele>1037.4</ele>
        <time>2022-03-27T12:28:02Z</time>
      </trkpt>
      <trkpt lat="45.04351" lon="3.44217">
        <ele>1038.36</ele>
        <time>2022-03-27T12:28:15Z</time>
      </trkpt>
      <trkpt lat="45.04344" lon="3.44232">
        <ele>1039.8</ele>
        <time>2022-03-27T12:28:27Z</time>
      </trkpt>
      <trkpt lat="45.04331" lon="3.44251">
        <ele>1037.88</ele>
        <time>2022-03-27T12:28:43Z</time>
      </trkpt>
      <trkpt lat="45.04319" lon="3.44265">
        <ele>1037.4</ele>
        <time>2022-03-27T12:28:56Z</time>
      </trkpt>
      <trkpt lat="45.04303" lon="3.44279">
        <ele>1037.4</ele>
        <time>2022-03-27T12:29:12Z</time>
      </trkpt>
      <trkpt lat="45.04297" lon="3.44285">
        <ele>1036.44</ele>
        <time>2022-03-27T12:29:19Z</time>
      </trkpt>
      <trkpt lat="45.04282" lon="3.443">
        <ele>1035.96</ele>
        <time>2022-03-27T12:29:36Z</time>
      </trkpt>
      <trkpt lat="45.04265" lon="3.44316">
        <ele>1035.96</ele>
        <time>2022-03-27T12:29:53Z</time>
      </trkpt>
      <trkpt lat="45.04258" lon="3.44321">
        <ele>1036.44</ele>
        <time>2022-03-27T12:30:00Z</time>
      </trkpt>
      <trkpt lat="45.04256" lon="3.44321">
        <ele>1036.44</ele>
        <time>2022-03-27T12:30:04Z</time>
      </trkpt>
      <trkpt lat="45.04248" lon="3.44325">
        <ele>1036.92</ele>
        <time>2022-03-27T12:30:15Z</time>
      </trkpt>
      <trkpt lat="45.04241" lon="3.44326">
        <ele>1036.92</ele>
        <time>2022-03-27T12:30:29Z</time>
      </trkpt>
      <trkpt lat="45.0424" lon="3.44329">
        <ele>1036.44</ele>
        <time>2022-03-27T12:30:38Z</time>
      </trkpt>
      <trkpt lat="45.0424" lon="3.4433">
        <ele>1036.92</ele>
        <time>2022-03-27T12:30:50Z</time>
      </trkpt>
      <trkpt lat="45.04236" lon="3.44341">
        <ele>1037.4</ele>
        <time>2022-03-27T12:31:04Z</time>
      </trkpt>
      <trkpt lat="45.04232" lon="3.44362">
        <ele>1040.28</ele>
        <time>2022-03-27T12:31:19Z</time>
      </trkpt>
      <trkpt lat="45.04229" lon="3.44387">
        <ele>1041.25</ele>
        <time>2022-03-27T12:31:35Z</time>
      </trkpt>
      <trkpt lat="45.04225" lon="3.44398">
        <ele>1040.76</ele>
        <time>2022-03-27T12:31:48Z</time>
      </trkpt>
      <trkpt lat="45.04222" lon="3.444">
        <ele>1041.73</ele>
        <time>2022-03-27T12:32:03Z</time>
      </trkpt>
      <trkpt lat="45.04222" lon="3.444">
        <ele>1041.73</ele>
        <time>2022-03-27T12:32:21Z</time>
      </trkpt>
      <trkpt lat="45.04223" lon="3.44402">
        <ele>1041.73</ele>
        <time>2022-03-27T12:32:41Z</time>
      </trkpt>
      <trkpt lat="45.04223" lon="3.44405">
        <ele>1041.25</ele>
        <time>2022-03-27T12:33:02Z</time>
      </trkpt>
      <trkpt lat="45.04224" lon="3.44406">
        <ele>1040.76</ele>
        <time>2022-03-27T12:33:31Z</time>
      </trkpt>
      <trkpt lat="45.04224" lon="3.44409">
        <ele>1039.8</ele>
        <time>2022-03-27T12:33:59Z</time>
      </trkpt>
      <trkpt lat="45.04224" lon="3.44409">
        <ele>1039.8</ele>
        <time>2022-03-27T12:34:12Z</time>
      </trkpt>
      <trkpt lat="45.04224" lon="3.44405">
        <ele>1040.76</ele>
        <time>2022-03-27T12:34:26Z</time>
      </trkpt>
      <trkpt lat="45.04225" lon="3.44394">
        <ele>1042.69</ele>
        <time>2022-03-27T12:34:38Z</time>
      </trkpt>
      <trkpt lat="45.04226" lon="3.44377">
        <ele>1046.05</ele>
        <time>2022-03-27T12:34:52Z</time>
      </trkpt>
      <trkpt lat="45.04231" lon="3.44351">
        <ele>1047.01</ele>
        <time>2022-03-27T12:35:07Z</time>
      </trkpt>
      <trkpt lat="45.04233" lon="3.44336">
        <ele>1047.49</ele>
        <time>2022-03-27T12:35:16Z</time>
      </trkpt>
      <trkpt lat="45.04239" lon="3.44305">
        <ele>1047.49</ele>
        <time>2022-03-27T12:35:34Z</time>
      </trkpt>
      <trkpt lat="45.04243" lon="3.44279">
        <ele>1047.49</ele>
        <time>2022-03-27T12:35:49Z</time>
      </trkpt>
      <trkpt lat="45.04245" lon="3.44245">
        <ele>1045.57</ele>
        <time>2022-03-27T12:36:06Z</time>
      </trkpt>
      <trkpt lat="45.04245" lon="3.44228">
        <ele>1048.45</ele>
        <time>2022-03-27T12:36:20Z</time>
      </trkpt>
      <trkpt lat="45.04245" lon="3.44208">
        <ele>1050.38</ele>
        <time>2022-03-27T12:36:34Z</time>
      </trkpt>
      <trkpt lat="45.04243" lon="3.44183">
        <ele>1051.82</ele>
        <time>2022-03-27T12:36:49Z</time>
      </trkpt>
      <trkpt lat="45.04242" lon="3.44158">
        <ele>1054.7</ele>
        <time>2022-03-27T12:37:03Z</time>
      </trkpt>
      <trkpt lat="45.04245" lon="3.44135">
        <ele>1058.07</ele>
        <time>2022-03-27T12:37:19Z</time>
      </trkpt>
      <trkpt lat="45.04249" lon="3.44108">
        <ele>1058.07</ele>
        <time>2022-03-27T12:37:34Z</time>
      </trkpt>
      <trkpt lat="45.04251" lon="3.44074">
        <ele>1058.55</ele>
        <time>2022-03-27T12:37:52Z</time>
      </trkpt>
      <trkpt lat="45.04249" lon="3.44046">
        <ele>1057.59</ele>
        <time>2022-03-27T12:38:08Z</time>
      </trkpt>
      <trkpt lat="45.04249" lon="3.44044">
        <ele>1057.11</ele>
        <time>2022-03-27T12:38:09Z</time>
      </trkpt>
      <trkpt lat="45.04247" lon="3.44036">
        <ele>1056.15</ele>
        <time>2022-03-27T12:38:14Z</time>
      </trkpt>
      <trkpt lat="45.04241" lon="3.44031">
        <ele>1054.7</ele>
        <time>2022-03-27T12:38:20Z</time>
      </trkpt>
      <trkpt lat="45.04223" lon="3.44028">
        <ele>1048.45</ele>
        <time>2022-03-27T12:38:36Z</time>
      </trkpt>
      <trkpt lat="45.04203" lon="3.44032">
        <ele>1046.05</ele>
        <time>2022-03-27T12:38:52Z</time>
      </trkpt>
      <trkpt lat="45.04184" lon="3.44036">
        <ele>1043.65</ele>
        <time>2022-03-27T12:39:09Z</time>
      </trkpt>
      <trkpt lat="45.04165" lon="3.44043">
        <ele>1043.17</ele>
        <time>2022-03-27T12:39:27Z</time>
      </trkpt>
      <trkpt lat="45.04154" lon="3.44048">
        <ele>1042.69</ele>
        <time>2022-03-27T12:39:38Z</time>
      </trkpt>
      <trkpt lat="45.04137" lon="3.44053">
        <ele>1041.73</ele>
        <time>2022-03-27T12:39:53Z</time>
      </trkpt>
      <trkpt lat="45.04123" lon="3.44061">
        <ele>1041.25</ele>
        <time>2022-03-27T12:40:09Z</time>
      </trkpt>
      <trkpt lat="45.04111" lon="3.44067">
        <ele>1042.69</ele>
        <time>2022-03-27T12:40:22Z</time>
      </trkpt>
      <trkpt lat="45.04096" lon="3.44075">
        <ele>1044.61</ele>
        <time>2022-03-27T12:40:37Z</time>
      </trkpt>
      <trkpt lat="45.04083" lon="3.44084">
        <ele>1046.05</ele>
        <time>2022-03-27T12:40:52Z</time>
      </trkpt>
      <trkpt lat="45.04067" lon="3.44091">
        <ele>1046.05</ele>
        <time>2022-03-27T12:41:07Z</time>
      </trkpt>
      <trkpt lat="45.04052" lon="3.44096">
        <ele>1046.53</ele>
        <time>2022-03-27T12:41:20Z</time>
      </trkpt>
      <trkpt lat="45.04036" lon="3.44099">
        <ele>1047.97</ele>
        <time>2022-03-27T12:41:35Z</time>
      </trkpt>
      <trkpt lat="45.04019" lon="3.44101">
        <ele>1049.42</ele>
        <time>2022-03-27T12:41:51Z</time>
      </trkpt>
      <trkpt lat="45.04007" lon="3.44102">
        <ele>1050.86</ele>
        <time>2022-03-27T12:42:07Z</time>
      </trkpt>
      <trkpt lat="45.03999" lon="3.44101">
        <ele>1052.78</ele>
        <time>2022-03-27T12:42:20Z</time>
      </trkpt>
      <trkpt lat="45.03992" lon="3.44102">
        <ele>1053.26</ele>
        <time>2022-03-27T12:42:25Z</time>
      </trkpt>
      <trkpt lat="45.03973" lon="3.4411">
        <ele>1053.26</ele>
        <time>2022-03-27T12:42:39Z</time>
      </trkpt>
      <trkpt lat="45.03963" lon="3.44115">
        <ele>1055.18</ele>
        <time>2022-03-27T12:42:52Z</time>
      </trkpt>
      <trkpt lat="45.03956" lon="3.44116">
        <ele>1057.59</ele>
        <time>2022-03-27T12:43:08Z</time>
      </trkpt>
      <trkpt lat="45.03945" lon="3.44121">
        <ele>1059.99</ele>
        <time>2022-03-27T12:43:20Z</time>
      </trkpt>
      <trkpt lat="45.03926" lon="3.44127">
        <ele>1062.87</ele>
        <time>2022-03-27T12:43:32Z</time>
      </trkpt>
      <trkpt lat="45.03912" lon="3.44135">
        <ele>1065.28</ele>
        <time>2022-03-27T12:43:43Z</time>
      </trkpt>
      <trkpt lat="45.03897" lon="3.44142">
        <ele>1067.2</ele>
        <time>2022-03-27T12:43:57Z</time>
      </trkpt>
      <trkpt lat="45.03882" lon="3.44152">
        <ele>1071.53</ele>
        <time>2022-03-27T12:44:11Z</time>
      </trkpt>
      <trkpt lat="45.03878" lon="3.44155">
        <ele>1072.01</ele>
        <time>2022-03-27T12:44:21Z</time>
      </trkpt>
      <trkpt lat="45.03872" lon="3.44159">
        <ele>1071.53</ele>
        <time>2022-03-27T12:44:33Z</time>
      </trkpt>
      <trkpt lat="45.03856" lon="3.44171">
        <ele>1071.05</ele>
        <time>2022-03-27T12:44:47Z</time>
      </trkpt>
      <trkpt lat="45.03835" lon="3.44182">
        <ele>1069.12</ele>
        <time>2022-03-27T12:45:03Z</time>
      </trkpt>
      <trkpt lat="45.03824" lon="3.44188">
        <ele>1070.08</ele>
        <time>2022-03-27T12:45:15Z</time>
      </trkpt>
      <trkpt lat="45.0381" lon="3.44193">
        <ele>1069.12</ele>
        <time>2022-03-27T12:45:28Z</time>
      </trkpt>
      <trkpt lat="45.03779" lon="3.44207">
        <ele>1062.87</ele>
        <time>2022-03-27T12:45:42Z</time>
      </trkpt>
      <trkpt lat="45.0376" lon="3.44207">
        <ele>1058.55</ele>
        <time>2022-03-27T12:45:59Z</time>
      </trkpt>
      <trkpt lat="45.03758" lon="3.44207">
        <ele>1058.55</ele>
        <time>2022-03-27T12:46:18Z</time>
      </trkpt>
      <trkpt lat="45.03757" lon="3.44206">
        <ele>1059.03</ele>
        <time>2022-03-27T12:46:35Z</time>
      </trkpt>
      <trkpt lat="45.03757" lon="3.44206">
        <ele>1058.55</ele>
        <time>2022-03-27T12:46:55Z</time>
      </trkpt>
      <trkpt lat="45.03752" lon="3.44209">
        <ele>1058.07</ele>
        <time>2022-03-27T12:47:08Z</time>
      </trkpt>
      <trkpt lat="45.03733" lon="3.44218">
        <ele>1056.15</ele>
        <time>2022-03-27T12:47:25Z</time>
      </trkpt>
      <trkpt lat="45.03721" lon="3.44223">
        <ele>1053.74</ele>
        <time>2022-03-27T12:47:41Z</time>
      </trkpt>
      <trkpt lat="45.03706" lon="3.44235">
        <ele>1052.78</ele>
        <time>2022-03-27T12:47:55Z</time>
      </trkpt>
      <trkpt lat="45.03701" lon="3.4424">
        <ele>1052.3</ele>
        <time>2022-03-27T12:48:00Z</time>
      </trkpt>
      <trkpt lat="45.0369" lon="3.44251">
        <ele>1051.82</ele>
        <time>2022-03-27T12:48:12Z</time>
      </trkpt>
      <trkpt lat="45.03688" lon="3.44253">
        <ele>1052.3</ele>
        <time>2022-03-27T12:48:28Z</time>
      </trkpt>
      <trkpt lat="45.03688" lon="3.44253">
        <ele>1052.3</ele>
        <time>2022-03-27T12:48:51Z</time>
      </trkpt>
      <trkpt lat="45.03686" lon="3.44257">
        <ele>1052.78</ele>
        <time>2022-03-27T12:49:10Z</time>
      </trkpt>
      <trkpt lat="45.03668" lon="3.44283">
        <ele>1052.3</ele>
        <time>2022-03-27T12:49:32Z</time>
      </trkpt>
      <trkpt lat="45.03645" lon="3.44327">
        <ele>1051.34</ele>
        <time>2022-03-27T12:50:03Z</time>
      </trkpt>
      <trkpt lat="45.03641" lon="3.44335">
        <ele>1051.34</ele>
        <time>2022-03-27T12:50:24Z</time>
      </trkpt>
      <trkpt lat="45.03631" lon="3.44355">
        <ele>1050.86</ele>
        <time>2022-03-27T12:50:46Z</time>
      </trkpt>
      <trkpt lat="45.03609" lon="3.44393">
        <ele>1050.86</ele>
        <time>2022-03-27T12:51:17Z</time>
      </trkpt>
      <trkpt lat="45.03587" lon="3.44425">
        <ele>1052.3</ele>
        <time>2022-03-27T12:51:44Z</time>
      </trkpt>
      <trkpt lat="45.03561" lon="3.44466">
        <ele>1052.78</ele>
        <time>2022-03-27T12:52:13Z</time>
      </trkpt>
      <trkpt lat="45.0355" lon="3.44481">
        <ele>1052.78</ele>
        <time>2022-03-27T12:52:29Z</time>
      </trkpt>
      <trkpt lat="45.03525" lon="3.44498">
        <ele>1055.18</ele>
        <time>2022-03-27T12:52:50Z</time>
      </trkpt>
      <trkpt lat="45.03512" lon="3.44506">
        <ele>1056.15</ele>
        <time>2022-03-27T12:53:13Z</time>
      </trkpt>
      <trkpt lat="45.03512" lon="3.44516">
        <ele>1062.87</ele>
        <time>2022-03-27T12:53:32Z</time>
      </trkpt>
      <trkpt lat="45.03506" lon="3.44525">
        <ele>1058.07</ele>
        <time>2022-03-27T12:53:44Z</time>
      </trkpt>
      <trkpt lat="45.03492" lon="3.4454">
        <ele>1055.67</ele>
        <time>2022-03-27T12:54:04Z</time>
      </trkpt>
      <trkpt lat="45.03462" lon="3.4456">
        <ele>1051.34</ele>
        <time>2022-03-27T12:54:24Z</time>
      </trkpt>
      <trkpt lat="45.03446" lon="3.44567">
        <ele>1050.38</ele>
        <time>2022-03-27T12:54:38Z</time>
      </trkpt>
      <trkpt lat="45.03428" lon="3.44581">
        <ele>1050.86</ele>
        <time>2022-03-27T12:54:56Z</time>
      </trkpt>
      <trkpt lat="45.03413" lon="3.44593">
        <ele>1051.34</ele>
        <time>2022-03-27T12:55:12Z</time>
      </trkpt>
      <trkpt lat="45.03389" lon="3.44606">
        <ele>1051.34</ele>
        <time>2022-03-27T12:55:34Z</time>
      </trkpt>
      <trkpt lat="45.03367" lon="3.44614">
        <ele>1051.82</ele>
        <time>2022-03-27T12:55:53Z</time>
      </trkpt>
      <trkpt lat="45.03338" lon="3.44623">
        <ele>1052.3</ele>
        <time>2022-03-27T12:56:15Z</time>
      </trkpt>
      <trkpt lat="45.03318" lon="3.44629">
        <ele>1053.26</ele>
        <time>2022-03-27T12:56:32Z</time>
      </trkpt>
      <trkpt lat="45.03297" lon="3.44637">
        <ele>1052.78</ele>
        <time>2022-03-27T12:56:51Z</time>
      </trkpt>
      <trkpt lat="45.03277" lon="3.44655">
        <ele>1051.82</ele>
        <time>2022-03-27T12:57:09Z</time>
      </trkpt>
      <trkpt lat="45.03261" lon="3.44677">
        <ele>1050.38</ele>
        <time>2022-03-27T12:57:27Z</time>
      </trkpt>
      <trkpt lat="45.03249" lon="3.447">
        <ele>1049.9</ele>
        <time>2022-03-27T12:57:44Z</time>
      </trkpt>
      <trkpt lat="45.03237" lon="3.44724">
        <ele>1050.86</ele>
        <time>2022-03-27T12:58:01Z</time>
      </trkpt>
      <trkpt lat="45.03224" lon="3.44749">
        <ele>1051.34</ele>
        <time>2022-03-27T12:58:20Z</time>
      </trkpt>
      <trkpt lat="45.03223" lon="3.44749">
        <ele>1051.82</ele>
        <time>2022-03-27T12:58:35Z</time>
      </trkpt>
      <trkpt lat="45.03222" lon="3.4475">
        <ele>1051.82</ele>
        <time>2022-03-27T12:58:49Z</time>
      </trkpt>
      <trkpt lat="45.03222" lon="3.44751">
        <ele>1052.3</ele>
        <time>2022-03-27T12:59:04Z</time>
      </trkpt>
      <trkpt lat="45.03222" lon="3.44751">
        <ele>1052.78</ele>
        <time>2022-03-27T12:59:19Z</time>
      </trkpt>
      <trkpt lat="45.03219" lon="3.44754">
        <ele>1052.78</ele>
        <time>2022-03-27T12:59:37Z</time>
      </trkpt>
      <trkpt lat="45.03219" lon="3.44757">
        <ele>1053.26</ele>
        <time>2022-03-27T12:59:51Z</time>
      </trkpt>
      <trkpt lat="45.0321" lon="3.44774">
        <ele>1053.74</ele>
        <time>2022-03-27T13:00:05Z</time>
      </trkpt>
      <trkpt lat="45.03205" lon="3.4479">
        <ele>1053.26</ele>
        <time>2022-03-27T13:00:15Z</time>
      </trkpt>
      <trkpt lat="45.03197" lon="3.44815">
        <ele>1052.3</ele>
        <time>2022-03-27T13:00:34Z</time>
      </trkpt>
      <trkpt lat="45.03185" lon="3.44837">
        <ele>1051.34</ele>
        <time>2022-03-27T13:00:53Z</time>
      </trkpt>
      <trkpt lat="45.0318" lon="3.44847">
        <ele>1049.9</ele>
        <time>2022-03-27T13:01:07Z</time>
      </trkpt>
      <trkpt lat="45.03164" lon="3.44874">
        <ele>1049.9</ele>
        <time>2022-03-27T13:01:27Z</time>
      </trkpt>
      <trkpt lat="45.03154" lon="3.44896">
        <ele>1051.34</ele>
        <time>2022-03-27T13:01:42Z</time>
      </trkpt>
      <trkpt lat="45.03154" lon="3.44898">
        <ele>1051.34</ele>
        <time>2022-03-27T13:01:43Z</time>
      </trkpt>
      <trkpt lat="45.03145" lon="3.44918">
        <ele>1051.82</ele>
        <time>2022-03-27T13:01:58Z</time>
      </trkpt>
      <trkpt lat="45.03131" lon="3.4494">
        <ele>1050.86</ele>
        <time>2022-03-27T13:02:16Z</time>
      </trkpt>
      <trkpt lat="45.03129" lon="3.44944">
        <ele>1048.94</ele>
        <time>2022-03-27T13:02:31Z</time>
      </trkpt>
      <trkpt lat="45.03123" lon="3.44952">
        <ele>1049.42</ele>
        <time>2022-03-27T13:02:46Z</time>
      </trkpt>
      <trkpt lat="45.03118" lon="3.44959">
        <ele>1048.45</ele>
        <time>2022-03-27T13:02:59Z</time>
      </trkpt>
      <trkpt lat="45.0311" lon="3.44965">
        <ele>1048.94</ele>
        <time>2022-03-27T13:03:10Z</time>
      </trkpt>
      <trkpt lat="45.03096" lon="3.44989">
        <ele>1051.82</ele>
        <time>2022-03-27T13:03:30Z</time>
      </trkpt>
      <trkpt lat="45.03088" lon="3.45003">
        <ele>1053.26</ele>
        <time>2022-03-27T13:03:47Z</time>
      </trkpt>
      <trkpt lat="45.03082" lon="3.45014">
        <ele>1053.74</ele>
        <time>2022-03-27T13:04:04Z</time>
      </trkpt>
      <trkpt lat="45.03082" lon="3.45015">
        <ele>1053.74</ele>
        <time>2022-03-27T13:04:05Z</time>
      </trkpt>
      <trkpt lat="45.03076" lon="3.45029">
        <ele>1055.67</ele>
        <time>2022-03-27T13:04:21Z</time>
      </trkpt>
      <trkpt lat="45.03066" lon="3.45047">
        <ele>1056.63</ele>
        <time>2022-03-27T13:04:37Z</time>
      </trkpt>
      <trkpt lat="45.03057" lon="3.45061">
        <ele>1055.18</ele>
        <time>2022-03-27T13:04:52Z</time>
      </trkpt>
      <trkpt lat="45.03054" lon="3.45069">
        <ele>1055.67</ele>
        <time>2022-03-27T13:05:03Z</time>
      </trkpt>
      <trkpt lat="45.03049" lon="3.4508">
        <ele>1056.15</ele>
        <time>2022-03-27T13:05:12Z</time>
      </trkpt>
      <trkpt lat="45.03031" lon="3.451">
        <ele>1057.59</ele>
        <time>2022-03-27T13:05:31Z</time>
      </trkpt>
      <trkpt lat="45.03016" lon="3.45115">
        <ele>1056.15</ele>
        <time>2022-03-27T13:05:48Z</time>
      </trkpt>
      <trkpt lat="45.03001" lon="3.45133">
        <ele>1055.67</ele>
        <time>2022-03-27T13:06:07Z</time>
      </trkpt>
      <trkpt lat="45.02995" lon="3.4514">
        <ele>1056.15</ele>
        <time>2022-03-27T13:06:21Z</time>
      </trkpt>
      <trkpt lat="45.02982" lon="3.45154">
        <ele>1057.11</ele>
        <time>2022-03-27T13:06:36Z</time>
      </trkpt>
      <trkpt lat="45.02981" lon="3.45154">
        <ele>1057.11</ele>
        <time>2022-03-27T13:06:37Z</time>
      </trkpt>
      <trkpt lat="45.02967" lon="3.45168">
        <ele>1059.99</ele>
        <time>2022-03-27T13:06:53Z</time>
      </trkpt>
      <trkpt lat="45.02956" lon="3.4518">
        <ele>1060.47</ele>
        <time>2022-03-27T13:07:08Z</time>
      </trkpt>
      <trkpt lat="45.02939" lon="3.45191">
        <ele>1061.43</ele>
        <time>2022-03-27T13:07:26Z</time>
      </trkpt>
      <trkpt lat="45.02926" lon="3.45202">
        <ele>1062.87</ele>
        <time>2022-03-27T13:07:42Z</time>
      </trkpt>
      <trkpt lat="45.02919" lon="3.4521">
        <ele>1063.36</ele>
        <time>2022-03-27T13:07:57Z</time>
      </trkpt>
      <trkpt lat="45.02913" lon="3.45216">
        <ele>1064.32</ele>
        <time>2022-03-27T13:08:14Z</time>
      </trkpt>
      <trkpt lat="45.0291" lon="3.45218">
        <ele>1063.84</ele>
        <time>2022-03-27T13:08:41Z</time>
      </trkpt>
      <trkpt lat="45.02908" lon="3.4522">
        <ele>1063.36</ele>
        <time>2022-03-27T13:08:44Z</time>
      </trkpt>
      <trkpt lat="45.029" lon="3.45221">
        <ele>1062.87</ele>
        <time>2022-03-27T13:08:52Z</time>
      </trkpt>
      <trkpt lat="45.02898" lon="3.45219">
        <ele>1063.36</ele>
        <time>2022-03-27T13:08:55Z</time>
      </trkpt>
      <trkpt lat="45.0289" lon="3.45227">
        <ele>1063.84</ele>
        <time>2022-03-27T13:09:06Z</time>
      </trkpt>
      <trkpt lat="45.02889" lon="3.45233">
        <ele>1063.84</ele>
        <time>2022-03-27T13:09:12Z</time>
      </trkpt>
      <trkpt lat="45.02889" lon="3.45239">
        <ele>1063.84</ele>
        <time>2022-03-27T13:09:16Z</time>
      </trkpt>
      <trkpt lat="45.02889" lon="3.45262">
        <ele>1062.39</ele>
        <time>2022-03-27T13:09:33Z</time>
      </trkpt>
      <trkpt lat="45.02888" lon="3.45288">
        <ele>1059.03</ele>
        <time>2022-03-27T13:09:51Z</time>
      </trkpt>
      <trkpt lat="45.02888" lon="3.45293">
        <ele>1058.55</ele>
        <time>2022-03-27T13:09:54Z</time>
      </trkpt>
      <trkpt lat="45.02886" lon="3.45313">
        <ele>1054.22</ele>
        <time>2022-03-27T13:10:10Z</time>
      </trkpt>
      <trkpt lat="45.02887" lon="3.45325">
        <ele>1052.78</ele>
        <time>2022-03-27T13:10:24Z</time>
      </trkpt>
      <trkpt lat="45.02889" lon="3.45331">
        <ele>1052.78</ele>
        <time>2022-03-27T13:10:37Z</time>
      </trkpt>
      <trkpt lat="45.02891" lon="3.45353">
        <ele>1053.26</ele>
        <time>2022-03-27T13:10:52Z</time>
      </trkpt>
      <trkpt lat="45.02888" lon="3.45381">
        <ele>1050.86</ele>
        <time>2022-03-27T13:11:08Z</time>
      </trkpt>
      <trkpt lat="45.02885" lon="3.45406">
        <ele>1048.94</ele>
        <time>2022-03-27T13:11:24Z</time>
      </trkpt>
      <trkpt lat="45.02885" lon="3.45428">
        <ele>1047.49</ele>
        <time>2022-03-27T13:11:37Z</time>
      </trkpt>
      <trkpt lat="45.02882" lon="3.45459">
        <ele>1045.09</ele>
        <time>2022-03-27T13:11:55Z</time>
      </trkpt>
      <trkpt lat="45.02865" lon="3.45475">
        <ele>1042.21</ele>
        <time>2022-03-27T13:12:12Z</time>
      </trkpt>
      <trkpt lat="45.02855" lon="3.45474">
        <ele>1042.21</ele>
        <time>2022-03-27T13:12:21Z</time>
      </trkpt>
      <trkpt lat="45.02847" lon="3.45469">
        <ele>1042.21</ele>
        <time>2022-03-27T13:12:29Z</time>
      </trkpt>
      <trkpt lat="45.02843" lon="3.45468">
        <ele>1042.69</ele>
        <time>2022-03-27T13:12:33Z</time>
      </trkpt>
      <trkpt lat="45.02834" lon="3.45462">
        <ele>1042.21</ele>
        <time>2022-03-27T13:12:47Z</time>
      </trkpt>
      <trkpt lat="45.02823" lon="3.4545">
        <ele>1041.73</ele>
        <time>2022-03-27T13:13:01Z</time>
      </trkpt>
      <trkpt lat="45.02821" lon="3.45448">
        <ele>1041.73</ele>
        <time>2022-03-27T13:13:04Z</time>
      </trkpt>
      <trkpt lat="45.02804" lon="3.45421">
        <ele>1040.76</ele>
        <time>2022-03-27T13:13:25Z</time>
      </trkpt>
      <trkpt lat="45.02789" lon="3.45394">
        <ele>1039.32</ele>
        <time>2022-03-27T13:13:44Z</time>
      </trkpt>
      <trkpt lat="45.02772" lon="3.45371">
        <ele>1039.32</ele>
        <time>2022-03-27T13:14:04Z</time>
      </trkpt>
      <trkpt lat="45.02756" lon="3.45359">
        <ele>1038.36</ele>
        <time>2022-03-27T13:14:21Z</time>
      </trkpt>
      <trkpt lat="45.02735" lon="3.45363">
        <ele>1033.55</ele>
        <time>2022-03-27T13:14:39Z</time>
      </trkpt>
      <trkpt lat="45.0273" lon="3.45369">
        <ele>1031.15</ele>
        <time>2022-03-27T13:14:46Z</time>
      </trkpt>
      <trkpt lat="45.02715" lon="3.45384">
        <ele>1027.79</ele>
        <time>2022-03-27T13:15:03Z</time>
      </trkpt>
      <trkpt lat="45.02695" lon="3.45401">
        <ele>1026.83</ele>
        <time>2022-03-27T13:15:23Z</time>
      </trkpt>
      <trkpt lat="45.0268" lon="3.45417">
        <ele>1025.38</ele>
        <time>2022-03-27T13:15:41Z</time>
      </trkpt>
      <trkpt lat="45.02668" lon="3.45431">
        <ele>1023.46</ele>
        <time>2022-03-27T13:15:57Z</time>
      </trkpt>
      <trkpt lat="45.02653" lon="3.45443">
        <ele>1021.06</ele>
        <time>2022-03-27T13:16:13Z</time>
      </trkpt>
      <trkpt lat="45.02635" lon="3.45457">
        <ele>1021.06</ele>
        <time>2022-03-27T13:16:31Z</time>
      </trkpt>
      <trkpt lat="45.02618" lon="3.45467">
        <ele>1019.62</ele>
        <time>2022-03-27T13:16:49Z</time>
      </trkpt>
      <trkpt lat="45.02616" lon="3.4548">
        <ele>1019.62</ele>
        <time>2022-03-27T13:17:03Z</time>
      </trkpt>
      <trkpt lat="45.02619" lon="3.45512">
        <ele>1018.17</ele>
        <time>2022-03-27T13:17:24Z</time>
      </trkpt>
      <trkpt lat="45.02618" lon="3.45526">
        <ele>1017.21</ele>
        <time>2022-03-27T13:17:36Z</time>
      </trkpt>
      <trkpt lat="45.02615" lon="3.4553">
        <ele>1016.25</ele>
        <time>2022-03-27T13:17:52Z</time>
      </trkpt>
      <trkpt lat="45.0261" lon="3.45532">
        <ele>1016.73</ele>
        <time>2022-03-27T13:17:58Z</time>
      </trkpt>
      <trkpt lat="45.02591" lon="3.45546">
        <ele>1013.37</ele>
        <time>2022-03-27T13:18:17Z</time>
      </trkpt>
      <trkpt lat="45.02575" lon="3.45555">
        <ele>1010.96</ele>
        <time>2022-03-27T13:18:33Z</time>
      </trkpt>
      <trkpt lat="45.02562" lon="3.45564">
        <ele>1008.08</ele>
        <time>2022-03-27T13:18:48Z</time>
      </trkpt>
      <trkpt lat="45.0255" lon="3.45572">
        <ele>1005.68</ele>
        <time>2022-03-27T13:19:00Z</time>
      </trkpt>
      <trkpt lat="45.02532" lon="3.45582">
        <ele>1001.83</ele>
        <time>2022-03-27T13:19:17Z</time>
      </trkpt>
      <trkpt lat="45.02519" lon="3.45594">
        <ele>998.95</ele>
        <time>2022-03-27T13:19:32Z</time>
      </trkpt>
      <trkpt lat="45.02517" lon="3.45595">
        <ele>998.95</ele>
        <time>2022-03-27T13:19:34Z</time>
      </trkpt>
      <trkpt lat="45.02498" lon="3.45618">
        <ele>996.54</ele>
        <time>2022-03-27T13:19:55Z</time>
      </trkpt>
      <trkpt lat="45.02497" lon="3.4562">
        <ele>996.54</ele>
        <time>2022-03-27T13:19:56Z</time>
      </trkpt>
      <trkpt lat="45.02488" lon="3.45627">
        <ele>998.9</ele>
      </trkpt>
      <trkpt lat="45.02489" lon="3.45636">
        <ele>999</ele>
      </trkpt>
      <trkpt lat="45.02496" lon="3.45686">
        <ele>997.7</ele>
      </trkpt>
      <trkpt lat="45.02496" lon="3.45715">
        <ele>996.8</ele>
      </trkpt>
      <trkpt lat="45.02493" lon="3.45767">
        <ele>995.8</ele>
      </trkpt>
      <trkpt lat="45.02479" lon="3.45856">
        <ele>995.6</ele>
      </trkpt>
      <trkpt lat="45.02466" lon="3.45976">
        <ele>991.8</ele>
      </trkpt>
      <trkpt lat="45.02447" lon="3.46025">
        <ele>990.7</ele>
      </trkpt>
      <trkpt lat="45.02433" lon="3.46055">
        <ele>990.5</ele>
      </trkpt>
      <trkpt lat="45.02414" lon="3.46084">
        <ele>990.5</ele>
      </trkpt>
      <trkpt lat="45.02399" lon="3.46104">
        <ele>990.4</ele>
      </trkpt>
      <trkpt lat="45.02335" lon="3.46169">
        <ele>988.4</ele>
      </trkpt>
      <trkpt lat="45.02265" lon="3.46246">
        <ele>993.9</ele>
      </trkpt>
      <trkpt lat="45.02247" lon="3.4626">
        <ele>995.3</ele>
      </trkpt>
      <trkpt lat="45.0224" lon="3.46271">
        <ele>995.9</ele>
      </trkpt>
      <trkpt lat="45.02236" lon="3.46282">
        <ele>996.9</ele>
      </trkpt>
      <trkpt lat="45.02235" lon="3.46294">
        <ele>998</ele>
      </trkpt>
      <trkpt lat="45.02242" lon="3.46385">
        <ele>1007.4</ele>
      </trkpt>
      <trkpt lat="45.02241" lon="3.46398">
        <ele>1008.2</ele>
      </trkpt>
      <trkpt lat="45.02238" lon="3.46409">
        <ele>1008.9</ele>
      </trkpt>
      <trkpt lat="45.02162" lon="3.46549">
        <ele>1016.3</ele>
      </trkpt>
      <trkpt lat="45.02153" lon="3.46567">
        <ele>1015.5</ele>
      </trkpt>
      <trkpt lat="45.02145" lon="3.4659">
        <ele>1017.2</ele>
      </trkpt>
      <trkpt lat="45.02192" lon="3.46657">
        <ele>1020.5</ele>
      </trkpt>
      <trkpt lat="45.02191" lon="3.46718">
        <ele>1020</ele>
      </trkpt>
      <trkpt lat="45.0217" lon="3.46767">
        <ele>1013.6</ele>
      </trkpt>
      <trkpt lat="45.02179" lon="3.46803">
        <ele>1008.3</ele>
      </trkpt>
      <trkpt lat="45.02185" lon="3.4688">
        <ele>996.9</ele>
      </trkpt>
      <trkpt lat="45.02167" lon="3.46917">
        <ele>992.9</ele>
      </trkpt>
      <trkpt lat="45.02157" lon="3.47006">
        <ele>978.7</ele>
      </trkpt>
      <trkpt lat="45.02174" lon="3.47037">
        <ele>975.4</ele>
      </trkpt>
      <trkpt lat="45.02176" lon="3.4705">
        <ele>973.5</ele>
      </trkpt>
      <trkpt lat="45.02166" lon="3.47063">
        <ele>971.5</ele>
      </trkpt>
      <trkpt lat="45.0215" lon="3.47073">
        <ele>967.2</ele>
      </trkpt>
      <trkpt lat="45.02125" lon="3.47059">
        <ele>964.3</ele>
      </trkpt>
      <trkpt lat="45.02101" lon="3.47046">
        <ele>959.8</ele>
      </trkpt>
      <trkpt lat="45.02076" lon="3.46995">
        <ele>955.9</ele>
      </trkpt>
      <trkpt lat="45.02061" lon="3.4696">
        <ele>952.9</ele>
      </trkpt>
      <trkpt lat="45.02035" lon="3.46939">
        <ele>949.2</ele>
      </trkpt>
      <trkpt lat="45.02012" lon="3.4689">
        <ele>947.3</ele>
      </trkpt>
      <trkpt lat="45.01988" lon="3.46876">
        <ele>944.9</ele>
      </trkpt>
      <trkpt lat="45.01972" lon="3.4688">
        <ele>942.9</ele>
      </trkpt>
      <trkpt lat="45.01962" lon="3.46892">
        <ele>941.6</ele>
      </trkpt>
      <trkpt lat="45.01944" lon="3.46931">
        <ele>935.4</ele>
      </trkpt>
      <trkpt lat="45.01914" lon="3.46946">
        <ele>931.9</ele>
      </trkpt>
      <trkpt lat="45.01867" lon="3.46924">
        <ele>922.2</ele>
      </trkpt>
      <trkpt lat="45.01823" lon="3.47002">
        <ele>909.8</ele>
      </trkpt>
      <trkpt lat="45.018" lon="3.47039">
        <ele>905.4</ele>
      </trkpt>
      <trkpt lat="45.01783" lon="3.47062">
        <ele>902.8</ele>
      </trkpt>
      <trkpt lat="45.01773" lon="3.47093">
        <ele>898.3</ele>
      </trkpt>
      <trkpt lat="45.01756" lon="3.47115">
        <ele>893</ele>
      </trkpt>
      <trkpt lat="45.01703" lon="3.47147">
        <ele>884.7</ele>
      </trkpt>
      <trkpt lat="45.01683" lon="3.47173">
        <ele>879.4</ele>
      </trkpt>
      <trkpt lat="45.0164" lon="3.47183">
        <ele>872.3</ele>
      </trkpt>
      <trkpt lat="45.01539" lon="3.47159">
        <ele>859.1</ele>
      </trkpt>
      <trkpt lat="45.0154" lon="3.47157">
        <ele>859.7</ele>
      </trkpt>
      <trkpt lat="45.01535" lon="3.47147">
        <ele>859.7</ele>
      </trkpt>
      <trkpt lat="45.01535" lon="3.47125">
        <ele>859.8</ele>
      </trkpt>
      <trkpt lat="45.01544" lon="3.47106">
        <ele>859.3</ele>
      </trkpt>
      <trkpt lat="45.01587" lon="3.47068">
        <ele>857.9</ele>
      </trkpt>
      <trkpt lat="45.01642" lon="3.46997">
        <ele>848.4</ele>
      </trkpt>
      <trkpt lat="45.0165" lon="3.46984">
        <ele>848.2</ele>
      </trkpt>
      <trkpt lat="45.01656" lon="3.46962">
        <ele>846.1</ele>
      </trkpt>
      <trkpt lat="45.01665" lon="3.46865">
        <ele>840.9</ele>
      </trkpt>
      <trkpt lat="45.01676" lon="3.46797">
        <ele>839.8</ele>
      </trkpt>
      <trkpt lat="45.01679" lon="3.46761">
        <ele>839.2</ele>
      </trkpt>
      <trkpt lat="45.01677" lon="3.4675">
        <ele>838.3</ele>
      </trkpt>
      <trkpt lat="45.01673" lon="3.46724">
        <ele>835.2</ele>
      </trkpt>
      <trkpt lat="45.0166" lon="3.46669">
        <ele>827.2</ele>
      </trkpt>
      <trkpt lat="45.0166" lon="3.46651">
        <ele>824.4</ele>
      </trkpt>
      <trkpt lat="45.01665" lon="3.4663">
        <ele>822.1</ele>
      </trkpt>
      <trkpt lat="45.01715" lon="3.46545">
        <ele>814.1</ele>
      </trkpt>
      <trkpt lat="45.01721" lon="3.46537">
        <ele>813.5</ele>
      </trkpt>
      <trkpt lat="45.01723" lon="3.46517">
        <ele>811</ele>
      </trkpt>
      <trkpt lat="45.01727" lon="3.465">
        <ele>810</ele>
      </trkpt>
      <trkpt lat="45.01735" lon="3.46489">
        <ele>811.7</ele>
      </trkpt>
      <trkpt lat="45.01741" lon="3.46477">
        <ele>813.3</ele>
      </trkpt>
      <trkpt lat="45.01737" lon="3.46438">
        <ele>809.7</ele>
      </trkpt>
      <trkpt lat="45.0174" lon="3.46401">
        <ele>807.5</ele>
      </trkpt>
      <trkpt lat="45.01737" lon="3.46364">
        <ele>803.3</ele>
      </trkpt>
      <trkpt lat="45.01737" lon="3.46362">
        <ele>803.2</ele>
      </trkpt>
      <trkpt lat="45.01752" lon="3.46335">
        <ele>808.8</ele>
      </trkpt>
      <trkpt lat="45.01762" lon="3.46282">
        <ele>810.7</ele>
      </trkpt>
      <trkpt lat="45.01774" lon="3.4627">
        <ele>813.4</ele>
      </trkpt>
      <trkpt lat="45.01801" lon="3.4626">
        <ele>815.5</ele>
      </trkpt>
      <trkpt lat="45.01844" lon="3.46258">
        <ele>821.2</ele>
      </trkpt>
      <trkpt lat="45.01886" lon="3.46263">
        <ele>829.9</ele>
      </trkpt>
      <trkpt lat="45.01902" lon="3.46242">
        <ele>829.7</ele>
      </trkpt>
      <trkpt lat="45.01908" lon="3.46228">
        <ele>829.6</ele>
      </trkpt>
      <trkpt lat="45.01921" lon="3.46221">
        <ele>835</ele>
      </trkpt>
      <trkpt lat="45.01921" lon="3.46183">
        <ele>840.4</ele>
      </trkpt>
      <trkpt lat="45.01908" lon="3.46128">
        <ele>843.7</ele>
      </trkpt>
      <trkpt lat="45.01909" lon="3.46116">
        <ele>844.1</ele>
      </trkpt>
      <trkpt lat="45.01934" lon="3.46085">
        <ele>847</ele>
      </trkpt>
      <trkpt lat="45.01973" lon="3.46023">
        <ele>848</ele>
      </trkpt>
      <trkpt lat="45.01982" lon="3.46007">
        <ele>850.1</ele>
      </trkpt>
      <trkpt lat="45.01944" lon="3.45966">
        <ele>843.1</ele>
      </trkpt>
      <trkpt lat="45.01925" lon="3.45955">
        <ele>837</ele>
      </trkpt>
      <trkpt lat="45.01913" lon="3.45926">
        <ele>831.1</ele>
      </trkpt>
      <trkpt lat="45.019" lon="3.45888">
        <ele>824.9</ele>
      </trkpt>
      <trkpt lat="45.01888" lon="3.45846">
        <ele>816.2</ele>
      </trkpt>
      <trkpt lat="45.01888" lon="3.45829">
        <ele>814.1</ele>
      </trkpt>
      <trkpt lat="45.01894" lon="3.4581">
        <ele>811.8</ele>
      </trkpt>
      <trkpt lat="45.01908" lon="3.45797">
        <ele>813.2</ele>
      </trkpt>
      <trkpt lat="45.01917" lon="3.4579">
        <ele>815.1</ele>
      </trkpt>
      <trkpt lat="45.01913" lon="3.45771">
        <ele>813.7</ele>
      </trkpt>
      <trkpt lat="45.01906" lon="3.45761">
        <ele>812</ele>
      </trkpt>
      <trkpt lat="45.01883" lon="3.45735">
        <ele>807.7</ele>
      </trkpt>
      <trkpt lat="45.01867" lon="3.45716">
        <ele>805.5</ele>
      </trkpt>
      <trkpt lat="45.01845" lon="3.45704">
        <ele>800.5</ele>
      </trkpt>
      <trkpt lat="45.01819" lon="3.45679">
        <ele>796</ele>
      </trkpt>
      <trkpt lat="45.01805" lon="3.45663">
        <ele>793.6</ele>
      </trkpt>
      <trkpt lat="45.0179" lon="3.45654">
        <ele>792</ele>
      </trkpt>
      <trkpt lat="45.01779" lon="3.45639">
        <ele>791.4</ele>
      </trkpt>
      <trkpt lat="45.01777" lon="3.45627">
        <ele>795.63</ele>
        <time>2022-03-27T13:43:45Z</time>
      </trkpt>
      <trkpt lat="45.01778" lon="3.45631">
        <ele>795.15</ele>
        <time>2022-03-27T13:44:02Z</time>
      </trkpt>
      <trkpt lat="45.01778" lon="3.45633">
        <ele>795.15</ele>
        <time>2022-03-27T13:44:19Z</time>
      </trkpt>
      <trkpt lat="45.01778" lon="3.45632">
        <ele>794.67</ele>
        <time>2022-03-27T13:44:44Z</time>
      </trkpt>
      <trkpt lat="45.01774" lon="3.45624">
        <ele>793.71</ele>
        <time>2022-03-27T13:44:57Z</time>
      </trkpt>
      <trkpt lat="45.01769" lon="3.45618">
        <ele>793.22</ele>
        <time>2022-03-27T13:45:02Z</time>
      </trkpt>
      <trkpt lat="45.01766" lon="3.45609">
        <ele>791.3</ele>
        <time>2022-03-27T13:45:13Z</time>
      </trkpt>
      <trkpt lat="45.01765" lon="3.45606">
        <ele>791.3</ele>
        <time>2022-03-27T13:45:16Z</time>
      </trkpt>
      <trkpt lat="45.01761" lon="3.45594">
        <ele>788.9</ele>
        <time>2022-03-27T13:45:30Z</time>
      </trkpt>
      <trkpt lat="45.01762" lon="3.45597">
        <ele>787.94</ele>
        <time>2022-03-27T13:45:48Z</time>
      </trkpt>
      <trkpt lat="45.01764" lon="3.45609">
        <ele>789.86</ele>
        <time>2022-03-27T13:46:05Z</time>
      </trkpt>
      <trkpt lat="45.01763" lon="3.4561">
        <ele>789.38</ele>
        <time>2022-03-27T13:46:30Z</time>
      </trkpt>
      <trkpt lat="45.01763" lon="3.45609">
        <ele>790.34</ele>
        <time>2022-03-27T13:47:02Z</time>
      </trkpt>
      <trkpt lat="45.01763" lon="3.45609">
        <ele>790.34</ele>
        <time>2022-03-27T13:47:30Z</time>
      </trkpt>
      <trkpt lat="45.01763" lon="3.45611">
        <ele>789.86</ele>
        <time>2022-03-27T13:47:45Z</time>
      </trkpt>
      <trkpt lat="45.01764" lon="3.45606">
        <ele>789.38</ele>
        <time>2022-03-27T13:48:00Z</time>
      </trkpt>
      <trkpt lat="45.01763" lon="3.456">
        <ele>787.94</ele>
        <time>2022-03-27T13:48:14Z</time>
      </trkpt>
      <trkpt lat="45.0176" lon="3.45595">
        <ele>786.98</ele>
        <time>2022-03-27T13:48:23Z</time>
      </trkpt>
      <trkpt lat="45.01757" lon="3.45593">
        <ele>786.5</ele>
        <time>2022-03-27T13:48:26Z</time>
      </trkpt>
      <trkpt lat="45.01749" lon="3.456">
        <ele>785.53</ele>
        <time>2022-03-27T13:48:38Z</time>
      </trkpt>
      <trkpt lat="45.01739" lon="3.45609">
        <ele>783.61</ele>
        <time>2022-03-27T13:48:53Z</time>
      </trkpt>
      <trkpt lat="45.01736" lon="3.45606">
        <ele>781.69</ele>
        <time>2022-03-27T13:49:04Z</time>
      </trkpt>
      <trkpt lat="45.01736" lon="3.456">
        <ele>781.69</ele>
        <time>2022-03-27T13:49:19Z</time>
      </trkpt>
      <trkpt lat="45.01741" lon="3.45585">
        <ele>780.73</ele>
        <time>2022-03-27T13:49:33Z</time>
      </trkpt>
      <trkpt lat="45.01744" lon="3.4557">
        <ele>779.77</ele>
        <time>2022-03-27T13:49:47Z</time>
      </trkpt>
      <trkpt lat="45.0175" lon="3.45548">
        <ele>779.29</ele>
        <time>2022-03-27T13:50:04Z</time>
      </trkpt>
      <trkpt lat="45.01756" lon="3.45524">
        <ele>777.36</ele>
        <time>2022-03-27T13:50:20Z</time>
      </trkpt>
      <trkpt lat="45.01759" lon="3.45507">
        <ele>774.48</ele>
        <time>2022-03-27T13:50:31Z</time>
      </trkpt>
      <trkpt lat="45.01757" lon="3.45486">
        <ele>771.6</ele>
        <time>2022-03-27T13:50:45Z</time>
      </trkpt>
      <trkpt lat="45.01755" lon="3.4546">
        <ele>768.23</ele>
        <time>2022-03-27T13:51:01Z</time>
      </trkpt>
      <trkpt lat="45.01757" lon="3.45439">
        <ele>768.23</ele>
        <time>2022-03-27T13:51:15Z</time>
      </trkpt>
      <trkpt lat="45.01762" lon="3.45417">
        <ele>765.83</ele>
        <time>2022-03-27T13:51:30Z</time>
      </trkpt>
      <trkpt lat="45.01764" lon="3.45402">
        <ele>761.5</ele>
        <time>2022-03-27T13:51:46Z</time>
      </trkpt>
      <trkpt lat="45.01764" lon="3.454">
        <ele>759.1</ele>
        <time>2022-03-27T13:52:07Z</time>
      </trkpt>
      <trkpt lat="45.01768" lon="3.4538">
        <ele>756.21</ele>
        <time>2022-03-27T13:52:22Z</time>
      </trkpt>
      <trkpt lat="45.01775" lon="3.45362">
        <ele>754.77</ele>
        <time>2022-03-27T13:52:35Z</time>
      </trkpt>
    </trkseg>
  </trk>
</gpx>